[[{"header":{"parameterUnit":"m.s-1","parameterCategory":1,"la1":30.6,"la2":29.2853,"lo1":-89.7004,"lo2":-87.6739,"dy":0.0162,"dx":0.0183,"nx":112,"ny":82,"refTime":"2024-06-20T06:00:00:Z","depth":0,"parameterNumber":2,"parameterNumberName":"U-component_of_WINDS"},"data":[0.0,0.0,0.0,0.0,0.0,0.0,0.0,0.0,0.0,0.0,0.0,0.0,0.0,0.0,0.0,0.0,0.0,0.0,0.0,0.0,0.0,0.0,0.0,0.0,0.0,0.0,0.0,0.0,0.0,0.0,0.0,0.0,0.0,0.0,0.0,0.0,0.0,0.0,0.0,0.0,0.0,0.0,0.0,0.0,0.0,0.0,0.0,0.0,0.0,0.0,0.0,0.0,0.0,0.0,0.0,0.0,0.0,0.0,0.0,0.0,0.0,0.0,0.0,0.0,0.0,0.0,0.0,0.0,0.0,0.0,0.0,0.0,0.0,0.0,0.0,0.0,0.0,0.0,0.0,0.0,0.0,0.0,0.0,0.0,0.0,0.0,0.0,0.0,0.0,0.0,-3.1816,-3.5553,-3.8692,-4.0459,-4.0336,-3.9139,-3.6938,-3.3614,0.0,0.0,0.0,0.0,0.0,0.0,0.0,0.0,0.0,0.0,0.0,0.0,0.0,0.0,0.0,0.0,0.0,0.0,0.0,0.0,0.0,0.0,0.0,0.0,0.0,0.0,0.0,0.0,0.0,0.0,0.0,0.0,0.0,0.0,0.0,0.0,0.0,0.0,0.0,0.0,0.0,0.0,0.0,0.0,0.0,0.0,0.0,0.0,0.0,0.0,0.0,0.0,0.0,0.0,0.0,0.0,0.0,0.0,0.0,0.0,0.0,0.0,0.0,0.0,0.0,0.0,0.0,0.0,0.0,0.0,0.0,0.0,0.0,0.0,0.0,0.0,0.0,0.0,0.0,0.0,0.0,0.0,0.0,0.0,0.0,0.0,0.0,0.0,0.0,0.0,0.0,0.0,0.0,0.0,0.0,0.0,0.0,0.0,0.0,0.0,0.0,0.0,0.0,0.0,-3.2355,-3.7507,-3.9539,-4.0259,-3.969,-3.8431,-3.6445,-3.3583,0.0,0.0,0.0,0.0,0.0,0.0,0.0,0.0,0.0,0.0,0.0,0.0,0.0,0.0,0.0,0.0,0.0,0.0,0.0,0.0,0.0,0.0,0.0,0.0,0.0,0.0,0.0,0.0,0.0,0.0,0.0,0.0,0.0,0.0,0.0,0.0,0.0,0.0,0.0,0.0,0.0,0.0,0.0,0.0,0.0,0.0,0.0,0.0,0.0,0.0,0.0,0.0,0.0,0.0,0.0,0.0,0.0,0.0,0.0,0.0,0.0,0.0,0.0,0.0,0.0,0.0,0.0,0.0,0.0,0.0,0.0,0.0,0.0,0.0,0.0,0.0,0.0,0.0,0.0,0.0,0.0,0.0,0.0,0.0,0.0,0.0,0.0,0.0,0.0,0.0,0.0,0.0,0.0,0.0,0.0,0.0,0.0,0.0,0.0,0.0,0.0,0.0,0.0,-3.1182,-3.4137,-3.8092,-3.969,-4.0213,-3.9551,-3.7938,-3.5753,-3.2988,-3.0211,0.0,0.0,0.0,0.0,0.0,0.0,0.0,0.0,0.0,0.0,0.0,0.0,0.0,0.0,0.0,0.0,0.0,0.0,0.0,0.0,0.0,0.0,0.0,0.0,0.0,0.0,0.0,0.0,0.0,0.0,0.0,0.0,0.0,0.0,0.0,0.0,0.0,0.0,0.0,0.0,0.0,0.0,0.0,0.0,0.0,0.0,0.0,0.0,0.0,0.0,0.0,0.0,0.0,0.0,0.0,0.0,0.0,0.0,0.0,0.0,0.0,0.0,0.0,0.0,0.0,0.0,0.0,0.0,0.0,0.0,0.0,0.0,0.0,0.0,0.0,0.0,0.0,0.0,0.0,0.0,0.0,0.0,0.0,0.0,0.0,0.0,0.0,0.0,0.0,0.0,0.0,0.0,0.0,0.0,0.0,0.0,0.0,0.0,0.0,0.0,0.0,0.0,-3.369,-3.5891,-3.8262,-3.969,-4.0151,-3.9321,-3.7415,-3.5061,-3.2228,-2.871,0.0,0.0,0.0,0.0,0.0,0.0,0.0,0.0,0.0,0.0,0.0,0.0,0.0,0.0,0.0,0.0,0.0,0.0,0.0,0.0,0.0,0.0,0.0,0.0,0.0,0.0,0.0,0.0,0.0,0.0,0.0,0.0,0.0,0.0,0.0,0.0,0.0,0.0,0.0,0.0,0.0,0.0,0.0,0.0,0.0,0.0,0.0,0.0,0.0,0.0,0.0,0.0,0.0,0.0,0.0,0.0,0.0,0.0,0.0,0.0,0.0,0.0,0.0,0.0,0.0,0.0,0.0,0.0,0.0,0.0,0.0,0.0,0.0,0.0,0.0,0.0,0.0,0.0,0.0,0.0,0.0,0.0,0.0,0.0,0.0,0.0,0.0,0.0,0.0,0.0,0.0,0.0,0.0,0.0,0.0,0.0,0.0,0.0,0.0,0.0,0.0,0.0,-3.3952,-3.6907,-3.8354,-3.969,-3.9967,-3.8692,-3.6722,-3.4324,-3.1454,-2.7553,0.0,0.0,0.0,0.0,0.0,0.0,0.0,0.0,0.0,0.0,0.0,0.0,0.0,0.0,0.0,0.0,0.0,0.0,0.0,0.0,0.0,0.0,0.0,0.0,0.0,0.0,0.0,0.0,0.0,0.0,0.0,0.0,0.0,0.0,0.0,0.0,0.0,0.0,0.0,0.0,0.0,0.0,0.0,0.0,0.0,0.0,0.0,0.0,0.0,0.0,0.0,0.0,0.0,0.0,0.0,0.0,0.0,0.0,0.0,0.0,0.0,0.0,0.0,0.0,0.0,0.0,0.0,0.0,0.0,0.0,0.0,0.0,0.0,0.0,0.0,0.0,0.0,0.0,0.0,0.0,0.0,0.0,0.0,0.0,0.0,0.0,0.0,0.0,0.0,0.0,0.0,0.0,0.0,0.0,0.0,0.0,0.0,0.0,0.0,0.0,0.0,0.0,-3.2788,-3.5414,0.0,-3.8708,-3.8893,-3.7954,-3.6415,-3.4079,-3.0731,0.0,0.0,0.0,0.0,0.0,0.0,0.0,0.0,0.0,0.0,0.0,0.0,0.0,0.0,0.0,0.0,0.0,0.0,0.0,0.0,0.0,0.0,0.0,0.0,0.0,0.0,0.0,0.0,0.0,0.0,0.0,0.0,0.0,0.0,0.0,0.0,0.0,0.0,0.0,0.0,0.0,0.0,0.0,0.0,0.0,0.0,0.0,0.0,0.0,0.0,0.0,0.0,0.0,0.0,0.0,0.0,0.0,0.0,0.0,0.0,0.0,0.0,0.0,0.0,0.0,0.0,0.0,0.0,0.0,0.0,0.0,0.0,0.0,0.0,0.0,0.0,0.0,0.0,0.0,0.0,0.0,0.0,0.0,0.0,0.0,0.0,0.0,0.0,0.0,0.0,0.0,0.0,0.0,0.0,0.0,0.0,0.0,0.0,0.0,0.0,0.0,0.0,-2.9756,-3.2453,-3.4953,0.0,-3.8108,-3.8231,-3.7569,-3.5845,-3.3389,-3.0018,0.0,0.0,0.0,0.0,0.0,0.0,0.0,0.0,0.0,0.0,0.0,0.0,0.0,0.0,0.0,0.0,0.0,0.0,0.0,0.0,0.0,0.0,0.0,0.0,0.0,0.0,0.0,0.0,0.0,0.0,0.0,0.0,0.0,0.0,0.0,0.0,0.0,0.0,0.0,0.0,0.0,0.0,0.0,0.0,0.0,0.0,0.0,0.0,0.0,0.0,0.0,0.0,0.0,0.0,0.0,0.0,0.0,0.0,0.0,0.0,0.0,0.0,0.0,0.0,0.0,0.0,0.0,0.0,0.0,0.0,0.0,0.0,0.0,0.0,0.0,0.0,0.0,0.0,0.0,0.0,0.0,0.0,0.0,0.0,0.0,0.0,0.0,0.0,0.0,0.0,0.0,0.0,0.0,0.0,0.0,0.0,0.0,0.0,0.0,0.0,0.0,0.0,-2.9837,-3.331,-3.5984,-3.7353,-3.8092,-3.8215,-3.7538,-3.4983,-3.2176,0.0,0.0,0.0,0.0,0.0,0.0,0.0,0.0,0.0,0.0,0.0,0.0,0.0,0.0,0.0,0.0,0.0,0.0,0.0,0.0,0.0,0.0,0.0,0.0,0.0,0.0,0.0,0.0,0.0,0.0,0.0,0.0,0.0,0.0,0.0,0.0,0.0,0.0,0.0,0.0,0.0,0.0,0.0,0.0,0.0,0.0,0.0,0.0,0.0,0.0,0.0,0.0,0.0,0.0,0.0,0.0,0.0,0.0,0.0,0.0,0.0,0.0,0.0,0.0,0.0,0.0,0.0,0.0,0.0,0.0,0.0,0.0,0.0,0.0,0.0,0.0,0.0,0.0,0.0,0.0,0.0,0.0,0.0,0.0,0.0,0.0,0.0,0.0,0.0,0.0,0.0,0.0,0.0,0.0,0.0,0.0,0.0,0.0,0.0,0.0,0.0,0.0,0.0,-2.979,-3.2854,-3.5321,-3.6645,-3.6969,-3.6936,-3.6627,-3.4957,-3.2514,-2.9096,0.0,0.0,0.0,0.0,0.0,0.0,0.0,0.0,0.0,0.0,0.0,0.0,0.0,0.0,0.0,0.0,0.0,0.0,0.0,0.0,0.0,0.0,0.0,0.0,0.0,0.0,0.0,0.0,0.0,0.0,0.0,0.0,0.0,0.0,0.0,0.0,0.0,0.0,0.0,0.0,0.0,0.0,0.0,0.0,0.0,0.0,0.0,0.0,0.0,0.0,0.0,0.0,0.0,0.0,0.0,0.0,0.0,0.0,0.0,0.0,0.0,0.0,0.0,0.0,0.0,0.0,0.0,0.0,0.0,0.0,0.0,0.0,0.0,0.0,0.0,0.0,0.0,0.0,0.0,0.0,0.0,0.0,0.0,0.0,0.0,0.0,0.0,0.0,0.0,0.0,0.0,0.0,0.0,0.0,0.0,0.0,0.0,0.0,0.0,0.0,0.0,0.0,-2.9846,-3.2844,-3.5185,-3.6275,-3.6383,-3.632,-3.6148,-3.4942,-3.2658,-2.9048,0.0,0.0,0.0,0.0,0.0,0.0,0.0,0.0,0.0,0.0,0.0,0.0,0.0,0.0,0.0,0.0,0.0,0.0,0.0,0.0,0.0,0.0,0.0,0.0,0.0,0.0,0.0,0.0,0.0,0.0,0.0,0.0,0.0,0.0,0.0,0.0,0.0,0.0,0.0,0.0,0.0,0.0,0.0,0.0,0.0,0.0,0.0,0.0,0.0,0.0,0.0,0.0,0.0,0.0,0.0,0.0,0.0,0.0,0.0,0.0,0.0,0.0,0.0,0.0,0.0,0.0,0.0,0.0,0.0,0.0,0.0,0.0,0.0,0.0,0.0,0.0,0.0,0.0,0.0,0.0,0.0,0.0,0.0,0.0,0.0,0.0,0.0,0.0,0.0,0.0,0.0,0.0,0.0,0.0,0.0,0.0,0.0,0.0,0.0,0.0,0.0,0.0,-2.9929,-3.3152,-3.5493,-3.6166,-3.6211,-3.6148,-3.6005,-3.4912,-3.2736,-2.9188,0.0,0.0,0.0,0.0,0.0,0.0,0.0,0.0,0.0,0.0,0.0,0.0,0.0,0.0,0.0,0.0,0.0,0.0,0.0,0.0,0.0,0.0,0.0,0.0,0.0,0.0,0.0,0.0,0.0,0.0,0.0,0.0,0.0,0.0,0.0,0.0,0.0,0.0,0.0,0.0,0.0,0.0,0.0,0.0,0.0,0.0,0.0,0.0,0.0,0.0,0.0,0.0,0.0,0.0,0.0,0.0,0.0,0.0,0.0,0.0,-3.1938,0.0,0.0,0.0,0.0,0.0,0.0,0.0,0.0,0.0,0.0,0.0,0.0,0.0,0.0,0.0,0.0,0.0,0.0,0.0,0.0,0.0,0.0,0.0,0.0,0.0,0.0,0.0,0.0,0.0,0.0,0.0,0.0,0.0,0.0,0.0,0.0,0.0,0.0,0.0,0.0,0.0,-2.9881,-3.324,-3.5707,-3.6352,-3.6274,-3.6148,-3.6005,-3.5152,-3.3321,-3.0323,-2.7805,0.0,0.0,0.0,0.0,0.0,0.0,0.0,0.0,0.0,0.0,0.0,0.0,0.0,0.0,0.0,0.0,0.0,0.0,0.0,0.0,0.0,0.0,0.0,0.0,0.0,0.0,0.0,0.0,0.0,0.0,0.0,0.0,0.0,0.0,0.0,0.0,0.0,0.0,0.0,0.0,0.0,0.0,0.0,0.0,0.0,0.0,0.0,0.0,0.0,0.0,0.0,0.0,0.0,0.0,0.0,0.0,0.0,0.0,0.0,0.0,-3.3835,0.0,0.0,0.0,0.0,0.0,0.0,0.0,0.0,0.0,0.0,0.0,0.0,0.0,0.0,0.0,0.0,0.0,0.0,0.0,0.0,0.0,0.0,0.0,0.0,0.0,0.0,0.0,0.0,0.0,0.0,0.0,0.0,0.0,0.0,0.0,0.0,0.0,0.0,0.0,0.0,-3.0274,-3.3569,-3.5844,-3.6086,-3.6022,-3.5894,-3.5765,-3.51,-3.3653,-3.115,-2.9131,0.0,0.0,0.0,0.0,0.0,0.0,0.0,0.0,0.0,0.0,0.0,0.0,0.0,0.0,0.0,0.0,0.0,0.0,0.0,0.0,0.0,0.0,0.0,0.0,0.0,0.0,0.0,0.0,0.0,0.0,0.0,0.0,0.0,0.0,0.0,0.0,0.0,0.0,0.0,0.0,0.0,0.0,0.0,0.0,0.0,0.0,0.0,0.0,0.0,0.0,0.0,0.0,0.0,0.0,-4.262,-4.3603,-4.3741,-4.3724,-4.3345,-3.8888,-3.7473,-3.8116,0.0,0.0,0.0,0.0,0.0,0.0,0.0,0.0,0.0,0.0,0.0,0.0,0.0,0.0,0.0,0.0,0.0,0.0,0.0,0.0,0.0,0.0,0.0,0.0,0.0,-3.2582,-3.2628,0.0,0.0,0.0,0.0,0.0,0.0,0.0,0.0,0.0,0.0,0.0,0.0,-3.0934,-3.4015,-3.5941,-3.5752,-3.572,-3.5671,-3.5554,-3.5125,-3.4043,-3.2123,-3.0717,-2.8637,0.0,0.0,0.0,0.0,0.0,0.0,0.0,0.0,0.0,0.0,0.0,0.0,0.0,0.0,0.0,0.0,0.0,0.0,0.0,0.0,0.0,0.0,0.0,0.0,0.0,0.0,0.0,0.0,0.0,0.0,0.0,0.0,-2.948,-3.1102,0.0,0.0,0.0,0.0,0.0,0.0,0.0,0.0,0.0,0.0,0.0,0.0,0.0,0.0,-4.2137,-4.363,-4.413,-4.3724,-4.5803,-4.6217,-4.5121,-4.5837,-4.5786,-4.507,-4.4363,0.0,-4.124,-3.8962,0.0,0.0,0.0,0.0,0.0,0.0,0.0,0.0,0.0,0.0,0.0,0.0,0.0,0.0,0.0,0.0,0.0,0.0,0.0,0.0,0.0,0.0,-3.6569,-3.6569,-3.7153,-3.7261,0.0,-3.2121,-2.8965,-2.7934,0.0,0.0,0.0,0.0,0.0,0.0,0.0,0.0,-3.1678,-3.4304,-3.6005,-3.5973,-3.5799,-3.5688,-3.5671,-3.5497,-3.5043,-3.4174,-3.2317,-3.0778,-2.9774,-2.6338,0.0,0.0,0.0,0.0,0.0,0.0,0.0,0.0,0.0,0.0,0.0,0.0,0.0,0.0,0.0,0.0,0.0,0.0,0.0,0.0,0.0,0.0,0.0,0.0,0.0,0.0,0.0,0.0,0.0,-2.8504,-3.1069,-3.2616,-3.2836,-3.2539,0.0,0.0,0.0,0.0,0.0,0.0,0.0,0.0,0.0,-4.1812,-4.2551,-4.3613,-4.5096,-4.6579,-4.7389,-4.751,-4.8941,-4.9465,-4.9223,-4.9585,-4.9327,-4.8568,-4.8155,-4.7165,-4.5579,-4.2482,-4.0668,-3.9697,0.0,0.0,0.0,0.0,0.0,-3.6721,-3.8028,0.0,0.0,0.0,0.0,0.0,0.0,0.0,0.0,0.0,0.0,0.0,0.0,0.0,0.0,-3.7984,-3.8292,-3.8354,-3.7754,-3.5999,-3.3767,0.0,-3.072,-2.9858,-2.698,0.0,0.0,0.0,0.0,-3.1741,-3.2967,-3.482,-3.5973,-3.5831,-3.5686,-3.5604,-3.5604,-3.5522,-3.5055,-3.3993,-3.311,-3.2003,-3.0567,-2.8517,-2.6617,0.0,0.0,0.0,0.0,0.0,0.0,0.0,0.0,0.0,0.0,0.0,0.0,0.0,0.0,0.0,0.0,0.0,0.0,0.0,0.0,0.0,0.0,0.0,0.0,0.0,0.0,0.0,0.0,-3.0903,-3.288,-3.4232,-3.5461,-3.5706,0.0,0.0,0.0,0.0,0.0,0.0,-4.1007,-4.1804,-4.3202,-4.5424,-4.6182,-4.7034,-4.8027,-4.9103,-4.9964,-5.058,-5.1132,-5.1653,-5.2188,-5.2188,-5.1895,-5.1343,-5.0804,-5.0206,-4.9361,-4.5613,-4.3691,-4.2961,-4.157,-4.059,-4.0036,-4.1112,-4.1061,-4.0722,-4.2339,-4.2533,-4.1743,-3.9815,0.0,-3.6837,-3.393,0.0,0.0,0.0,0.0,-3.4891,-3.6784,0.0,-3.8185,-3.8862,-3.9031,-3.897,-3.88,-3.8769,-3.7707,0.0,-3.3844,-3.3075,-2.9535,0.0,0.0,0.0,0.0,-3.3081,-3.4121,-3.5214,-3.5831,-3.5671,-3.5554,-3.5504,-3.5504,-3.5504,-3.4996,-3.3829,-3.3589,-3.2751,-3.1091,-3.0238,-2.8876,-2.6871,0.0,0.0,0.0,0.0,0.0,0.0,0.0,0.0,0.0,0.0,0.0,0.0,0.0,0.0,0.0,0.0,0.0,0.0,0.0,0.0,0.0,0.0,0.0,0.0,0.0,0.0,0.0,0.0,0.0,-3.6726,-3.8834,0.0,0.0,0.0,0.0,-3.9931,-4.1272,-4.2769,-4.4285,-4.4872,-4.6287,-4.8678,-4.9412,-5.0476,-5.1895,-5.1981,-5.2033,-5.2084,-5.2119,-5.2153,-5.2188,-5.2188,-5.217,-5.2136,-5.2101,-5.205,-5.1722,-4.7993,-4.6406,-4.6276,-4.5308,-4.4885,-4.4824,-4.4776,-4.4657,-4.4521,-4.455,-4.4512,-4.4429,-4.4282,-4.2454,-4.001,-3.8515,-3.7175,0.0,0.0,-3.68,-3.7615,-3.9,-3.9351,-3.9585,-4.0228,-4.0397,-4.0213,-3.9582,-3.9428,-3.8831,0.0,-3.6307,-3.5645,-3.3475,0.0,-3.3027,-3.3124,-3.3568,-3.4167,-3.4866,-3.5392,-3.5671,-3.5522,-3.5504,-3.5504,-3.5504,-3.5504,-3.519,-3.4503,-3.3844,-3.317,-3.2437,-3.115,-2.9535,-2.7585,-2.5242,0.0,0.0,0.0,0.0,0.0,0.0,0.0,0.0,0.0,0.0,0.0,0.0,0.0,0.0,0.0,0.0,0.0,0.0,0.0,0.0,0.0,0.0,0.0,0.0,0.0,0.0,0.0,0.0,-3.9743,-4.1569,0.0,-4.1516,-4.2658,-4.3635,-4.4038,-4.5386,-4.6838,-4.8265,-4.8889,-4.9752,-5.1018,-5.1287,-5.1653,-5.2188,-5.2718,-5.2977,-5.2994,-5.346,-5.3684,-5.3684,-5.3684,-5.3425,-5.2977,-5.2977,-5.2684,-5.2084,-5.074,-4.962,-4.8665,-4.7334,-4.6753,-4.6642,-4.6486,-4.6345,-4.6204,-4.6089,-4.6048,-4.5952,-4.5449,-4.4333,-4.287,-4.1394,-4.0391,-3.9624,-3.9157,-3.8896,-3.9016,-3.9905,-4.0136,-4.0197,-4.0428,-4.0489,-4.0428,-4.0197,-4.0136,-3.9782,-3.8662,-3.8092,-3.7138,-3.5091,-3.5446,-3.5538,-3.4291,-3.4955,-3.5707,-3.5937,-3.5995,-3.5958,-3.5829,-3.5701,-3.5589,-3.5504,-3.51,-3.4382,-3.3275,-3.2572,-3.1749,-3.0672,-3.0163,-2.9385,-2.8263,-2.6579,-2.4181,0.0,0.0,0.0,0.0,0.0,0.0,0.0,0.0,0.0,0.0,0.0,0.0,0.0,0.0,0.0,0.0,0.0,0.0,0.0,0.0,0.0,0.0,0.0,0.0,0.0,0.0,-4.027,-4.1832,-4.4044,-4.5256,-4.4729,-4.587,-4.6933,-4.7637,-4.874,-4.9896,-5.1043,-5.1407,-5.1911,-5.2597,-5.2615,-5.2705,-5.2977,-5.3511,-5.377,-5.3787,-5.427,-5.4512,-5.4512,-5.4512,-5.4236,-5.377,-5.377,-5.3477,-5.2977,-5.2718,-5.2046,-5.1028,-4.9735,-4.8994,-4.8684,-4.8523,-4.8177,-4.7809,-4.7619,-4.7378,-4.709,-4.6616,-4.5778,-4.4746,-4.3545,-4.2709,-4.2045,-4.1325,-4.0867,-4.0616,-4.0832,-4.0858,-4.0832,-4.0551,-4.0489,-4.0489,-4.0489,-4.0489,-4.0366,-3.9905,-3.929,-3.8354,-3.6769,-3.7061,-3.7046,-3.5691,-3.6061,-3.6492,-3.6414,-3.6274,-3.6148,-3.6005,-3.5831,-3.5671,-3.5572,-3.4925,-3.4008,-3.2916,-3.2198,-3.1241,-2.9953,-2.9726,-2.9265,-2.8607,-2.7275,-2.5316,-2.2709,0.0,0.0,0.0,0.0,0.0,0.0,0.0,0.0,0.0,0.0,0.0,0.0,0.0,0.0,0.0,0.0,0.0,0.0,0.0,0.0,0.0,0.0,0.0,-3.7042,-4.0446,-4.2903,-4.2973,-4.6267,-4.7969,-4.6512,-4.8433,-5.0012,-5.063,-5.1248,-5.1842,-5.2505,-5.2378,-5.2649,-5.3408,-5.3442,-5.3787,-5.4494,-5.4512,-5.4512,-5.4512,-5.4512,-5.4512,-5.4512,-5.4512,-5.4512,-5.4512,-5.4512,-5.4512,-5.4443,-5.3736,-5.3442,-5.3356,-5.2528,-5.174,-5.1119,-5.097,-5.0339,-4.9462,-4.9124,-4.8545,-4.7922,-4.7922,-4.6988,-4.5687,-4.4952,-4.4239,-4.3516,-4.2803,-4.2602,-4.2463,-4.1801,-4.1617,-4.1432,-4.0689,-4.0505,-4.0489,-4.0489,-4.0489,-4.0489,-4.0489,-3.9967,-3.9339,-3.8662,-3.8,-3.7554,-3.7507,-3.6953,0.0,-3.6242,-3.6211,-3.6148,-3.6005,-3.5831,-3.572,-3.5688,-3.4943,-3.4158,-3.3499,-3.2811,-3.1854,-3.0552,-2.9909,-2.928,-2.8667,-2.732,-2.6119,-2.5154,0.0,0.0,0.0,0.0,0.0,0.0,0.0,0.0,0.0,0.0,0.0,0.0,0.0,0.0,0.0,0.0,0.0,0.0,0.0,0.0,0.0,-3.7599,-4.0077,-4.0305,-4.2728,-4.508,-4.6723,-4.838,-4.9644,-5.032,-5.0996,-5.1625,-5.221,-5.2823,-5.3214,-5.3273,-5.3673,-5.3977,-5.4201,-5.4201,-5.4305,-5.4512,-5.4512,-5.4512,-5.4512,-5.4512,-5.4512,-5.4512,-5.4512,-5.4512,-5.4512,-5.4512,-5.4512,-5.4494,-5.4287,-5.4201,-5.4063,-5.2705,-5.2067,-5.1847,-5.1573,-5.0816,-4.9837,-4.9218,-4.8883,-4.8714,-4.8714,-4.8422,-4.7778,-4.6028,-4.5367,-4.4829,-4.3071,-4.2602,-4.2571,-4.2371,-4.1971,-4.1555,-4.1355,-4.0909,-4.0489,-4.0489,-4.0489,-4.0489,-4.0489,-4.0336,-3.9997,-3.9354,-3.9059,-3.8631,-3.7646,0.0,0.0,-3.6491,-3.6414,-3.632,-3.6037,-3.5941,-3.5814,-3.5587,-3.4459,-3.3484,-3.2826,-3.127,-3.0417,-3.0507,-2.9909,-2.9726,-2.9983,-2.7943,-2.6747,0.0,0.0,0.0,0.0,0.0,0.0,0.0,0.0,0.0,0.0,0.0,0.0,0.0,0.0,0.0,0.0,0.0,0.0,0.0,0.0,0.0,0.0,-4.0744,-4.3412,-4.4395,-4.5677,-4.7151,-4.8819,-4.9995,-5.1013,-5.1926,-5.2312,-5.2793,-5.3433,-5.376,-5.3982,-5.4192,-5.4458,-5.4575,-5.4512,-5.4512,-5.4512,-5.4512,-5.4512,-5.4512,-5.4512,-5.4512,-5.4512,-5.4512,-5.4512,-5.4512,0.0,-5.4512,-5.4512,-5.4512,-5.4512,-5.4512,0.0,0.0,0.0,0.0,0.0,-5.131,-5.0629,-4.9774,-4.9458,-4.9407,-4.9103,-4.8798,-4.8303,-4.7062,-4.6264,-4.5496,-4.4261,-4.3675,-4.3371,-4.3079,-4.2725,-4.2279,-4.1724,-4.1278,-4.0893,-4.0566,-4.0489,-4.0489,-4.0489,0.0,0.0,-3.9982,-3.9674,-3.9262,-3.8462,-3.7861,-3.7353,0.0,-3.6661,-3.6429,-3.6226,-3.6068,-3.591,-3.5748,-3.4611,0.0,0.0,0.0,-3.1001,-3.0522,-3.0163,0.0,0.0,0.0,0.0,0.0,0.0,0.0,0.0,-2.5646,-2.5329,0.0,0.0,0.0,0.0,0.0,0.0,0.0,0.0,0.0,0.0,0.0,0.0,0.0,0.0,0.0,0.0,-4.3535,-4.6256,-4.8415,-4.8766,-4.9047,-4.9758,-5.1119,-5.2049,-5.2137,-5.2857,-5.3612,-5.4355,-5.4279,-5.4446,-5.4957,0.0,0.0,0.0,0.0,-5.4512,-5.4512,-5.4512,-5.4512,-5.4512,-5.4512,-5.4512,-5.4512,-5.4512,-5.4512,-5.4512,-5.4512,-5.4512,-5.4512,-5.4512,-5.4512,-5.4512,-5.4512,-5.4083,-5.3363,-5.223,-5.1814,0.0,0.0,0.0,0.0,-4.934,-4.8612,-4.7982,-4.7819,-4.6864,-4.5805,-4.5624,-4.5104,-4.4471,-4.387,-4.367,-4.3316,-4.2094,-4.1709,-4.1432,-4.0751,-4.0551,-4.0489,-4.0489,-4.0489,-4.0489,-4.0489,-3.9997,-3.9582,-3.949,-3.8431,0.0,-3.7507,-3.6907,-3.6492,-3.646,0.0,0.0,-3.5973,-3.5083,-3.4503,-3.4503,-3.3918,-3.2781,-3.0926,-3.0911,-3.0956,-3.0956,-3.1451,-3.2303,-3.3499,-3.2987,-3.2302,-3.1429,-2.8115,-2.7023,0.0,0.0,0.0,0.0,0.0,0.0,0.0,0.0,0.0,0.0,0.0,0.0,0.0,0.0,0.0,-4.3799,-4.6291,-4.8293,-4.9354,-5.0013,-5.0487,-5.0645,-5.147,-5.226,-5.2892,-5.3647,-5.4343,-5.4979,-5.4917,-5.4822,-5.4842,-5.4637,0.0,-5.4512,-5.4512,-5.4512,-5.4512,-5.4512,-5.4512,-5.4512,0.0,0.0,-5.4512,-5.4512,-5.4512,-5.4512,-5.4512,-5.4512,-5.4512,-5.4512,-5.4512,-5.4512,-5.4512,-5.4313,-5.393,-5.3002,-5.2569,-5.2289,-5.1332,-5.0608,-5.0067,-4.9915,-4.9381,-4.8562,-4.7355,-4.6811,0.0,-4.5142,-4.4723,-4.4594,-4.4456,-4.4009,-4.3531,-4.3285,-4.2371,-4.1555,-4.1432,-4.0905,-4.0489,-4.0489,-4.0489,-4.0489,-4.0489,-4.0382,-4.0105,-3.9567,-3.8831,-3.8123,-3.7569,-3.6907,-3.6445,-3.6274,-3.61,-3.5941,-3.5752,-3.4973,-3.4503,-3.4503,-3.4384,-3.3873,-3.2961,-3.3425,-3.374,-3.374,-3.332,-3.3245,-3.3499,-3.3915,-3.3404,-3.2002,-3.0347,-2.9577,0.0,0.0,0.0,0.0,0.0,0.0,0.0,0.0,0.0,0.0,0.0,-3.783,-4.0516,0.0,-4.4115,-4.6467,-4.8135,-4.9416,-5.0171,-5.0645,-5.1031,-5.1417,-5.2137,-5.2892,-5.3664,-5.4454,-5.5039,-5.5319,-5.5187,-5.5035,-5.4917,-5.4731,-5.4606,-5.4512,-5.4512,-5.4512,-5.4512,-5.4512,-5.4512,-5.4512,-5.4512,-5.4512,-5.4512,-5.4512,-5.4512,-5.4512,-5.4512,-5.4512,-5.4512,-5.4512,-5.4512,-5.4512,-5.4512,-5.4367,-5.4156,-5.3635,-5.3336,-5.3021,-5.2094,-5.1522,-5.1082,-5.0338,-4.9847,-4.927,-4.7803,-4.7085,-4.6569,-4.5458,-4.4896,-4.461,-4.461,-4.4363,-4.4024,-4.3685,-4.31,-4.2494,-4.2171,-4.1555,-4.1063,-4.1063,-4.0735,-4.0489,-4.0489,-4.0489,-4.0382,-4.0043,-3.9447,-3.8769,-3.8092,-3.7415,-3.6783,-3.6273,-3.6085,-3.5926,-3.572,-3.5257,-3.4996,-3.4996,-3.4996,-3.4681,-3.4039,-3.4339,-3.4503,-3.4503,-3.4189,-3.4158,-3.4502,-3.4831,-3.4386,-3.3229,-3.2631,-3.1707,0.0,0.0,0.0,0.0,0.0,0.0,0.0,-3.453,-3.5495,-3.8585,-3.9743,-4.1042,-4.3834,-4.4992,-4.6256,-4.8451,-4.9434,-5.018,-5.0803,-5.0891,-5.1171,-5.1926,-5.2699,-5.3418,-5.4033,-5.4946,-5.5507,-5.5507,-5.5294,-5.5109,-5.5022,-5.4842,-5.4686,-5.4512,-5.4512,-5.4512,-5.4512,-5.4512,-5.4512,-5.4512,-5.4512,-5.4512,-5.4512,-5.4512,-5.4512,-5.4512,-5.4512,-5.4512,-5.4512,-5.4512,-5.4512,-5.4512,-5.4512,-5.4367,-5.4207,-5.4078,-5.3948,-5.3681,-5.2872,-5.2468,-5.2146,-5.0945,-5.0321,-4.9839,-4.8528,-4.7504,-4.6638,-4.5913,-4.5179,-4.461,-4.461,-4.461,-4.4471,-4.3932,-4.3701,-4.347,-4.291,-4.2171,-4.1601,-4.1601,-4.0981,-4.0489,-4.0489,-4.0489,-4.0489,-4.0489,-3.992,-3.929,-3.8769,-3.8,-3.7228,-3.6534,-3.6176,-3.591,-3.5671,-3.5554,-3.5504,-3.5504,-3.5504,-3.525,-3.4728,-3.4698,-3.4698,-3.4698,-3.4698,-3.4951,-3.5504,-3.5504,-3.51,-3.4312,-3.4143,-3.3059,-2.8333,-3.0159,-3.2248,-3.3792,-3.4267,-3.5601,0.0,-4.0095,-3.9533,-4.2622,-4.3325,-4.3904,-4.5617,-4.6607,-4.7678,-4.9293,-5.0241,-5.0785,-5.0873,-5.0891,-5.1171,-5.1926,-5.2699,-5.3236,-5.3324,-5.4647,-5.5507,-5.5507,-5.5204,-5.5022,-5.4992,-5.4683,-5.4512,-5.4512,-5.4512,-5.4512,-5.4512,-5.4512,-5.4512,-5.4512,-5.4512,-5.4512,-5.4512,-5.4512,-5.4512,-5.4512,-5.4512,-5.4512,-5.4512,-5.4512,-5.4512,-5.4512,-5.4512,-5.4367,-5.419,-5.419,-5.4158,-5.4093,-5.3681,-5.3123,-5.2513,-5.2163,-5.1166,-4.994,-4.9127,-4.7897,-4.6638,-4.5913,-4.5179,-4.461,-4.461,-4.461,-4.4594,-4.4517,-4.404,-4.3593,-4.3516,-4.2479,-4.1601,-4.1601,-4.0981,-4.0489,-4.0489,-4.0489,-4.0489,-4.0489,-3.992,-3.9459,-3.9382,-3.8292,-3.7477,-3.7352,-3.6561,-3.5861,-3.5554,-3.5504,-3.5504,-3.5504,-3.5504,-3.5474,-3.5385,-3.5385,-3.5385,-3.5385,-3.5385,-3.5429,-3.5504,-3.5504,-3.51,-3.4279,-3.363,-3.2826,-3.2897,-3.3986,-3.4969,-3.7464,-3.8392,-3.9427,-4.2184,-4.2043,-4.1973,-4.415,-4.4606,-4.5203,-4.7179,-4.7819,-4.8556,-5.0136,-5.1031,-5.14,-5.0943,-5.1259,-5.1505,-5.1365,-5.2032,-5.2857,-5.3752,-5.4419,-5.5016,-5.5472,-5.5264,-5.5096,-5.4992,-5.4793,-5.4606,-5.4512,-5.4512,-5.4512,-5.4512,-5.4512,-5.4512,-5.4512,-5.4512,-5.4512,-5.4512,-5.4512,-5.4512,-5.4512,-5.4512,-5.4512,-5.4512,-5.4512,-5.4512,-5.4512,-5.4512,-5.4448,-5.4367,-5.4239,-5.4143,-5.4078,-5.3915,-5.3612,-5.3157,-5.2633,-5.1688,-5.0531,-4.936,-4.8265,-4.7204,-4.604,-4.5494,-4.5142,-4.4723,-4.461,-4.461,-4.461,-4.4409,-4.4194,-4.4194,-4.3454,-4.2633,-4.2263,-4.1632,-4.0981,-4.0566,-4.0489,-4.0489,-4.0489,-4.0259,-3.992,-3.9536,-3.8677,-3.7752,-3.6842,-3.6189,-3.5767,-3.5621,-3.5554,-3.5504,-3.5504,-3.5504,-3.5504,-3.5504,-3.5504,-3.5504,-3.5504,-3.5504,-3.5504,-3.5504,-3.5504,-3.5326,-3.5001,-3.5087,-3.4721,-3.5725,-3.6724,-3.7637,-3.994,-4.1358,-4.2447,-4.3254,-4.343,-4.3816,-4.5133,-4.5414,-4.5993,-4.7871,-4.8355,-4.8934,-5.0329,-5.1382,-5.1751,-5.0996,-5.154,-5.1733,-5.0978,-5.1365,-5.2312,-5.384,-5.4173,-5.4647,-5.5455,-5.5306,-5.5169,-5.5066,-5.4886,-5.4717,-5.4575,-5.4543,-5.4512,-5.4512,-5.4512,-5.4512,-5.4512,-5.4512,-5.4512,-5.4512,-5.4512,-5.4512,-5.4512,-5.4512,-5.4512,-5.4512,-5.4512,-5.4512,-5.4512,-5.4512,-5.4512,-5.448,-5.4335,-5.4207,-5.411,-5.4078,-5.3948,-5.3698,-5.3088,-5.2126,-5.1002,-4.9941,-4.8812,-4.7638,-4.6359,-4.5877,-4.5531,-4.4783,-4.461,-4.461,-4.461,-4.461,-4.461,-4.461,-4.4086,-4.347,-4.2971,-4.2186,-4.1432,-4.0924,-4.0628,-4.0489,-4.0489,-4.0489,-4.032,-3.9828,-3.9046,-3.7981,-3.6608,-3.6081,-3.5816,-3.5799,-3.5621,-3.5554,-3.5554,-3.5537,-3.5504,-3.5504,-3.5504,-3.5504,-3.5504,-3.5504,-3.5504,-3.5504,-3.5504,-3.5609,-3.5789,-3.6038,-3.607,-3.5145,-3.7499,-4.0379,-4.0485,-4.2188,-4.4044,-4.4852,-4.5027,-4.5256,-4.6003,-4.6161,-4.6425,-4.7274,-4.8029,-4.8784,-4.9592,-5.1013,-5.1751,-5.0996,-5.154,-5.1733,-5.0978,-5.0908,-5.1523,-5.3096,-5.3875,-5.4647,-5.5455,-5.5306,-5.5199,-5.5182,-5.493,-5.4797,-5.478,-5.4606,-5.4512,-5.4512,-5.4512,-5.4512,-5.4512,-5.4512,-5.4512,-5.4512,-5.4512,-5.4512,-5.4512,-5.4512,-5.4512,-5.4512,-5.4512,-5.4512,-5.4512,-5.4512,-5.4512,-5.4512,-5.4512,-5.448,-5.448,-5.4271,-5.411,-5.3948,-5.3749,-5.255,-5.1185,-5.1151,-4.9621,-4.7754,-4.6983,-4.6253,-4.5531,-4.4783,-4.461,-4.461,-4.461,-4.461,-4.461,-4.461,-4.4086,-4.3593,-4.3578,-4.2494,-4.1586,-4.1571,-4.0986,-4.0489,-4.0489,-4.0489,-4.0489,-4.0459,-3.9339,-3.8165,-3.725,-3.6593,-3.6148,-3.6005,-3.5799,-3.5688,-3.5688,-3.5572,-3.5504,-3.5504,-3.5504,-3.5504,-3.5504,-3.5504,-3.5504,-3.5504,-3.5504,-3.5833,-3.6447,-3.5712,-3.5973,-3.8444,-3.9888,-4.0994,-4.3026,-4.4132,-4.4904,-4.5653,-4.5828,-4.5758,-4.5536,-4.5484,-4.5554,-4.5817,-4.6484,-4.739,-4.8696,-5.0662,-5.1926,-5.1663,-5.2734,-5.3067,-5.1786,-5.2084,-5.2639,-5.3166,-5.3401,0.0,-5.542,-5.5431,-5.5354,-5.5199,-5.5035,-5.4886,-5.478,-5.4606,-5.4512,-5.4512,-5.4512,-5.4512,-5.4512,-5.4512,-5.4512,-5.4512,-5.4512,-5.4512,-5.4512,-5.4512,-5.4512,-5.4512,-5.4512,-5.4512,-5.4512,-5.4512,-5.4512,-5.4512,-5.4512,-5.4512,-5.448,-5.4399,-5.4271,-5.411,-5.3948,-5.312,-5.2007,-5.1402,-5.0347,-4.9085,-4.7886,-4.7017,-4.6253,-4.5531,-4.4971,-4.461,-4.461,-4.461,-4.461,-4.461,-4.444,-4.4148,-4.3701,-4.2863,-4.2125,-4.1678,-4.1001,-4.0489,-4.0489,-4.0489,-4.0336,-3.9874,-3.9428,-3.8706,-3.7519,-3.7085,-3.6653,-3.6178,-3.599,-3.5831,-3.572,-3.5671,-3.5589,-3.5504,-3.5504,-3.5504,-3.5504,-3.5504,-3.5729,-3.6148,-3.6148,-3.6492,-3.7105,-3.7268,-3.7594,-4.0586,-4.1657,-4.2276,-4.4536,-4.5308,-4.5624,-4.6091,-4.6003,-4.5653,-4.5203,-4.4659,-4.436,-4.4624,-4.5062,-4.5968,-4.7819,-5.0083,-5.1716,-5.1951,-5.3331,-5.384,-5.2576,-5.2874,-5.3306,-5.3559,-5.3576,0.0,-5.542,-5.5507,-5.5431,-5.5306,-5.5113,-5.4961,-5.4855,-5.4637,-5.4512,-5.4512,-5.4512,-5.4512,-5.4512,-5.4512,-5.4512,-5.4512,-5.4512,-5.4512,-5.4512,-5.4512,-5.4512,-5.4512,-5.4512,-5.4512,-5.4512,-5.4512,-5.4512,-5.4512,-5.4512,-5.4512,-5.4512,-5.4512,-5.4367,-5.4175,-5.4045,-5.3338,-5.2462,-5.1791,-5.0896,-4.9856,-4.8644,-4.7753,-4.6967,-4.5985,-4.5348,-4.4933,-4.4648,-4.461,-4.461,-4.461,-4.461,-4.4486,-4.4055,-4.3402,-4.274,-4.2063,-4.117,-4.0489,-4.0489,-4.0489,-4.0336,-3.9905,-3.9644,-3.9152,-3.8323,-3.7887,-3.75,-3.7071,-3.6651,-3.6371,-3.6228,-3.5952,-3.5782,-3.5683,-3.5683,-3.5636,-3.5572,-3.5827,-3.6124,-3.6492,-3.6716,-3.7135,-3.7764,-3.8197,-3.8527,-4.1499,-4.2851,-4.4202,-4.4975,-4.5705,-4.6249,-4.6161,-4.5565,-4.5027,-4.494,-4.3728,-4.2886,-4.3535,-4.3763,-4.4589,-4.6906,-4.9311,-5.1171,-5.1961,-5.3401,-5.4086,-5.3331,-5.3306,-5.3559,-5.4244,-5.4349,0.0,-5.5455,0.0,-5.5507,-5.5507,-5.5191,-5.5022,-5.4992,-5.4683,-5.4512,-5.4512,-5.4512,-5.4512,-5.4512,-5.4512,-5.4512,-5.4512,-5.4512,-5.4512,-5.4512,-5.4512,-5.4512,-5.4512,-5.4512,-5.4512,-5.4512,-5.4512,-5.4512,-5.4512,-5.4512,-5.4512,-5.4512,-5.4512,-5.4367,-5.419,-5.4045,-5.3405,-5.2631,-5.2399,-5.1285,-5.0008,-4.9276,-4.8498,-4.7572,-4.6182,-4.5769,-4.5531,-4.4821,-4.461,-4.461,-4.461,-4.461,-4.461,-4.461,-4.4071,-4.3393,-4.2679,-4.1463,-4.0536,-4.0505,-4.0489,-4.0489,-4.0489,-3.9936,-3.9521,-3.949,-3.8939,-3.8554,-3.8508,-3.773,-3.725,-3.7266,-3.6542,-3.6111,-3.6111,-3.6111,-3.6001,-3.5825,-3.6441,-3.6737,-3.6615,-3.718,-3.7808,-3.8437,-3.8437,-3.8796,-4.2798,-4.4448,-4.5653,-4.5863,-4.652,-4.68,-4.5642,-4.4764,-4.3886,-4.2728,-4.1745,-4.0955,-4.0551,-4.1903,-4.3658,-4.5396,-4.8608,-5.1365,-5.2699,-5.4226,-5.4911,-5.4103,-5.4559,-5.4753,-5.4349,-5.484,0.0,0.0,-5.5507,-5.5507,-5.5507,-5.5294,-5.5079,-5.4992,-5.4824,-5.4655,-5.4512,-5.4512,-5.4512,-5.4512,-5.4512,-5.4512,-5.4512,-5.4512,-5.4512,-5.4512,-5.4512,-5.4512,-5.4512,-5.4512,-5.4512,-5.4512,-5.4512,-5.4512,-5.4512,-5.4512,-5.4512,-5.4512,-5.4512,-5.448,-5.4399,-5.4207,-5.3926,-5.349,-5.2733,-5.1771,-5.0779,-5.0045,-4.8889,-4.7819,-4.7439,-4.6518,-4.566,-4.5442,-4.5008,-4.461,-4.461,-4.461,-4.461,-4.461,-4.4071,-4.3239,-4.2048,-4.1571,-4.114,-4.0566,-4.0489,-4.0489,-4.0489,-4.0336,-4.0043,-3.9536,-3.9336,-3.9046,-3.8554,-3.8321,-3.8115,-3.8032,-3.7846,-3.7641,-3.7494,-3.7494,-3.7461,-3.7412,-3.7594,-3.7827,-3.8136,-3.8286,-3.8652,-3.9155,-3.9155,-3.9245,-4.4466,-4.6063,-4.7161,-4.6818,-4.6818,-4.6484,-4.4922,-4.3693,-4.2447,-4.092,-3.9972,-3.9199,-3.8427,-3.9919,-4.1885,-4.3781,-4.7046,-5.0136,-5.2365,-5.3998,-5.4946,-5.484,-5.5244,-5.5332,-5.4875,-5.5244,-5.5507,0.0,-5.5507,-5.5507,-5.5507,-5.5306,-5.5139,-5.4992,-5.4873,-5.4717,-5.4512,-5.4512,-5.4512,-5.4512,-5.4512,-5.4512,-5.4512,-5.4512,-5.4512,-5.4512,0.0,-5.4512,-5.4512,-5.4512,-5.4512,-5.4512,-5.4512,-5.4512,-5.4512,-5.4512,-5.4512,-5.4512,-5.4512,-5.4512,-5.448,-5.4271,-5.411,-5.3879,-5.3257,-5.2431,-5.1539,-5.0794,-4.9762,-4.8706,-4.8065,-4.7305,-4.6483,-4.5825,-4.5384,-4.4993,-4.4685,-4.461,-4.461,-4.461,-4.4071,-4.3285,-4.2217,-4.1801,-4.1355,-4.0597,-4.0489,-4.0489,-4.0489,-4.0489,-4.0351,-3.9967,-3.992,-3.9782,-3.9398,-3.9123,-3.8921,-3.8836,-3.856,-3.8358,-3.8228,-3.8211,-3.8177,-3.8111,-3.8385,-3.8618,-3.8825,-3.9023,-3.9249,-3.9517,-3.946,-3.9388,-4.6161,-4.7538,-4.8521,-4.7625,-4.6888,-4.5898,-4.415,-4.2482,-4.0867,-3.9322,-3.8286,-3.7479,-3.6954,-3.8093,-3.9968,-4.2535,-4.5449,-4.8503,-5.1716,-5.3401,-5.4612,-5.542,-5.5507,-5.5507,-5.5507,-5.5507,-5.5507,-5.5507,-5.5507,-5.5507,-5.5507,-5.5336,-5.5156,-5.5022,-5.4873,-5.4717,-5.4512,-5.4512,-5.4512,-5.4512,-5.4512,-5.4512,-5.4512,-5.4512,-5.4512,-5.4512,0.0,0.0,-5.4512,-5.4512,-5.4512,-5.4512,-5.4512,-5.4512,-5.4512,-5.4512,-5.4512,-5.4512,-5.4512,-5.4512,-5.448,-5.4303,-5.4143,-5.398,-5.3816,-5.3074,-5.218,-5.142,-5.0676,-4.9772,-4.8408,-4.7885,-4.7439,-4.6147,-4.5697,-4.5384,-4.4761,-4.461,-4.461,-4.461,-4.4132,-4.3531,-4.2848,-4.2186,-4.1494,-4.0751,-4.0551,-4.0489,-4.0489,-4.0489,-4.0489,-4.0489,-4.0489,-4.0489,-4.0489,-3.9951,-3.9613,-3.9613,-3.9108,-3.8785,-3.8785,-3.8785,-3.8719,-3.8601,-3.9103,-3.9325,-3.9169,-3.9536,-3.9732,-3.9696,-3.9481,-3.9388,-4.6976,-4.8328,-4.9153,-4.7748,-4.7292,-4.6449,-4.3641,-4.1288,-3.9269,-3.7727,-3.6268,-3.5443,-3.5934,-3.7286,-3.9498,-4.3114,-4.5782,-4.8696,-5.2453,-5.3752,-5.4612,-5.542,-5.5507,-5.5507,-5.5507,-5.5507,0.0,0.0,0.0,-5.5507,-5.5507,-5.5478,-5.5312,-5.5022,-5.4873,-5.4717,-5.4512,-5.4512,-5.4512,-5.4512,-5.4512,-5.4512,-5.4512,-5.4512,-5.4512,-5.4512,0.0,0.0,-5.4512,-5.4512,-5.4512,-5.4512,-5.4512,-5.4512,-5.4512,-5.4512,-5.4512,-5.4512,-5.4512,-5.4512,-5.4512,-5.448,-5.4303,-5.4143,-5.398,-5.3288,-5.2345,-5.1452,-5.0676,-4.9883,-4.9015,-4.7901,-4.6914,-4.6673,-4.566,-4.4761,-4.461,-4.461,-4.461,-4.461,-4.4517,-4.4225,-4.3547,-4.2863,-4.2202,-4.1509,-4.0909,-4.0489,-4.0489,-4.0489,-4.0489,-4.0489,-4.0489,-4.0489,-4.0489,-4.0382,-4.032,-4.032,-4.0213,-4.0136,-4.0136,-4.0136,-4.0151,-4.0117,-4.0224,-4.0217,-4.0058,-3.997,-3.9854,-3.9696,-3.9481,-3.9388,-4.7661,-4.8819,-4.9425,-4.8257,-4.738,-4.587,-4.2394,-4.0077,-3.8023,-3.5671,-3.4916,-3.4547,-3.4108,-3.5952,-3.8128,-4.001,-4.2587,-4.587,-5.0153,-5.1417,-5.2804,-5.5227,-5.5507,-5.5507,-5.5507,-5.5507,-5.5507,0.0,0.0,-5.5507,-5.5507,-5.5401,-5.5234,-5.5022,-5.4873,-5.4717,-5.4512,-5.4512,-5.4512,-5.4512,-5.4512,-5.4512,-5.4512,-5.4512,-5.4512,-5.4512,-5.4512,0.0,-5.4512,-5.4512,-5.4512,-5.4512,-5.4512,-5.4512,-5.4512,-5.4512,-5.4512,-5.4512,-5.4512,-5.4512,-5.4512,-5.4512,-5.4367,-5.419,-5.4143,-5.3659,-5.2919,-5.17,-5.1028,-5.0422,-4.9289,-4.8177,-4.7288,-4.688,-4.566,-4.461,-4.461,-4.461,-4.461,-4.461,-4.461,-4.4409,-4.3732,-4.3033,-4.2371,-4.1694,-4.0986,-4.0489,-4.0489,-4.0489,-4.0489,-4.0489,-4.0489,-4.0489,-4.0489,-4.0489,-4.0489,-4.0489,-4.0489,-4.0489,-4.0489,-4.0489,-4.0489,-4.0489,-4.0489,-4.047,-4.0401,-4.0137,-3.996,-3.9839,-3.9532,-3.9388,-4.7881,-4.896,-4.9451,-4.8503,-4.7091,-4.4951,-4.1113,-3.8883,-3.6827,-3.4073,-3.388,-3.388,-3.2827,-3.4618,-3.6513,-3.7376,-3.9656,-4.3044,-4.7828,-4.9346,-5.1259,-5.4823,-5.542,-5.5507,-5.5507,-5.5507,0.0,0.0,0.0,0.0,-5.5507,-5.5354,-5.5187,-5.5035,-5.4917,-5.4731,-5.4575,-5.4512,-5.4512,-5.4512,-5.4512,-5.4512,-5.4512,-5.4512,-5.4512,-5.4512,-5.4512,0.0,0.0,-5.4512,-5.4512,-5.4512,-5.4512,-5.4512,-5.4512,-5.4512,-5.4512,-5.4512,-5.4512,-5.4512,-5.4512,-5.4512,-5.4399,-5.4271,-5.419,-5.3996,-5.3493,-5.1947,-5.1395,-5.0911,-4.939,-4.845,-4.7688,-4.6777,-4.566,-4.4783,-4.4648,-4.461,-4.461,-4.461,-4.461,-4.444,-4.3917,-4.314,-4.2432,-4.1894,-4.1043,-4.0489,-4.0489,-4.0489,-4.0489,-4.0489,-4.0489,-4.0489,-4.0489,-4.0489,-4.0489,-4.0489,-4.0489,-4.0489,-4.0489,-4.0489,-4.0489,-4.0489,-4.0489,-4.0489,-4.0489,-4.0207,-4.0031,-3.9996,-3.964,-3.946,-4.7257,-4.8573,-4.9354,-4.7871,-4.6344,-4.4185,-4.0305,-3.7634,-3.5529,-3.3862,-3.3038,-3.2757,-3.3301,-3.3634,-3.4985,-3.8494,-3.9937,-4.2447,-4.774,-4.982,-5.1681,-5.4121,-5.5069,-5.5507,-5.5507,-5.5507,0.0,0.0,0.0,0.0,0.0,-5.5478,-5.5383,-5.5199,-5.5035,-5.4917,-5.478,-5.4575,-5.4512,-5.4512,-5.4512,-5.4512,-5.4512,-5.4512,-5.4512,-5.4512,0.0,0.0,0.0,-5.4512,-5.4512,-5.4512,-5.4512,-5.4512,-5.4512,-5.4512,-5.4512,-5.4512,-5.4512,-5.4512,-5.4512,-5.4512,-5.448,-5.4448,-5.4271,-5.4175,-5.3785,-5.1994,-5.149,-5.107,-4.9421,-4.845,-4.7539,-4.6147,-4.5697,-4.5421,-4.4746,-4.461,-4.461,-4.461,-4.461,-4.4594,-4.4533,-4.3448,-4.2586,-4.2525,-4.1351,-4.0489,-4.0489,-4.0489,-4.0489,-4.0489,-4.0489,-4.0489,-4.0489,-4.0489,-4.0489,-4.0489,-4.0489,-4.0489,-4.0489,-4.0489,-4.0489,-4.0489,-4.0489,-4.0489,-4.0489,-4.0347,-4.0172,-3.9996,-3.9768,-3.9589,-4.6098,-4.7134,-4.7467,-4.6835,-4.5519,-4.336,-3.9463,-3.7126,-3.5231,-3.3248,-3.2599,-3.2493,-3.2774,-3.3195,-3.416,-3.6197,-3.7163,-3.9234,-4.3728,-4.5694,-4.8064,-5.1803,-5.3348,-5.4472,0.0,0.0,0.0,0.0,0.0,0.0,0.0,-5.5507,-5.5401,-5.5199,-5.5139,-5.5022,-5.478,-5.4717,-5.4606,-5.4512,-5.4512,-5.4512,-5.4512,-5.4512,-5.4512,-5.4512,0.0,0.0,0.0,-5.4512,-5.4512,-5.4512,-5.4512,-5.4512,-5.4512,-5.4512,-5.4512,-5.4512,-5.4512,-5.4512,-5.4512,-5.4512,-5.4512,-5.448,-5.4399,-5.3977,-5.3298,-5.2127,-5.137,-5.0666,-4.9457,-4.8497,-4.7655,-4.6604,-4.6005,-4.5624,-4.5311,-4.4933,-4.461,-4.461,-4.461,-4.461,-4.461,-4.3479,-4.2602,-4.2602,-4.1381,-4.0489,-4.0489,-4.0489,-4.0489,-4.0489,-4.0489,-4.0489,-4.0489,-4.0489,-4.0489,-4.0489,-4.0489,-4.0489,-4.0489,-4.0489,-4.0489,-4.0489,-4.0489,-4.0489,-4.0489,-4.0366,-4.0277,-4.0172,-3.996,-3.9854,-4.4477,-4.553,-4.581,-4.5565,-4.4378,-4.2254,-3.8602,-3.6584,-3.4898,-3.2827,-3.2406,-3.2406,-3.2406,-3.3002,-3.3757,-3.4565,-3.5513,-3.7514,-4.1411,-4.3272,-4.5817,-5.003,0.0,-5.312,0.0,-5.5244,0.0,0.0,0.0,0.0,0.0,-5.5507,-5.5448,-5.5277,-5.5229,-5.5126,-5.4917,-5.4886,-5.478,-5.4575,-5.4575,-5.4543,-5.4512,-5.4512,-5.4512,-5.4512,0.0,0.0,0.0,-5.4512,-5.4512,-5.4512,-5.4512,-5.4512,-5.4512,-5.4512,-5.4512,-5.4512,-5.4512,-5.4512,-5.4512,-5.4512,-5.4512,-5.4512,-5.4512,-5.3883,-5.3015,-5.2228,-5.1165,-5.0093,-4.9396,-4.8748,-4.8096,-4.7322,-4.6726,-4.6288,-4.6076,-4.5458,-4.4933,-4.4933,-4.4761,-4.461,-4.461,-4.3633,-4.2833,-4.2633,-4.1601,-4.0735,-4.052,-4.0489,-4.0489,-4.0489,-4.0489,-4.0489,-4.0489,-4.0489,-4.0489,-4.0489,-4.0489,-4.0489,-4.0489,-4.0489,-4.0489,-4.0489,-4.0489,-4.0489,-4.0489,-4.0401,-4.0331,-4.0312,-4.0137,-4.0066,-4.2412,-4.3957,-4.4922,-4.4115,-4.2763,-4.0814,-3.7727,-3.583,-3.4266,-3.2722,-3.2406,-3.2406,-3.2406,-3.3002,-3.3757,-3.4565,-3.5988,-3.8359,-4.2254,-4.4132,-4.6239,0.0,-5.0443,-5.1523,-5.3078,0.0,0.0,0.0,0.0,0.0,0.0,-5.5507,-5.5507,-5.5507,-5.5306,-5.5199,-5.5199,-5.5066,-5.4948,-5.4797,-5.4797,-5.4686,-5.4512,-5.4512,-5.4512,0.0,0.0,0.0,0.0,-5.4512,-5.4512,-5.4512,-5.4512,-5.4512,-5.4512,-5.4512,-5.4512,-5.4512,-5.4512,-5.4512,-5.4512,-5.4512,-5.4512,-5.4512,-5.4512,-5.3994,-5.3205,-5.2259,-5.0802,-4.9458,-4.926,-4.9199,-4.8968,-4.8096,-4.7885,-4.7688,-4.6949,-4.6218,-4.5697,-4.5697,-4.5104,-4.461,-4.461,-4.4055,-4.334,-4.2709,-4.2032,-4.1324,-4.0582,-4.0489,-4.0489,-4.0489,-4.0489,-4.0489,-4.0489,-4.0489,-4.0489,-4.0489,-4.0489,-4.0489,-4.0489,-4.0489,-4.0489,-4.0489,-4.0489,-4.0489,-4.0489,-4.0489,-4.0436,-4.0312,-4.0312,-4.0172,-3.9322,-4.0358,-4.0955,-4.0147,-3.9568,-3.855,-3.6004,-3.5057,-3.4249,-3.2722,-3.2406,-3.2406,-3.2406,-3.2599,-3.3529,-3.5901,-3.6691,-3.8184,-4.1516,-4.4196,-4.66,-4.8696,-5.1961,-5.4244,0.0,0.0,0.0,0.0,0.0,0.0,0.0,-5.5507,-5.5507,-5.5507,-5.5431,-5.5354,-5.5199,-5.5169,-5.5066,-5.4948,-5.4842,-5.4766,-5.4686,-5.4543,0.0,0.0,0.0,0.0,0.0,-5.4512,-5.4512,-5.4512,-5.4512,-5.4512,-5.4512,-5.4512,-5.4512,-5.4512,-5.4512,-5.4512,-5.4512,-5.4512,-5.4512,-5.4512,-5.4512,-5.3615,-5.2308,-5.1003,-5.0162,-4.959,-4.9458,-4.929,-4.9107,-4.875,-4.8274,-4.7852,-4.7622,-4.6967,-4.6288,-4.5805,-4.5515,-4.5179,-4.4685,-4.4055,-4.3393,-4.2709,-4.2032,-4.134,-4.0582,-4.0489,-4.0489,-4.0489,-4.0489,-4.0489,-4.0489,-4.0489,-4.0489,-4.0489,-4.0489,-4.0489,-4.0489,-4.0489,-4.0489,-4.0489,-4.0489,-4.0489,-4.0489,-4.0489,-4.0489,-4.0436,-4.0331,-4.0277,-3.6443,-3.7602,-3.8304,-3.7812,-3.7461,-3.6794,-3.5092,-3.446,-3.3898,-3.2651,-3.2406,-3.2406,-3.2406,-3.288,-3.3898,-3.583,-3.6847,-3.8392,-4.1218,-4.4003,0.0,-4.917,0.0,0.0,0.0,0.0,0.0,0.0,0.0,0.0,0.0,0.0,-5.5507,-5.5507,-5.5507,-5.5431,-5.5306,-5.5229,-5.5139,-5.4992,-5.4855,-5.4749,-5.4686,-5.4543,0.0,0.0,0.0,0.0,0.0,-5.4512,-5.4512,-5.4512,-5.4512,-5.4512,-5.4512,-5.4512,-5.4512,-5.4512,-5.4512,-5.4512,-5.4512,-5.4512,-5.4512,-5.4391,-5.3822,-5.2946,-5.1877,-5.0424,-4.9906,-4.9755,-4.9547,-4.9411,-4.926,-4.9063,-4.8656,-4.8306,-4.8306,-4.7522,-4.6673,-4.6182,-4.566,-4.5142,-4.4685,-4.4255,-4.3762,-4.3079,-4.2402,-4.1724,-4.1032,-4.0659,-4.0489,-4.0489,-4.0489,-4.0489,-4.0489,-4.0489,-4.0489,-4.0489,-4.0489,-4.0489,-4.0489,-4.0489,-4.0489,-4.0489,-4.0489,-4.0489,-4.0489,-4.0489,-4.0489,-4.0489,-4.0401,-4.0366,0.0,-3.5409,-3.6586,-3.6586,-3.6075,-3.5371,-3.4688,-3.4003,0.0,-3.2546,-3.2406,-3.2423,-3.2546,-3.3687,-3.4705,-3.4969,-3.6794,-3.9024,-4.1429,-4.3939,0.0,0.0,-5.247,0.0,0.0,0.0,0.0,0.0,0.0,0.0,0.0,0.0,-5.5507,-5.5507,-5.5507,-5.5507,-5.5507,-5.5306,-5.5139,-5.5022,-5.4886,-5.4717,-5.4512,-5.4512,0.0,0.0,0.0,0.0,0.0,-5.4512,-5.4512,-5.4512,-5.4512,-5.4512,-5.4512,-5.4512,-5.4512,-5.4512,-5.4512,-5.4512,-5.4512,-5.4512,-5.4477,-5.4149,-5.2636,-5.2188,-5.1877,-5.0424,-5.0011,-4.9906,-4.9607,-4.95,-4.9428,-4.9094,-4.9001,-4.9001,-4.894,-4.7836,-4.6846,-4.6742,-4.5624,-4.4648,-4.461,-4.461,-4.4379,-4.3701,-4.3017,-4.2371,-4.1694,-4.097,-4.0489,-4.0489,-4.0489,-4.0489,-4.0489,-4.0489,-4.0489,-4.0489,-4.0489,-4.0489,-4.0489,-4.0489,-4.0489,-4.0489,-4.0489,-4.0489,-4.0489,-4.0489,-4.0489,-4.0489,-4.0489,-4.0489,-3.0106,0.0,-3.2546,-3.2546,-3.288,-3.3143,0.0,-3.3231,-3.3283,-3.2546,-3.2406,-3.2757,-3.3933,-3.395,-3.4757,-3.7742,-3.8673,-4.0042,-4.2956,-4.6923,0.0,-5.4033,-5.4753,0.0,0.0,0.0,0.0,0.0,0.0,0.0,0.0,0.0,-5.5507,-5.5507,-5.5507,-5.5507,-5.5507,-5.5431,-5.5324,-5.5139,-5.5022,-5.4886,-5.4717,-5.4575,0.0,0.0,0.0,0.0,-5.4512,-5.4512,-5.4512,-5.4512,-5.4512,-5.4512,-5.4512,-5.4512,-5.4512,-5.4512,-5.4512,-5.4512,-5.4512,-5.4512,-5.4132,-5.3494,-5.2511,-5.2188,-5.1877,-5.0424,-5.0011,-4.9935,-4.9725,-4.9649,-4.956,-4.9229,-4.9138,-4.8968,-4.8289,-4.7885,-4.7305,-4.6182,-4.566,-4.5237,-4.4685,-4.461,-4.4379,-4.3701,-4.3017,-4.2371,-4.1694,-4.097,-4.0489,-4.0489,-4.0489,-4.0489,-4.0489,-4.0489,-4.0489,-4.0489,-4.0489,-4.0489,-4.0489,-4.0489,-4.0489,-4.0489,-4.0489,-4.0489,-4.0489,-4.0489,-4.0489,-4.0489,-4.0401,-4.0347,-2.8351,-3.0001,-3.1756,-3.1756,-3.2335,-3.2897,-3.2897,-3.295,-3.288,-3.2476,-3.2406,-3.2757,-3.3933,-3.4371,-3.5371,-3.7848,-3.9427,-4.1692,0.0,0.0,-5.1909,-5.463,0.0,0.0,0.0,0.0,0.0,0.0,0.0,0.0,0.0,0.0,-5.5507,-5.5507,-5.5507,-5.5507,-5.5507,-5.5401,-5.5306,-5.5199,-5.4992,-5.4855,-5.478,-5.4575,0.0,0.0,0.0,0.0,-5.4512,-5.4512,-5.4512,-5.4512,-5.4512,-5.4512,-5.4512,-5.4512,-5.4512,-5.4512,-5.4512,-5.4512,-5.4443,-5.4115,-5.3736,-5.3201,-5.2046,-5.1718,-5.1447,-5.0321,-5.0011,-4.9964,-4.9737,-4.9708,-4.9649,-4.9381,-4.932,-4.9182,-4.8623,-4.824,-4.7737,-4.6898,-4.6429,-4.5985,-4.5237,-4.5104,-4.4868,-4.4154,-4.3217,-4.2479,-4.2109,-4.117,-4.0489,-4.0489,-4.0489,-4.0489,-4.0489,-4.0489,-4.0489,-4.0489,-4.0489,-4.0489,-4.0489,-4.0489,-4.0489,-4.0489,-4.0489,-4.0489,-4.0489,-4.0489,-4.0489,-4.0489,-4.0436,-4.0401,-2.797,-3.0232,-3.2441,-3.2142,-3.2774,-3.3511,-3.3494,-3.302,-3.2564,-3.2564,-3.2564,-3.288,-3.3845,-3.509,-3.6373,-3.7496,-4.02,0.0,-4.8082,-5.0066,-5.1874,-5.405,0.0,0.0,0.0,0.0,0.0,0.0,0.0,0.0,0.0,0.0,0.0,-5.5507,-5.5507,-5.5507,-5.5507,-5.5324,-5.5229,-5.5199,-5.4961,-5.4842,-5.478,-5.4606,0.0,0.0,0.0,0.0,-5.4512,-5.4512,-5.4512,-5.4512,-5.4512,-5.4512,-5.4512,-5.4512,-5.4512,-5.4512,-5.4512,-5.4443,-5.4236,-5.3598,-5.3253,-5.2822,-5.1511,-5.1028,-5.0804,-5.0183,-5.0011,-4.9964,-4.9784,-4.9755,-4.9679,-4.9547,-4.9518,-4.9411,-4.906,-4.8511,-4.7982,-4.7787,-4.7221,-4.6569,-4.5841,-4.5697,-4.5458,-4.4723,-4.3541,-4.2725,-4.2617,-4.1458,-4.0612,-4.0505,-4.0489,-4.0489,-4.0489,-4.0489,-4.0489,-4.0489,-4.0489,-4.0489,-4.0489,-4.0489,-4.0489,-4.0489,-4.0489,-4.0489,-4.0489,-4.0489,-4.0489,-4.0489,-4.0489,-4.0489,-2.9112,-3.1237,-3.265,-3.0882,-3.1985,-3.3494,-3.3494,-3.3424,-3.3336,-3.3336,-3.3336,-3.3967,-3.6075,-3.6673,-3.7707,-4.0446,-4.2956,-4.5712,0.0,0.0,-5.2453,0.0,0.0,0.0,0.0,0.0,0.0,0.0,0.0,0.0,0.0,0.0,0.0,-5.5507,-5.5507,-5.5507,-5.5507,-5.5478,-5.5354,-5.5199,-5.5169,-5.5022,-5.4797,-5.4749,-5.4655,0.0,0.0,-5.4512,-5.4512,-5.4512,-5.4512,-5.4512,-5.4512,-5.4512,-5.4512,-5.4512,-5.4512,-5.4512,-5.4512,-5.4098,-5.3546,-5.3442,-5.2528,-5.1425,-5.1183,-5.0666,-5.0149,-5.0045,-5.0011,-5.0011,-4.9964,-4.9964,-4.9877,-4.9577,-4.9518,-4.9243,-4.8289,-4.8015,-4.7754,-4.7069,-4.688,-4.6569,-4.5841,-4.5697,-4.5458,-4.4723,-4.3947,-4.3217,-4.2679,-4.1925,-4.1201,-4.0566,-4.0489,-4.0489,-4.0489,-4.0489,-4.0489,-4.0489,-4.0489,-4.0489,-4.0489,-4.0489,-4.0489,-4.0489,-4.0489,-4.0489,-4.0489,-4.0489,-4.0489,-4.0489,-4.0489,-4.0489,-2.8366,-3.0211,-3.183,-3.1306,-3.3523,-3.5706,-3.5271,-3.5182,-3.5182,-3.5182,-3.518,-3.5654,-3.7256,-3.7872,-3.9312,-4.2898,0.0,-4.7116,-4.939,0.0,0.0,0.0,0.0,0.0,0.0,0.0,0.0,0.0,0.0,0.0,0.0,0.0,0.0,0.0,-5.5507,-5.5507,-5.5507,-5.5507,-5.5431,-5.5354,-5.5259,-5.5139,-5.5022,-5.4873,-5.4749,-5.4655,0.0,-5.4512,-5.4512,-5.4512,-5.4512,-5.4512,-5.4512,-5.4512,-5.446,-5.4063,-5.3632,-5.327,-5.327,-5.3046,-5.2701,-5.2304,-5.1683,-5.1045,-5.0631,-5.0287,-5.0011,-5.0011,-5.0011,-5.0011,-5.0011,-5.0011,-4.9964,-4.9818,-4.9772,-4.9577,-4.892,-4.8748,-4.8623,-4.8113,-4.7655,-4.7137,-4.6429,-4.5985,-4.5458,-4.4723,-4.404,-4.3501,-4.3171,-4.2232,-4.1478,-4.114,-4.072,-4.0489,-4.0489,-4.0489,-4.0489,-4.0489,-4.0489,-4.0489,-4.0489,-4.0489,-4.0489,-4.0489,-4.0489,-4.0489,-4.0489,-4.0489,-4.0489,-4.0489,-4.0489,-4.0489,-2.7869,-2.9517,-3.1307,-3.2088,-3.4642,-3.6998,-3.6948,-3.6751,-3.6713,-3.7099,-3.7148,-3.7429,-3.8318,-3.9386,-4.1268,-4.4793,-4.6635,-4.8232,0.0,0.0,0.0,0.0,0.0,0.0,0.0,0.0,0.0,0.0,0.0,0.0,0.0,0.0,0.0,0.0,-5.5051,-5.5051,-5.5227,-5.5051,-5.5139,-5.5507,-5.5354,-5.5229,-5.5199,-5.4992,-5.4873,-5.478,-5.4447,-5.4267,-5.4236,-5.4046,-5.3977,-5.3977,-5.3977,-5.3977,-5.3908,-5.3339,-5.2735,-5.2188,-5.2188,-5.2084,-5.1843,-5.1287,-5.0994,-5.0752,-5.0183,-5.0011,-5.0011,-5.0011,-5.0011,-5.0011,-5.0011,-5.0011,-4.9982,-4.9935,-4.9935,-4.986,-4.9547,-4.9518,-4.9428,-4.9124,-4.8608,-4.7917,-4.6949,-4.6324,-4.566,-4.4761,-4.4178,-4.3732,-4.3424,-4.2602,-4.1878,-4.1401,-4.1001,-4.0674,-4.0505,-4.0489,-4.0489,-4.0489,-4.0489,-4.0489,-4.0489,-4.0489,-4.0489,-4.0489,-4.0489,-4.0489,-4.0489,-4.0489,-4.0489,-4.0489,-4.0489,-4.0489,-2.8988,-3.0524,-3.1905,-3.2664,-3.375,-3.5227,-3.7417,-3.7233,-3.7032,-3.8597,-3.8833,-3.8995,-3.9795,-4.1731,-4.3822,-4.5797,-4.7305,-4.9082,0.0,0.0,0.0,0.0,0.0,0.0,0.0,0.0,0.0,0.0,0.0,0.0,0.0,0.0,0.0,0.0,0.0,-5.3682,-5.4384,-5.3699,-5.4068,-5.5507,-5.5478,-5.5383,-5.5199,-5.5169,-5.5053,-5.4745,-5.4,-5.3583,-5.3425,-5.2684,-5.236,-5.236,-5.236,-5.236,-5.2343,-5.2321,-5.2239,-5.2188,-5.2188,-5.174,-5.1183,-5.1132,-5.0649,-5.008,-5.0028,-5.0011,-5.0011,-5.0011,-5.0011,-5.0011,-5.0011,-5.0011,-4.9964,-4.9784,-4.9708,-4.9679,-4.9547,-4.9518,-4.9458,-4.9229,-4.9121,-4.8623,-4.7085,-4.6742,-4.6218,-4.4821,-4.4579,-4.4064,-4.2833,-4.311,-4.2709,-4.0782,-4.1155,-4.1247,-4.0551,-4.0489,-4.0489,-4.0489,-4.0489,-4.0489,-4.0489,-4.0489,-4.0489,-4.0489,-4.0489,-4.0489,-4.0489,-4.0489,-4.0489,-4.0489,-4.0489,-4.0489,-2.7971,-2.992,-3.1972,-3.2714,-3.4239,-3.5962,-3.7373,-3.8508,-3.9576,-4.0678,-4.1261,-4.1555,-4.1435,-4.2547,-4.4053,-4.5678,-4.7692,0.0,0.0,0.0,0.0,0.0,0.0,0.0,0.0,0.0,0.0,0.0,0.0,0.0,0.0,0.0,0.0,0.0,0.0,-5.3341,-5.3612,-5.3331,-5.35,-5.4068,-5.4068,-5.4022,-5.3946,-5.3842,-5.3725,-5.3577,-5.312,-5.2896,-5.2818,-5.2386,-5.2188,-5.2188,-5.2188,-5.1912,-5.1498,-5.1498,-5.1235,-5.0838,-5.0838,-5.0666,-5.0424,-5.0424,-5.0235,-5.0011,-5.0011,-5.0011,-5.0011,-5.0011,-5.0011,-5.0011,-5.0011,-5.0011,-4.9982,-4.9889,-4.9889,-4.983,-4.9649,-4.9619,-4.953,-4.926,-4.8841,-4.8304,-4.7605,-4.7119,-4.6459,-4.5416,-4.4921,-4.4304,-4.3345,-4.3092,-4.2509,-4.1324,-4.1032,-4.0782,-4.052,-4.0489,-4.0489,-4.0489,-4.0489,-4.0489,-4.0489,-4.0489,-4.0489,-4.0489,-4.0489,-4.0489,-4.0489,-4.0489,-4.0489,-4.0489,-4.0489,-4.0489,-2.749,-2.9418,-3.1716,-3.2795,-3.4518,-3.6353,-3.7836,-3.96,-4.1188,-4.2196,-4.2834,-4.3084,-4.2646,-4.3006,-4.4017,0.0,0.0,0.0,0.0,0.0,0.0,0.0,0.0,0.0,0.0,0.0,0.0,0.0,0.0,0.0,0.0,0.0,0.0,0.0,0.0,0.0,-5.2804,-5.2576,-5.2481,-5.2481,-5.2481,-5.2744,-5.3173,-5.2984,-5.2881,-5.2823,-5.2334,-5.2082,-5.2023,-5.1662,-5.1528,-5.1528,-5.1528,-5.1218,-5.0752,-5.0752,-5.0442,-5.0011,-5.0011,-5.0011,-5.0011,-5.0011,-5.0011,-5.0011,-5.0011,-5.0011,-5.0011,-5.0011,-5.0011,-5.0011,-5.0011,-5.0011,-5.0011,-5.0011,-5.0011,-4.9964,-4.9813,-4.9784,-4.9696,-4.935,-4.8903,-4.84,-4.7982,-4.7292,-4.6547,-4.5807,-4.5108,-4.4397,-4.3679,-4.32,-4.2576,-4.1698,-4.0955,-4.0489,-4.0489,-4.0489,-4.0489,-4.0489,-4.0489,-4.0489,-4.0489,-4.0489,-4.0489,-4.0489,-4.0489,-4.0489,-4.0489,-4.0489,-4.0489,-4.0489,-4.0489,-4.0489,-2.7914,-2.9232,-3.1166,-3.2966,-3.4332,-3.6046,-3.9048,-4.0342,-4.1367,-4.2985,-4.3264,-4.3214,-4.3296,-4.3264,-4.4025,-4.6587,0.0,0.0,0.0,0.0,0.0,0.0,0.0,0.0,0.0,0.0,0.0,0.0,0.0,0.0,0.0,0.0,0.0,0.0,0.0,0.0,-5.1969,-5.1259,-5.0891,-5.0891,-5.0891,-5.1708,-5.3155,-5.2949,-5.2823,-5.263,-5.1685,-5.1227,-5.1045,-5.0304,-5.0011,-5.0011,-5.0011,-5.0011,-5.0011,-5.0011,-5.0011,-5.0011,-5.0011,-5.0011,-5.0011,-5.0011,-5.0011,-5.0011,-5.0011,-5.0011,-5.0011,-5.0011,-5.0011,-5.0011,-5.0011,-5.0011,-5.0011,-5.0011,-5.0011,-5.0011,-5.0011,-5.0011,-4.9906,-4.9577,-4.9518,-4.9152,-4.808,-4.7289,-4.6551,-4.5827,-4.5077,-4.4366,-4.3703,-4.3607,-4.3078,-4.1769,-4.0955,-4.0524,-4.0524,-4.0489,-4.0489,-4.0489,-4.0489,-4.0489,-4.0489,-4.0489,-4.0489,-4.0489,-4.0489,-4.0489,-4.0489,-4.0489,-4.0489,-4.0489,-4.0489,-4.0489,-2.7674,-2.9967,-3.2805,-3.3684,-3.6409,-3.9241,-4.0696,-4.136,-4.2275,-4.4345,-4.4345,-4.3966,-4.4017,-4.3991,0.0,0.0,0.0,0.0,0.0,0.0,0.0,0.0,0.0,0.0,0.0,0.0,0.0,0.0,0.0,0.0,0.0,0.0,0.0,0.0,0.0,0.0,-5.1224,-5.0996,-5.0891,-5.0891,-5.0891,-5.1119,-5.1575,-5.153,-5.1402,-5.12,-5.0832,-5.0604,-5.0432,-5.0109,-5.0011,-5.0011,-5.0011,-5.0011,-5.0011,-5.0011,-5.0011,-5.0011,-5.0011,-5.0011,-5.0011,-5.0011,-5.0011,-5.0011,-5.0011,-5.0011,-5.0011,-5.0011,-5.0011,-5.0011,-5.0011,-5.0011,-5.0011,-5.0011,-5.0011,-5.0011,-5.0011,-5.0011,-4.9935,-4.9696,-4.9649,-4.95,-4.9104,-4.8294,-4.7467,-4.6733,-4.5512,-4.4407,-4.3702,-4.3138,-4.2879,-4.3002,-4.2347,-4.1706,-4.1243,-4.1209,-4.099,-4.0524,-4.0489,-4.0489,-4.0489,-4.0489,-4.0489,-4.0489,-4.0489,-4.0489,-4.0489,-4.0489,-4.0489,-4.0489,-4.0489,-4.0489,-2.9203,-3.1524,-3.4247,-3.5766,-3.8068,-4.044,-4.233,-4.298,-4.361,-4.5087,-4.4966,-4.4617,-4.4734,-4.4897,0.0,0.0,0.0,0.0,0.0,0.0,0.0,0.0,0.0,0.0,0.0,0.0,0.0,0.0,0.0,0.0,0.0,0.0,0.0,0.0,0.0,0.0,-5.0891,-5.0891,-5.0891,-5.0891,-5.0891,-5.0891,-5.0891,-5.0819,-5.0702,-5.0585,-5.0397,-5.0246,-5.012,-5.0022,-5.0011,-5.0011,-5.0011,-5.0011,-5.0011,-5.0011,-5.0011,-5.0011,-5.0011,-5.0011,-5.0011,-5.0011,-5.0011,-5.0011,-5.0011,-5.0011,-5.0011,-5.0011,-5.0011,-5.0011,-5.0011,-5.0011,-5.0011,-5.0011,-5.0011,-5.0011,-5.0011,-5.0011,-4.9935,-4.9737,-4.9468,-4.922,-4.9073,-4.8068,-4.7157,-4.6715,-4.5571,-4.4434,-4.3672,-4.317,-4.2979,-4.3136,-4.2764,-4.2237,-4.1558,-4.1492,-4.1209,-4.0524,-4.0489,-4.0489,-4.0489,-4.0489,-4.0489,-4.0489,-4.0489,-4.0489,-4.0489,-4.0489,-4.0489,-4.0489,-4.0489,-4.0489,-3.1448,-3.3309,-3.5419,-3.842,-3.945,-4.058,-4.3729,-4.4751,-4.5091,-4.5416,-4.5279,-4.5163,-4.5442,-4.5905,0.0,0.0,0.0,0.0,0.0,0.0,0.0,0.0,0.0,0.0,0.0,0.0,0.0,0.0,0.0,0.0,0.0,0.0,0.0,0.0,0.0,0.0,-5.0662,-5.068,-5.068,0.0,-5.068,-5.068,-5.068,-5.0632,-5.063,-5.0585,-5.0313,-5.0149,-5.004,-5.0011,-5.0011,-5.0011,-5.0011,-5.0011,-5.0011,-5.0011,-5.0011,-5.0011,-5.0011,-5.0011,-5.0011,-5.0011,-5.0011,-5.0011,-5.0011,-5.0011,-5.0011,-5.0011,-5.0011,-5.0011,-5.0011,-5.0011,-5.0011,-5.0011,-5.0011,-5.0011,-5.0011,-5.0011,-4.9918,-4.9652,-4.9085,-4.8563,-4.835,-4.7107,-4.6088,-4.6009,-4.5301,-4.4519,-4.3706,-4.3601,-4.3363,-4.2769,-4.2676,-4.2395,-4.1641,-4.1575,-4.1276,-4.0558,-4.0489,-4.0489,-4.0489,-4.0489,-4.0489,-4.0489,-4.0489,-4.0489,-4.0489,-4.0489,-4.0489,-4.0489,-4.0489,-4.0489,-2.9686,-3.2534,-3.5994,-3.8241,-4.0953,-4.3246,-4.3955,-4.4651,-4.5304,-4.5912,-4.5972,-4.5951,-4.602,-4.6435,0.0,0.0,0.0,0.0,0.0,0.0,0.0,0.0,0.0,0.0,0.0,0.0,0.0,0.0,0.0,0.0,0.0,0.0,0.0,0.0,0.0,-4.8854,-4.9004,-4.903,-4.903,0.0,-4.903,-4.903,-4.9065,-5.0284,-5.0747,-5.0585,-5.0313,-5.0189,-5.0149,-5.0051,-5.0011,-5.0011,-5.0011,-5.0011,-5.0011,-5.0011,-5.0011,-5.0011,-5.0011,-5.0011,-5.0011,-5.0011,-5.0011,-5.0011,-5.0011,-5.0011,-5.0011,-5.0011,-5.0011,-5.0011,-5.0011,-5.0011,-5.0011,-5.0011,-5.0011,-5.0011,-5.0011,-5.0011,-4.9792,-4.9126,-4.8885,-4.8546,-4.795,-4.6955,-4.5994,-4.5182,-4.4905,-4.4692,-4.4395,-4.4367,-4.431,-4.415,-4.415,-4.3634,-4.2395,-4.23,-4.1771,-4.0593,-4.0489,-4.0489,-4.0489,-4.0489,-4.0489,-4.0489,-4.0489,-4.0489,-4.0489,-4.0489,-4.0489,-4.0489,-4.0489,-4.0489,-3.0355,-3.3433,-3.6951,-3.995,-4.2267,-4.3889,-4.4253,-4.4482,-4.482,-4.5557,-4.6043,-4.6331,-4.6507,0.0,0.0,0.0,0.0,0.0,0.0,0.0,0.0,0.0,0.0,0.0,0.0,0.0,0.0,0.0,0.0,0.0,0.0,0.0,0.0,0.0,-4.817,-4.8152,-4.8495,-4.8495,-4.8495,-4.8495,-4.8538,-4.8538,-4.8512,-4.9381,-4.9652,-4.9501,-4.9356,-4.9236,-4.9069,-4.9003,-4.8964,-4.8907,-4.8907,-4.8907,-4.8959,-4.9304,-4.9441,-4.9493,-4.9873,-5.0011,-5.0011,-5.0011,-5.0011,-5.0011,-5.0011,-5.0011,-5.0011,-5.0011,-5.0011,-4.9924,-4.9545,-4.9441,-4.9355,-4.8993,-4.9476,-4.9907,-4.9528,-4.9441,-4.9217,-4.8413,-4.7982,-4.7603,-4.7251,-4.6402,-4.5569,-4.4992,-4.4831,-4.4765,-4.4615,-4.4615,-4.4615,-4.4615,-4.4615,-4.415,-4.3075,-4.2984,-4.2536,-4.1525,-4.1158,-4.099,-4.099,-4.0681,-4.0489,-4.0489,-4.0489,-4.0489,-4.0489,-4.0489,-4.0489,-4.0489,-4.0489,-4.0489,-3.0912,-3.4269,-3.7827,-4.1633,-4.3049,-4.3663,-4.4342,-4.4181,-4.4155,-4.4951,-4.5691,-4.6269,0.0,0.0,0.0,0.0,0.0,0.0,0.0,0.0,0.0,0.0,0.0,0.0,0.0,0.0,0.0,0.0,0.0,0.0,0.0,0.0,-4.7503,-4.817,-4.7538,-4.7485,-4.8091,-4.8091,-4.8091,-4.8091,-4.817,-4.817,-4.8091,-4.8091,-4.8198,-4.8321,-4.8312,-4.8154,-4.7974,-4.7919,-4.7837,-4.7745,-4.7717,-4.7689,-4.7758,-4.8379,-4.8603,-4.8706,-4.9528,-4.9804,-4.9821,-4.9959,-4.9907,-4.9804,-4.9804,-4.9717,-4.9614,-4.9614,-4.9614,-4.9459,-4.8775,-4.8603,-4.8448,-4.7844,-4.8683,-4.9424,-4.8741,-4.8603,-4.8379,-4.7638,-4.6924,-4.6379,-4.6379,-4.5748,-4.5194,-4.5059,-4.4913,-4.4793,-4.4654,-4.4598,-4.4615,-4.4615,-4.4615,-4.431,-4.3571,-4.3512,-4.3196,-4.2552,-4.1981,-4.1673,-4.1673,-4.1142,-4.0802,-4.0681,-4.0558,-4.0489,-4.0489,-4.0489,-4.0489,-4.0489,-4.0489,-4.0489,-2.7856,-3.2657,-3.8041,-4.0681,-4.2436,-4.3533,-4.3626,-4.3609,-4.3813,0.0,-4.507,0.0,0.0,0.0,0.0,0.0,0.0,0.0,0.0,0.0,0.0,0.0,0.0,0.0,0.0,0.0,0.0,0.0,0.0,0.0,0.0,-4.6354,-4.6407,-4.6512,-4.6407,-4.6407,-4.6512,-4.6512,-4.6512,-4.6512,-4.6512,-4.6512,-4.6512,-4.6512,-4.7232,-4.8469,-4.8365,-4.8286,-4.8233,-4.8001,-4.7892,-4.7865,-4.7745,-4.7689,-4.7707,-4.7793,-4.7844,-4.7948,-4.8689,-4.8947,-4.9068,-4.9786,-4.9545,-4.8947,-4.8947,-4.8499,-4.8027,-4.8027,-4.8027,-4.7965,-4.7862,-4.7844,-4.781,-4.7707,-4.7872,-4.7965,-4.7862,-4.7844,-4.762,-4.6906,-4.6086,-4.5552,-4.5552,-4.5466,-4.5344,-4.5177,-4.5059,-4.4923,-4.4776,-4.4682,-4.4615,-4.4615,-4.4615,-4.431,-4.3571,-4.3512,-4.3196,-4.2552,-4.2426,-4.2363,-4.2363,-4.2269,-4.1949,-4.136,-4.0817,-4.0489,-4.0489,-4.0489,-4.0489,-4.0489,-4.0489,-4.0489,-2.8752,-3.2475,-3.634,-4.0141,-4.1627,-4.2396,-4.3277,-4.3515,-4.3606,-4.3956,0.0,0.0,0.0,0.0,0.0,0.0,0.0,0.0,0.0,0.0,0.0,0.0,0.0,0.0,0.0,0.0,0.0,0.0,0.0,0.0,-4.6179,-4.6196,-4.6196,-4.6196,-4.6196,0.0,-4.6196,-4.6196,-4.6196,-4.6196,-4.6453,-4.6453,-4.6196,-4.6196,-4.6565,-4.7214,-4.7164,-4.707,-4.6993,-4.6882,-4.6743,-4.6611,-4.6531,-4.6495,-4.6466,-4.6941,-4.7096,-4.72,-4.7913,-4.8172,-4.8224,-4.8614,-4.8465,-4.8172,-4.8172,-4.7948,-4.7689,-4.7689,-4.7689,-4.7586,-4.72,-4.7096,-4.6965,-4.6517,-4.6397,-4.6397,-4.6397,-4.6786,-4.6855,-4.6069,-4.5638,-4.5397,-4.5397,-4.5344,-4.5274,-4.522,-4.5086,-4.4978,-4.4913,-4.482,-4.4709,-4.4709,-4.4654,-4.4468,-4.4133,-4.4105,-4.3989,-4.371,-4.3273,-4.3075,-4.3075,-4.2332,-4.1804,-4.1525,-4.1209,-4.087,-4.0489,-4.0489,-4.0489,-4.0489,-4.0489,-4.0489,-2.8603,-3.1213,-3.3673,-3.8138,-3.9898,-4.0926,-4.2542,-4.3056,-4.3275,0.0,0.0,0.0,0.0,0.0,0.0,0.0,0.0,0.0,0.0,0.0,0.0,0.0,0.0,0.0,0.0,0.0,0.0,0.0,0.0,0.0,-4.5888,-4.5923,-4.5876,-4.5775,-4.5775,-4.5721,-4.5617,-4.581,-4.5916,-4.5916,-4.6484,-4.6548,-4.6196,-4.6196,-4.6196,-4.6196,-4.6196,-4.6147,-4.6048,-4.6023,-4.5871,-4.5693,-4.5632,-4.5554,-4.5519,-4.6096,-4.632,-4.6397,-4.7155,-4.7414,-4.7458,-4.762,-4.7551,-4.7414,-4.7414,-4.7276,-4.7103,-4.7103,-4.7103,-4.6983,-4.6431,-4.632,-4.6121,-4.5535,-4.5397,-4.5397,-4.5397,-4.5862,-4.6104,-4.5518,-4.5397,-4.5397,-4.5397,-4.53,-4.5247,-4.5247,-4.514,-4.5059,-4.5059,-4.4923,-4.4858,-4.4858,-4.4748,-4.4682,-4.4654,-4.4654,-4.4626,-4.4615,-4.4076,-4.3781,-4.3781,-4.2645,-4.1933,-4.1771,-4.1591,-4.1176,-4.0489,-4.0489,-4.0489,-4.0489,-4.0489,-4.0489,-2.5038,-2.7492,-3.011,-3.338,-3.6562,-3.9329,-4.0871,-4.1858,-4.2664,0.0,0.0,0.0,0.0,0.0,0.0,0.0,0.0,0.0,0.0,0.0,0.0,0.0,0.0,0.0,0.0,0.0,0.0,0.0,0.0,0.0,-4.515,-4.515,-4.4985,-4.4595,-4.4595,-4.4414,-4.4009,-4.4782,-4.5168,-4.5168,-4.5888,-4.6221,-4.6196,-4.6196,-4.6196,-4.6196,-4.6196,-4.6214,-4.6172,-4.6048,-4.5998,-4.5947,-4.5693,-4.5607,-4.5581,-4.5484,-4.5466,-4.5569,-4.6389,-4.6665,-4.6786,-4.7465,-4.7234,-4.6665,-4.6665,-4.6104,-4.5518,-4.5518,-4.5518,-4.5518,-4.5466,-4.5466,-4.5449,-4.5414,-4.5397,-4.5397,-4.5397,-4.5432,-4.5449,-4.5414,-4.5397,-4.5397,-4.5397,-4.5397,-4.5397,-4.5397,-4.5274,-4.5177,-4.5177,-4.5086,-4.4978,-4.4978,-4.4978,-4.494,-4.4803,-4.4776,-4.4737,-4.4598,-4.457,-4.4542,-4.4542,-4.381,-4.3106,-4.2458,-4.1836,-4.1176,-4.0489,-4.0489,-4.0489,-4.0489,-4.0489,-4.0489,-2.3565,-2.5703,-2.8198,-3.0876,-3.3655,-3.6132,-3.7732,-3.9565,-4.1143,0.0,0.0,0.0,0.0,0.0,0.0,0.0,0.0,0.0,0.0,0.0,0.0,0.0,0.0,0.0,0.0,0.0,0.0,0.0,0.0,0.0,-4.5068,-4.5104,-4.5023,-4.488,-4.4898,-4.4836,-4.4667,-4.4993,-4.5003,-4.4711,-4.5035,-4.5016,-4.4729,-4.4729,-4.4729,-4.4764,-4.5273,-4.5758,-4.6214,-4.6147,-4.6073,-4.5972,-4.5795,-4.5684,-4.5563,-4.545,-4.5397,-4.5432,-4.5725,-4.5828,-4.5862,-4.6138,-4.6035,-4.5828,-4.5828,-4.5621,-4.5397,-4.5397,-4.5397,-4.5397,-4.5397,-4.5397,-4.5397,-4.5397,-4.5397,-4.5397,-4.5397,-4.5397,-4.5397,-4.5397,-4.5397,-4.5397,-4.5397,-4.5397,-4.5397,-4.5397,-4.5371,-4.5344,-4.5344,-4.522,-4.514,-4.514,-4.5059,-4.4978,-4.494,-4.494,-4.4913,-4.4858,-4.4793,-4.4737,-4.4737,-4.3927,-4.3393,-4.3136,-4.2473,-4.1608,-4.0489,-4.0489,-4.0489,-4.0489,-4.0489,-4.0489,-2.2159,-2.3878,-2.6177,-2.8865,-3.0768,-3.2767,-3.5731,-3.7675,-3.922,0.0,0.0,0.0,0.0,0.0,0.0,0.0,0.0,0.0,0.0,0.0,0.0,0.0,0.0,0.0,0.0,0.0,0.0,0.0,0.0,0.0,-4.4711,-4.4729,-4.4654,-4.4522,-4.4406,-4.4328,-4.4328,-4.4655,-4.4622,-4.4351,-4.4641,-4.46,-4.4312,-4.4312,-4.4312,-4.4325,-4.4875,-4.5382,-4.5846,-4.6091,-4.6122,-4.5972,-4.5846,-4.5718,-4.5563,-4.545,-4.5397,-4.5397,-4.5397,-4.5397,-4.5397,-4.5397,-4.5397,-4.5397,-4.5397,-4.5397,-4.5397,-4.5397,-4.5397,-4.5397,-4.5397,-4.5397,-4.5397,-4.5397,-4.5397,-4.5397,-4.5397,-4.5397,-4.5397,-4.5397,-4.5397,-4.5397,-4.5397,-4.5397,-4.5397,-4.5397,-4.5397,-4.5397,-4.5397,-4.53,-4.5274,-4.5274,-4.5194,-4.5113,-4.5059,-4.5032,-4.4978,-4.494,-4.4803,-4.472,-4.472,-4.3927,-4.3512,-4.3512,-4.2831,-4.2046,-4.1176,-4.0972,-4.0715,-4.0489,-4.0489,-4.0489,0.0,0.0,0.0,-2.7075,-2.7908,-2.9407,-3.486,0.0,0.0,0.0,0.0,0.0,0.0,0.0,0.0,0.0,0.0,0.0,0.0,0.0,0.0,0.0,0.0,0.0,0.0,0.0,0.0,0.0,0.0,-4.4005,-4.4005,-4.4005,-4.3809,-4.344,-4.3051,-4.2847,-4.2847,-4.3607,-4.3985,-4.3985,-4.4708,-4.5032,-4.5032,-4.5032,-4.5032,-4.5032,-4.5068,-4.5076,-4.5128,-4.5859,-4.6119,-4.5988,-4.5837,-4.5727,-4.5607,-4.545,-4.5397,-4.5397,-4.5397,-4.5397,-4.5397,-4.5397,-4.5397,-4.5397,-4.5397,-4.5397,-4.5397,-4.5397,-4.5397,-4.5397,-4.5397,-4.5397,-4.5397,-4.5397,-4.5397,-4.5397,-4.5397,-4.5397,-4.5397,-4.5397,-4.5397,-4.5397,-4.5397,-4.5397,-4.5397,-4.5397,-4.5397,-4.5397,-4.5397,-4.5397,-4.5397,-4.5397,-4.5397,-4.5344,-4.522,-4.5086,-4.4968,-4.4831,-4.4682,-4.4615,-4.4598,-4.3914,-4.3542,-4.3542,-4.2892,-4.2552,-4.252,-4.1868,-4.1209,-4.0558,-4.0524,-4.0524,-2.1795,0.0,0.0,0.0,0.0,0.0,0.0,0.0,0.0,0.0,0.0,0.0,0.0,0.0,0.0,0.0,0.0,0.0,0.0,0.0,0.0,0.0,0.0,0.0,0.0,0.0,0.0,0.0,-4.4005,-4.4005,-4.4005,-4.4005,-4.3939,-4.3844,-4.3728,-4.366,-4.366,-4.3591,-4.356,-4.356,-4.3467,-4.3442,-4.3442,-4.3442,-4.3442,-4.3479,-4.4056,-4.4297,-4.436,-4.5093,-4.5756,-4.6229,-4.5664,-4.578,-4.6175,-4.5598,-4.5397,-4.5397,-4.5397,-4.5397,-4.5397,-4.5397,-4.5397,-4.5397,-4.5397,-4.5397,-4.5397,-4.5397,-4.5397,-4.5397,-4.5397,-4.5397,-4.5397,-4.5397,-4.5397,-4.5397,-4.5397,-4.5397,-4.5397,-4.5397,-4.5397,-4.5397,-4.5397,-4.5397,-4.5397,-4.5397,-4.5397,-4.5397,-4.5397,-4.5397,-4.5397,-4.5397,-4.5397,-4.5397,-4.5344,-4.5318,-4.5264,-4.5238,-4.5113,-4.4978,-4.4886,-4.4603,-4.4378,-4.431,-4.4121,-4.3768,-4.3227,-4.2552,-4.2141,-4.1933,-4.1459,-4.1209,-2.2813,-2.3479,-2.4547,-2.4697,0.0,0.0,0.0,-2.8971,0.0,0.0,0.0,0.0,0.0,0.0,0.0,0.0,0.0,0.0,0.0,0.0,0.0,0.0,0.0,0.0,0.0,0.0,0.0,0.0,-4.4005,-4.4005,-4.4005,-4.4005,-4.4005,-4.4005,-4.4005,-4.4005,-4.4005,-4.3777,-4.3644,-4.3644,-4.3423,-4.33,-4.33,-4.33,-4.33,-4.3337,-4.3796,-4.3997,-4.4034,-4.4455,-4.4993,-4.5473,-4.5058,-4.5252,-4.5694,-4.5199,-4.5217,-4.5476,-4.5423,-4.5397,-4.5397,-4.5397,-4.5397,-4.5397,-4.5397,-4.5397,-4.5397,-4.5397,-4.5397,-4.5397,-4.5397,-4.5397,-4.5397,-4.5397,-4.5397,-4.5397,-4.5397,-4.5397,-4.5397,-4.5397,-4.5397,-4.5397,-4.5397,-4.5397,-4.5397,-4.5397,-4.5397,-4.5397,-4.5397,-4.5397,-4.5397,-4.5397,-4.5397,-4.5397,-4.5397,-4.5344,-4.5318,-4.5318,-4.5194,-4.5086,-4.5005,-4.4923,-4.4858,-4.4776,-4.4709,-4.4452,-4.3943,-4.3273,-4.2769,-4.2489,-4.2109,-4.1933,-2.4325,-2.4445,-2.5336,-2.6591,-2.6042,0.0,-2.8211,-2.8921,0.0,0.0,0.0,0.0,0.0,0.0,0.0,0.0,0.0,0.0,0.0,0.0,0.0,0.0,0.0,0.0,0.0,0.0,-4.3893,-4.3986,-4.4005,-4.4005,-4.4005,-4.4005,-4.4005,-4.4005,-4.4005,-4.4005,-4.4005,-4.4005,-4.4005,-4.4005,-4.4005,-4.4005,-4.4005,-4.4005,-4.4005,-4.4005,-4.4005,-4.4005,-4.4005,-4.4005,-4.4144,-4.4331,-4.431,-4.4463,-4.4642,-4.4518,-4.4834,-4.5347,-4.5217,-4.5165,-4.5182,-4.5242,-4.5276,-4.5276,-4.538,-4.5397,-4.5397,-4.5397,-4.5397,-4.5397,-4.5397,-4.5397,-4.5397,-4.5397,-4.5397,-4.5397,-4.5397,-4.5397,-4.5397,-4.5397,-4.5397,-4.5397,-4.5397,-4.5397,-4.5397,-4.5397,-4.5397,-4.5397,-4.5397,-4.5397,-4.5397,-4.5397,-4.5397,-4.5397,-4.5397,-4.53,-4.522,-4.522,-4.5113,-4.5032,-4.5032,-4.5005,-4.5005,-4.5005,-4.4886,-4.4765,-4.4626,-4.3943,-4.3333,-4.2738,-4.2645,-4.2614,-2.8467,-2.83,-2.8199,-2.7148,0.0,0.0,-2.6043,-2.6925,-2.8214,0.0,0.0,0.0,0.0,0.0,0.0,0.0,0.0,0.0,0.0,0.0,0.0,0.0,0.0,0.0,0.0,0.0,-4.3299,-4.3949,-4.4005,-4.4005,-4.4005,-4.4005,-4.4005,-4.4005,-4.4005,-4.4005,-4.4005,-4.4005,-4.4005,-4.4005,-4.4005,-4.4005,-4.4005,-4.4005,-4.4005,-4.4005,-4.4005,-4.4005,-4.4005,-4.4005,-4.4251,-4.4619,-4.4452,-4.441,-4.4448,-4.4253,-4.4073,-4.3885,-4.3754,-4.3704,-4.3808,-4.4354,-4.4492,-4.463,-4.5207,-4.5397,-4.5397,-4.5397,-4.5397,-4.5397,-4.5397,-4.5397,-4.5397,-4.5397,-4.5397,-4.5397,-4.5397,-4.5397,-4.5397,-4.5397,-4.5397,-4.5397,-4.5397,-4.5397,-4.5397,-4.5397,-4.5397,-4.5397,-4.5397,-4.5397,-4.5397,-4.5397,-4.5397,-4.5397,-4.5397,-4.5371,-4.5371,-4.5371,-4.5344,-4.5274,-4.5167,-4.515,-4.5113,-4.5005,-4.4978,-4.4886,-4.4748,-4.4525,-4.431,-4.4179,-4.3588,-4.3287,-3.0326,-2.9991,-2.988,-2.9452,0.0,0.0,0.0,-2.6907,-2.713,-2.7966,0.0,0.0,0.0,0.0,0.0,0.0,0.0,0.0,0.0,0.0,0.0,0.0,0.0,0.0,0.0,0.0,-4.237,-4.276,-4.3169,-4.3392,-4.3392,-4.3782,-4.4005,-4.4005,-4.4005,-4.4005,-4.4005,-4.4005,-4.4005,-4.4005,-4.4005,-4.4005,-4.4005,-4.4005,-4.4005,-4.4005,-4.4005,-4.4005,-4.4005,-4.4005,-4.402,-4.403,-4.3941,-4.4011,-4.4175,-4.4014,-4.407,-4.4187,-4.4034,-4.3868,-4.3745,-4.41,-4.4014,-4.3886,-4.4241,-4.4595,-4.4854,-4.4854,-4.513,-4.5397,-4.5397,-4.5397,-4.5397,-4.5397,-4.5397,-4.5397,-4.5397,-4.5397,-4.5397,-4.5397,-4.5397,-4.5397,-4.5397,-4.5397,-4.5397,-4.5397,-4.5397,-4.5397,-4.5397,-4.5397,-4.5397,-4.5397,-4.5397,-4.5397,-4.5397,-4.5397,-4.5397,-4.5397,-4.5397,-4.5371,-4.53,-4.53,-4.5247,-4.5113,-4.5032,-4.4923,-4.4803,-4.4654,-4.4615,-4.4598,-4.4207,-4.4047,0.0,0.0,0.0,0.0,0.0,-2.9136,0.0,0.0,0.0,-2.8356,0.0,0.0,0.0,0.0,0.0,0.0,0.0,0.0,0.0,0.0,0.0,0.0,0.0,0.0,0.0,0.0,-4.0847,-4.133,-4.1664,-4.2054,-4.2537,-4.3336,-4.3763,-4.3763,-4.3912,-4.4005,-4.4005,-4.4005,-4.4005,-4.4005,-4.4005,-4.4005,-4.4005,-4.4005,-4.4005,-4.4005,-4.4005,-4.4005,-4.4005,-4.4005,-4.3809,-4.3526,-4.3526,-4.3633,-4.3767,-4.3729,-4.405,-4.4475,-4.4335,-4.4082,-4.3833,-4.3953,-4.374,-4.3416,-4.3416,-4.3719,-4.4087,-4.4087,-4.4509,-4.5001,-4.5139,-4.5173,-4.5207,-4.5363,-4.5397,-4.5397,-4.5397,-4.5397,-4.5397,-4.5397,-4.5397,-4.5397,-4.5397,-4.5397,-4.5397,-4.5397,-4.5397,-4.5397,-4.5397,-4.5397,-4.5397,-4.5397,-4.5397,-4.5397,-4.5397,-4.5397,-4.5397,-4.5397,-4.5397,-4.5397,-4.5397,-4.5397,-4.5344,-4.5247,-4.514,-4.5005,-4.4886,-4.4737,-4.4654,-4.4615,-4.4615,-4.4615,0.0,0.0,0.0,0.0,-3.2128,0.0,0.0,0.0,-2.844,-2.6526,0.0,0.0,0.0,0.0,0.0,0.0,0.0,0.0,0.0,0.0,0.0,0.0,0.0,0.0,0.0,0.0,0.0,-4.0378,-3.9231,-3.9417,-4.1609,-4.25,-4.2946,-4.2946,-4.3633,-4.4005,-4.4005,-4.4005,-4.4005,-4.4005,-4.4005,-4.4005,-4.4005,-4.4005,-4.4005,-4.4005,-4.4005,-4.4005,-4.4005,-4.4005,-4.3955,-4.3923,-4.3923,-4.3512,-4.2974,-4.3323,-4.3269,-4.3025,-4.2892,-4.2814,-4.2863,-4.3463,-4.3738,-4.3827,-4.3827,-4.3589,-4.331,-4.331,-4.3396,-4.3603,-4.4259,-4.4432,-4.4578,-4.5225,-4.5397,-4.5397,-4.5397,-4.5397,-4.5397,-4.5397,-4.5397,-4.5397,-4.5397,-4.5397,-4.5397,-4.5397,-4.5397,-4.5397,-4.5397,-4.5397,-4.5397,-4.5397,-4.5397,-4.5397,-4.5397,-4.5397,-4.5397,-4.5397,-4.5397,-4.5397,-4.5397,-4.5397,-4.5397,-4.5371,-4.5371,-4.5274,-4.515,-4.5005,-4.4831,-4.4615,-4.4615,-4.4615,0.0,0.0,0.0,0.0,0.0,0.0,-2.8068,0.0,-2.6656,0.0,0.0,0.0,0.0,0.0,0.0,0.0,0.0,0.0,0.0,0.0,0.0,0.0,0.0,0.0,0.0,0.0,0.0,0.0,0.0,-3.7355,-3.9342,-4.0698,-4.1832,-4.276,-4.3132,-4.3522,-4.4005,-4.4005,-4.4005,-4.4005,-4.4005,-4.4005,-4.4005,-4.4005,-4.4005,-4.4005,-4.4005,-4.4005,-4.4005,-4.4005,-4.4005,-4.4005,-4.4005,-4.3793,-4.3526,-4.3695,-4.3644,-4.3491,-4.3422,-4.3265,-4.3051,-4.2979,-4.3,-4.3031,-4.2928,-4.3072,-4.3207,-4.2963,-4.3223,-4.3569,-4.3644,-4.3655,-4.3741,-4.4044,-4.4113,-4.4234,-4.4665,-4.4751,-4.4889,-4.5311,-4.5397,-4.5397,-4.5397,-4.5397,-4.5397,-4.5397,-4.5397,-4.5397,-4.5397,-4.5397,-4.5397,-4.5397,-4.5397,-4.5397,-4.5397,-4.5397,-4.5397,-4.5397,-4.5397,-4.5397,-4.5397,-4.5397,-4.5397,-4.5397,-4.5327,-4.5247,-4.5203,-4.5059,-4.4923,-4.4831,-4.4682,-4.4615,-3.5216,0.0,0.0,0.0,0.0,0.0,0.0,0.0,0.0,0.0,0.0,0.0,0.0,0.0,-2.7167,-2.6944,0.0,0.0,0.0,0.0,0.0,0.0,0.0,0.0,0.0,0.0,0.0,0.0,0.0,0.0,-3.7429,-3.8915,-4.0457,-4.2092,-4.2575,-4.3076,-4.367,-4.3893,-4.4005,-4.4005,-4.4005,-4.4005,-4.4005,-4.4005,-4.4005,-4.4005,-4.4005,-4.4005,-4.4005,-4.4005,-4.4005,-4.4005,-4.4005,-4.4005,-4.4005,-4.4005,-4.4005,-4.4005,-4.4005,-4.3809,-4.3491,-4.3032,-4.2753,-4.2578,-4.246,-4.2693,-4.2931,-4.2644,-4.2938,-4.3323,-4.3242,-4.3138,-4.311,-4.3318,-4.3272,-4.3345,-4.388,-4.4,-4.4225,-4.4958,-4.5113,-4.5156,-4.5363,-4.5397,-4.5397,-4.5397,-4.5397,-4.5397,-4.5397,-4.5397,-4.5397,-4.5397,-4.5397,-4.5397,-4.5397,-4.5397,-4.5397,-4.5397,-4.5397,-4.5397,-4.5397,-4.5397,-4.5397,-4.5397,-4.53,-4.5247,-4.5247,-4.5113,-4.5059,-4.5059,-4.4776,-4.4654,0.0,0.0,0.0,-3.173,0.0,0.0,0.0,0.0,-2.8802,0.0,0.0,0.0,0.0,-2.8653,-2.7817,-2.7037,-2.6907,0.0,0.0,0.0,0.0,0.0,0.0,0.0,0.0,0.0,0.0,0.0,0.0,0.0,-3.6495,-3.7522,-3.8748,-4.042,-4.198,-4.2816,-4.2835,-4.3615,-4.4005,-4.4005,-4.4005,-4.4005,-4.4005,-4.4005,-4.4005,-4.4005,-4.4005,-4.4005,-4.4005,-4.4005,-4.4005,-4.4005,-4.4005,-4.4005,-4.4005,-4.4005,-4.4005,-4.4005,-4.4005,-4.3989,-4.3974,-4.3881,-4.3493,-4.3069,-4.2996,-4.2635,-4.2213,-4.2231,-4.2231,-4.2406,-4.3095,-4.3019,-4.291,-4.3606,-4.3482,-4.3207,-4.3224,-4.3241,-4.3448,-4.419,-4.4345,-4.4544,-4.5276,-4.5397,-4.5397,-4.5397,-4.5397,-4.5397,-4.5397,-4.5397,-4.5397,-4.5397,-4.5397,-4.5397,-4.5397,-4.5397,-4.5397,-4.5397,-4.5397,-4.5397,-4.5397,-4.5397,-4.5397,-4.5397,-4.5397,-4.5397,-4.5397,-4.5274,-4.5177,-4.5194,-4.4913,-4.4776,0.0,0.0,-3.7152,-3.3381,0.0,0.0,0.0,0.0,0.0,0.0,0.0,0.0,0.0,-2.83,-2.7836,-2.7037,-2.6442,-2.5726,0.0,0.0,0.0,0.0,0.0,0.0,0.0,0.0,0.0,0.0,0.0,0.0,0.0,-3.6073,-3.7838,-3.9491,-4.0624,-4.146,-4.1999,-4.2797,-4.3206,-4.3206,-4.3745,-4.4005,-4.4005,-4.4005,-4.4005,-4.4005,-4.4005,-4.4005,-4.4005,-4.4005,-4.4005,-4.4005,-4.4005,-4.4005,-4.4005,-4.4005,-4.4005,-4.4005,-4.4005,-4.3958,-4.3929,-4.3897,-4.3751,-4.3565,-4.3531,-4.3339,-4.3069,-4.2809,-4.2693,-4.2649,-4.2581,-4.2483,-4.2427,-4.2676,-4.2656,-4.2599,-4.2801,-4.2852,-4.3025,-4.3489,-4.3569,-4.381,-4.4527,-4.4665,-4.4837,-4.5328,-4.5397,-4.5397,-4.5397,-4.5397,-4.5397,-4.5397,-4.5397,-4.5397,-4.5397,-4.5397,-4.5397,-4.5397,-4.5397,-4.5397,-4.5397,-4.5397,-4.5397,-4.5397,-4.5397,-4.5397,-4.5397,-4.5371,-4.5327,-4.5327,-4.4643,-4.4544,-3.8106,-3.8366,0.0,-3.4775,-3.3526,0.0,-2.868,0.0,0.0,0.0,0.0,0.0,0.0,-2.9133,-2.8021,-2.7817,-2.6609,-2.5429,0.0,-2.45,0.0,0.0,0.0,0.0,0.0,0.0,-2.6498,-2.7594,0.0,0.0,0.0,0.0,-3.6686,-3.8599,-3.9788,-4.0657,-4.1163,-4.1962,-4.2519,-4.2816,-4.3336,-4.3726,-4.4005,-4.4005,-4.4005,-4.4005,-4.4005,-4.4005,-4.4005,-4.4005,-4.4005,-4.4005,-4.4005,-4.4005,-4.4005,-4.4005,-4.4005,-4.4005,-4.4005,-4.3974,-4.3929,-4.3897,-4.3867,-4.3837,-4.3804,-4.3736,-4.3617,-4.3303,-4.3178,-4.3087,-4.2751,-4.2557,-4.2438,-4.2438,-4.2318,-4.2258,-4.2471,-4.2378,-4.2421,-4.2919,-4.2898,-4.3017,-4.3776,-4.3914,-4.4259,-4.5242,-4.5397,-4.5397,-4.5397,-4.5397,-4.5397,-4.5397,-4.5156,-4.4906,-4.4647,-4.463,-4.463,-4.463,-4.4872,-4.501,-4.501,-4.5259,-4.5397,-4.5397,-4.5397,-4.5397,-4.5397,-4.5397,-4.5397,-4.538,-4.4552,-4.4388]},{"header":{"parameterUnit":"m.s-1","parameterCategory":1,"la1":30.6,"la2":29.2853,"lo1":-89.7004,"lo2":-87.6739,"dy":0.0162,"dx":0.0183,"nx":112,"ny":82,"refTime":"2024-06-20T06:00:00:Z","depth":0,"parameterNumber":3,"parameterNumberName":"V-component_of_WINDS"},"data":[0.0,0.0,0.0,0.0,0.0,0.0,0.0,0.0,0.0,0.0,0.0,0.0,0.0,0.0,0.0,0.0,0.0,0.0,0.0,0.0,0.0,0.0,0.0,0.0,0.0,0.0,0.0,0.0,0.0,0.0,0.0,0.0,0.0,0.0,0.0,0.0,0.0,0.0,0.0,0.0,0.0,0.0,0.0,0.0,0.0,0.0,0.0,0.0,0.0,0.0,0.0,0.0,0.0,0.0,0.0,0.0,0.0,0.0,0.0,0.0,0.0,0.0,0.0,0.0,0.0,0.0,0.0,0.0,0.0,0.0,0.0,0.0,0.0,0.0,0.0,0.0,0.0,0.0,0.0,0.0,0.0,0.0,0.0,0.0,0.0,0.0,0.0,0.0,0.0,0.0,-2.4914,-2.7777,-3.023,-3.1681,-3.1585,-3.0579,-2.8859,-2.6262,0.0,0.0,0.0,0.0,0.0,0.0,0.0,0.0,0.0,0.0,0.0,0.0,0.0,0.0,0.0,0.0,0.0,0.0,0.0,0.0,0.0,0.0,0.0,0.0,0.0,0.0,0.0,0.0,0.0,0.0,0.0,0.0,0.0,0.0,0.0,0.0,0.0,0.0,0.0,0.0,0.0,0.0,0.0,0.0,0.0,0.0,0.0,0.0,0.0,0.0,0.0,0.0,0.0,0.0,0.0,0.0,0.0,0.0,0.0,0.0,0.0,0.0,0.0,0.0,0.0,0.0,0.0,0.0,0.0,0.0,0.0,0.0,0.0,0.0,0.0,0.0,0.0,0.0,0.0,0.0,0.0,0.0,0.0,0.0,0.0,0.0,0.0,0.0,0.0,0.0,0.0,0.0,0.0,0.0,0.0,0.0,0.0,0.0,0.0,0.0,0.0,0.0,0.0,0.0,-2.5335,-2.9304,-3.0891,-3.1524,-3.1079,-3.0025,-2.8474,-2.6238,0.0,0.0,0.0,0.0,0.0,0.0,0.0,0.0,0.0,0.0,0.0,0.0,0.0,0.0,0.0,0.0,0.0,0.0,0.0,0.0,0.0,0.0,0.0,0.0,0.0,0.0,0.0,0.0,0.0,0.0,0.0,0.0,0.0,0.0,0.0,0.0,0.0,0.0,0.0,0.0,0.0,0.0,0.0,0.0,0.0,0.0,0.0,0.0,0.0,0.0,0.0,0.0,0.0,0.0,0.0,0.0,0.0,0.0,0.0,0.0,0.0,0.0,0.0,0.0,0.0,0.0,0.0,0.0,0.0,0.0,0.0,0.0,0.0,0.0,0.0,0.0,0.0,0.0,0.0,0.0,0.0,0.0,0.0,0.0,0.0,0.0,0.0,0.0,0.0,0.0,0.0,0.0,0.0,0.0,0.0,0.0,0.0,0.0,0.0,0.0,0.0,0.0,0.0,-2.4362,-2.6671,-2.9761,-3.1079,-3.1488,-3.097,-2.9641,-2.7996,-2.5889,-2.3763,0.0,0.0,0.0,0.0,0.0,0.0,0.0,0.0,0.0,0.0,0.0,0.0,0.0,0.0,0.0,0.0,0.0,0.0,0.0,0.0,0.0,0.0,0.0,0.0,0.0,0.0,0.0,0.0,0.0,0.0,0.0,0.0,0.0,0.0,0.0,0.0,0.0,0.0,0.0,0.0,0.0,0.0,0.0,0.0,0.0,0.0,0.0,0.0,0.0,0.0,0.0,0.0,0.0,0.0,0.0,0.0,0.0,0.0,0.0,0.0,0.0,0.0,0.0,0.0,0.0,0.0,0.0,0.0,0.0,0.0,0.0,0.0,0.0,0.0,0.0,0.0,0.0,0.0,0.0,0.0,0.0,0.0,0.0,0.0,0.0,0.0,0.0,0.0,0.0,0.0,0.0,0.0,0.0,0.0,0.0,0.0,0.0,0.0,0.0,0.0,0.0,0.0,-2.6322,-2.7978,-2.9893,-3.1079,-3.144,-3.079,-2.9232,-2.7454,-2.5464,-2.2735,0.0,0.0,0.0,0.0,0.0,0.0,0.0,0.0,0.0,0.0,0.0,0.0,0.0,0.0,0.0,0.0,0.0,0.0,0.0,0.0,0.0,0.0,0.0,0.0,0.0,0.0,0.0,0.0,0.0,0.0,0.0,0.0,0.0,0.0,0.0,0.0,0.0,0.0,0.0,0.0,0.0,0.0,0.0,0.0,0.0,0.0,0.0,0.0,0.0,0.0,0.0,0.0,0.0,0.0,0.0,0.0,0.0,0.0,0.0,0.0,0.0,0.0,0.0,0.0,0.0,0.0,0.0,0.0,0.0,0.0,0.0,0.0,0.0,0.0,0.0,0.0,0.0,0.0,0.0,0.0,0.0,0.0,0.0,0.0,0.0,0.0,0.0,0.0,0.0,0.0,0.0,0.0,0.0,0.0,0.0,0.0,0.0,0.0,0.0,0.0,0.0,0.0,-2.6526,-2.8835,-2.9965,-3.1079,-3.1296,-3.023,-2.8691,-2.6938,-2.4964,-2.1867,0.0,0.0,0.0,0.0,0.0,0.0,0.0,0.0,0.0,0.0,0.0,0.0,0.0,0.0,0.0,0.0,0.0,0.0,0.0,0.0,0.0,0.0,0.0,0.0,0.0,0.0,0.0,0.0,0.0,0.0,0.0,0.0,0.0,0.0,0.0,0.0,0.0,0.0,0.0,0.0,0.0,0.0,0.0,0.0,0.0,0.0,0.0,0.0,0.0,0.0,0.0,0.0,0.0,0.0,0.0,0.0,0.0,0.0,0.0,0.0,0.0,0.0,0.0,0.0,0.0,0.0,0.0,0.0,0.0,0.0,0.0,0.0,0.0,0.0,0.0,0.0,0.0,0.0,0.0,0.0,0.0,0.0,0.0,0.0,0.0,0.0,0.0,0.0,0.0,0.0,0.0,0.0,0.0,0.0,0.0,0.0,0.0,0.0,0.0,0.0,0.0,0.0,-2.5732,-2.7669,0.0,-3.0242,-3.0386,-2.9653,-2.845,-2.6745,-2.4554,0.0,0.0,0.0,0.0,0.0,0.0,0.0,0.0,0.0,0.0,0.0,0.0,0.0,0.0,0.0,0.0,0.0,0.0,0.0,0.0,0.0,0.0,0.0,0.0,0.0,0.0,0.0,0.0,0.0,0.0,0.0,0.0,0.0,0.0,0.0,0.0,0.0,0.0,0.0,0.0,0.0,0.0,0.0,0.0,0.0,0.0,0.0,0.0,0.0,0.0,0.0,0.0,0.0,0.0,0.0,0.0,0.0,0.0,0.0,0.0,0.0,0.0,0.0,0.0,0.0,0.0,0.0,0.0,0.0,0.0,0.0,0.0,0.0,0.0,0.0,0.0,0.0,0.0,0.0,0.0,0.0,0.0,0.0,0.0,0.0,0.0,0.0,0.0,0.0,0.0,0.0,0.0,0.0,0.0,0.0,0.0,0.0,0.0,0.0,0.0,0.0,0.0,-2.3616,-2.5526,-2.7308,0.0,-2.9773,-2.9869,-2.9352,-2.8005,-2.6263,-2.4038,0.0,0.0,0.0,0.0,0.0,0.0,0.0,0.0,0.0,0.0,0.0,0.0,0.0,0.0,0.0,0.0,0.0,0.0,0.0,0.0,0.0,0.0,0.0,0.0,0.0,0.0,0.0,0.0,0.0,0.0,0.0,0.0,0.0,0.0,0.0,0.0,0.0,0.0,0.0,0.0,0.0,0.0,0.0,0.0,0.0,0.0,0.0,0.0,0.0,0.0,0.0,0.0,0.0,0.0,0.0,0.0,0.0,0.0,0.0,0.0,0.0,0.0,0.0,0.0,0.0,0.0,0.0,0.0,0.0,0.0,0.0,0.0,0.0,0.0,0.0,0.0,0.0,0.0,0.0,0.0,0.0,0.0,0.0,0.0,0.0,0.0,0.0,0.0,0.0,0.0,0.0,0.0,0.0,0.0,0.0,0.0,0.0,0.0,0.0,0.0,0.0,0.0,-2.3733,-2.6142,-2.8114,-2.9184,-2.9761,-2.9857,-2.9328,-2.7332,-2.5309,0.0,0.0,0.0,0.0,0.0,0.0,0.0,0.0,0.0,0.0,0.0,0.0,0.0,0.0,0.0,0.0,0.0,0.0,0.0,0.0,0.0,0.0,0.0,0.0,0.0,0.0,0.0,0.0,0.0,0.0,0.0,0.0,0.0,0.0,0.0,0.0,0.0,0.0,0.0,0.0,0.0,0.0,0.0,0.0,0.0,0.0,0.0,0.0,0.0,0.0,0.0,0.0,0.0,0.0,0.0,0.0,0.0,0.0,0.0,0.0,0.0,0.0,0.0,0.0,0.0,0.0,0.0,0.0,0.0,0.0,0.0,0.0,0.0,0.0,0.0,0.0,0.0,0.0,0.0,0.0,0.0,0.0,0.0,0.0,0.0,0.0,0.0,0.0,0.0,0.0,0.0,0.0,0.0,0.0,0.0,0.0,0.0,0.0,0.0,0.0,0.0,0.0,0.0,-2.3855,-2.59,-2.7534,-2.8631,-2.8883,-2.8988,-2.8939,-2.7682,-2.5921,-2.3719,0.0,0.0,0.0,0.0,0.0,0.0,0.0,0.0,0.0,0.0,0.0,0.0,0.0,0.0,0.0,0.0,0.0,0.0,0.0,0.0,0.0,0.0,0.0,0.0,0.0,0.0,0.0,0.0,0.0,0.0,0.0,0.0,0.0,0.0,0.0,0.0,0.0,0.0,0.0,0.0,0.0,0.0,0.0,0.0,0.0,0.0,0.0,0.0,0.0,0.0,0.0,0.0,0.0,0.0,0.0,0.0,0.0,0.0,0.0,0.0,0.0,0.0,0.0,0.0,0.0,0.0,0.0,0.0,0.0,0.0,0.0,0.0,0.0,0.0,0.0,0.0,0.0,0.0,0.0,0.0,0.0,0.0,0.0,0.0,0.0,0.0,0.0,0.0,0.0,0.0,0.0,0.0,0.0,0.0,0.0,0.0,0.0,0.0,0.0,0.0,0.0,0.0,-2.3847,-2.6008,-2.7676,-2.8533,-2.8618,-2.8697,-2.8882,-2.7857,-2.621,-2.3839,0.0,0.0,0.0,0.0,0.0,0.0,0.0,0.0,0.0,0.0,0.0,0.0,0.0,0.0,0.0,0.0,0.0,0.0,0.0,0.0,0.0,0.0,0.0,0.0,0.0,0.0,0.0,0.0,0.0,0.0,0.0,0.0,0.0,0.0,0.0,0.0,0.0,0.0,0.0,0.0,0.0,0.0,0.0,0.0,0.0,0.0,0.0,0.0,0.0,0.0,0.0,0.0,0.0,0.0,0.0,0.0,0.0,0.0,0.0,0.0,0.0,0.0,0.0,0.0,0.0,0.0,0.0,0.0,0.0,0.0,0.0,0.0,0.0,0.0,0.0,0.0,0.0,0.0,0.0,0.0,0.0,0.0,0.0,0.0,0.0,0.0,0.0,0.0,0.0,0.0,0.0,0.0,0.0,0.0,0.0,0.0,0.0,0.0,0.0,0.0,0.0,0.0,-2.3806,-2.6311,-2.8169,-2.8703,-2.8803,-2.8882,-2.9091,-2.802,-2.6332,-2.4007,0.0,0.0,0.0,0.0,0.0,0.0,0.0,0.0,0.0,0.0,0.0,0.0,0.0,0.0,0.0,0.0,0.0,0.0,0.0,0.0,0.0,0.0,0.0,0.0,0.0,0.0,0.0,0.0,0.0,0.0,0.0,0.0,0.0,0.0,0.0,0.0,0.0,0.0,0.0,0.0,0.0,0.0,0.0,0.0,0.0,0.0,0.0,0.0,0.0,0.0,0.0,0.0,0.0,0.0,0.0,0.0,0.0,0.0,0.0,0.0,-1.6982,0.0,0.0,0.0,0.0,0.0,0.0,0.0,0.0,0.0,0.0,0.0,0.0,0.0,0.0,0.0,0.0,0.0,0.0,0.0,0.0,0.0,0.0,0.0,0.0,0.0,0.0,0.0,0.0,0.0,0.0,0.0,0.0,0.0,0.0,0.0,0.0,0.0,0.0,0.0,0.0,0.0,-2.3928,-2.6263,-2.796,-2.853,-2.8724,-2.8882,-2.9091,-2.8593,-2.7407,-2.5331,-2.3228,0.0,0.0,0.0,0.0,0.0,0.0,0.0,0.0,0.0,0.0,0.0,0.0,0.0,0.0,0.0,0.0,0.0,0.0,0.0,0.0,0.0,0.0,0.0,0.0,0.0,0.0,0.0,0.0,0.0,0.0,0.0,0.0,0.0,0.0,0.0,0.0,0.0,0.0,0.0,0.0,0.0,0.0,0.0,0.0,0.0,0.0,0.0,0.0,0.0,0.0,0.0,0.0,0.0,0.0,0.0,0.0,0.0,0.0,0.0,0.0,-1.799,0.0,0.0,0.0,0.0,0.0,0.0,0.0,0.0,0.0,0.0,0.0,0.0,0.0,0.0,0.0,0.0,0.0,0.0,0.0,0.0,0.0,0.0,0.0,0.0,0.0,0.0,0.0,0.0,0.0,0.0,0.0,0.0,0.0,0.0,0.0,0.0,0.0,0.0,0.0,0.0,-2.4406,-2.6822,-2.8512,-2.8897,-2.904,-2.9197,-2.9417,-2.8934,-2.7865,-2.6138,-2.4443,0.0,0.0,0.0,0.0,0.0,0.0,0.0,0.0,0.0,0.0,0.0,0.0,0.0,0.0,0.0,0.0,0.0,0.0,0.0,0.0,0.0,0.0,0.0,0.0,0.0,0.0,0.0,0.0,0.0,0.0,0.0,0.0,0.0,0.0,0.0,0.0,0.0,0.0,0.0,0.0,0.0,0.0,0.0,0.0,0.0,0.0,0.0,0.0,0.0,0.0,0.0,0.0,0.0,0.0,-2.2602,-2.3123,-2.3197,-2.3187,-2.2986,-2.0677,-1.9925,-2.0214,0.0,0.0,0.0,0.0,0.0,0.0,0.0,0.0,0.0,0.0,0.0,0.0,0.0,0.0,0.0,0.0,0.0,0.0,0.0,0.0,0.0,0.0,0.0,0.0,0.0,-2.5456,-2.5492,0.0,0.0,0.0,0.0,0.0,0.0,0.0,0.0,0.0,0.0,0.0,0.0,-2.505,-2.7483,-2.917,-2.9341,-2.938,-2.947,-2.9702,-2.9149,-2.825,-2.7014,-2.5774,-2.4029,0.0,0.0,0.0,0.0,0.0,0.0,0.0,0.0,0.0,0.0,0.0,0.0,0.0,0.0,0.0,0.0,0.0,0.0,0.0,0.0,0.0,0.0,0.0,0.0,0.0,0.0,0.0,0.0,0.0,0.0,0.0,0.0,-1.2173,-1.3002,0.0,0.0,0.0,0.0,0.0,0.0,0.0,0.0,0.0,0.0,0.0,0.0,0.0,0.0,-2.2346,-2.3198,-2.3464,-2.3187,-2.4354,-2.4574,-2.4055,-2.4372,-2.4345,-2.4027,-2.365,0.0,-2.187,-2.0662,0.0,0.0,0.0,0.0,0.0,0.0,0.0,0.0,0.0,0.0,0.0,0.0,0.0,0.0,0.0,0.0,0.0,0.0,0.0,0.0,0.0,0.0,-2.857,-2.857,-2.9027,-2.9112,0.0,-2.5095,-2.263,-2.1825,0.0,0.0,0.0,0.0,0.0,0.0,0.0,0.0,-2.5652,-2.7717,-2.9091,-2.9131,-2.9314,-2.9419,-2.947,-2.9588,-2.9339,-2.8612,-2.7118,-2.5883,-2.4983,-2.215,0.0,0.0,0.0,0.0,0.0,0.0,0.0,0.0,0.0,0.0,0.0,0.0,0.0,0.0,0.0,0.0,0.0,0.0,0.0,0.0,0.0,0.0,0.0,0.0,0.0,0.0,0.0,0.0,0.0,-1.2617,-1.42,-1.495,-1.5312,-1.5346,0.0,0.0,0.0,0.0,0.0,0.0,0.0,0.0,0.0,-2.1998,-2.2565,-2.3189,-2.3978,-2.4766,-2.5197,-2.5262,-2.6023,-2.637,-2.6241,-2.6434,-2.6296,-2.5892,-2.5672,-2.5078,-2.4235,-2.2529,-2.1738,-2.1441,0.0,0.0,0.0,0.0,0.0,-2.1201,-2.179,0.0,0.0,0.0,0.0,0.0,0.0,0.0,0.0,0.0,0.0,0.0,0.0,0.0,0.0,-2.9677,-2.9917,-2.9965,-2.9496,-2.8126,-2.6382,0.0,-2.4001,-2.3328,-2.1079,0.0,0.0,0.0,0.0,-2.5418,-2.6636,-2.8134,-2.9131,-2.9275,-2.9482,-2.9611,-2.9611,-2.974,-2.9415,-2.8524,-2.7783,-2.6854,-2.5649,-2.3929,-2.2334,0.0,0.0,0.0,0.0,0.0,0.0,0.0,0.0,0.0,0.0,0.0,0.0,0.0,0.0,0.0,0.0,0.0,0.0,0.0,0.0,0.0,0.0,0.0,0.0,0.0,0.0,0.0,0.0,-1.474,-1.6036,-1.665,-1.7248,-1.7415,0.0,0.0,0.0,0.0,0.0,0.0,-2.1177,-2.1762,-2.267,-2.4026,-2.4556,-2.5074,-2.5537,-2.6177,-2.6636,-2.6894,-2.7187,-2.7537,-2.7822,-2.7822,-2.7666,-2.7372,-2.7013,-2.6765,-2.6315,-2.4253,-2.3292,-2.3084,-2.2453,-2.2211,-2.2364,-2.3083,-2.3291,-2.3334,-2.4322,-2.4495,-2.4222,-2.3687,0.0,-2.2574,-2.1877,0.0,0.0,0.0,0.0,-2.726,-2.8739,0.0,-2.9833,-3.0362,-3.0494,-3.0446,-3.0314,-3.029,-2.946,0.0,-2.6442,-2.5841,-2.3075,0.0,0.0,0.0,0.0,-2.6432,-2.7569,-2.8579,-2.9275,-2.947,-2.9702,-2.9792,-2.9792,-2.9792,-2.9365,-2.8386,-2.8185,-2.7482,-2.6088,-2.5372,-2.423,-2.2548,0.0,0.0,0.0,0.0,0.0,0.0,0.0,0.0,0.0,0.0,0.0,0.0,0.0,0.0,0.0,0.0,0.0,0.0,0.0,0.0,0.0,0.0,0.0,0.0,0.0,0.0,0.0,0.0,0.0,-1.7863,-1.8888,0.0,0.0,0.0,0.0,-2.0018,-2.0916,-2.1851,-2.2747,-2.3608,-2.4482,-2.5475,-2.6135,-2.6839,-2.7666,-2.7711,-2.7739,-2.7767,-2.7785,-2.7803,-2.7822,-2.7822,-2.7813,-2.7794,-2.7776,-2.7748,-2.7574,-2.5518,-2.4675,-2.467,-2.4409,-2.437,-2.4401,-2.4692,-2.4945,-2.5189,-2.5334,-2.5441,-2.5586,-2.5566,-2.5133,-2.4759,-2.5251,-2.5669,0.0,0.0,-2.8687,-2.9388,-3.047,-3.0814,-3.0927,-3.15,-3.1633,-3.1488,-3.0995,-3.0874,-3.0338,0.0,-2.8366,-2.7849,-2.6154,0.0,-2.6154,-2.5937,-2.6761,-2.7606,-2.8171,-2.8917,-2.947,-2.974,-2.9792,-2.9792,-2.9792,-2.9792,-2.9528,-2.8888,-2.8398,-2.7833,-2.7218,-2.6138,-2.4782,-2.3095,-2.175,0.0,0.0,0.0,0.0,0.0,0.0,0.0,0.0,0.0,0.0,0.0,0.0,0.0,0.0,0.0,0.0,0.0,0.0,0.0,0.0,0.0,0.0,0.0,0.0,0.0,0.0,0.0,0.0,-1.9384,-2.0275,0.0,-2.0249,-2.0805,-2.1341,-2.1717,-2.2691,-2.3672,-2.4659,-2.545,-2.6245,-2.6984,-2.727,-2.7537,-2.7822,-2.8031,-2.8168,-2.8177,-2.8425,-2.8544,-2.8544,-2.8544,-2.8407,-2.8168,-2.8168,-2.8012,-2.7767,-2.705,-2.6453,-2.5876,-2.5301,-2.5187,-2.5391,-2.5635,-2.5888,-2.6141,-2.6342,-2.6452,-2.6464,-2.624,-2.579,-2.5505,-2.6118,-2.6734,-2.7552,-2.8777,-2.9711,-3.0482,-3.1247,-3.1428,-3.1476,-3.1657,-3.1705,-3.1657,-3.1476,-3.1428,-3.1151,-3.0206,-2.9761,-2.9015,-2.7416,-2.7755,-2.7891,-2.6791,-2.7495,-2.8213,-2.8394,-2.876,-2.9118,-2.9339,-2.9495,-2.9599,-2.9792,-2.9453,-2.885,-2.7921,-2.7392,-2.664,-2.5737,-2.531,-2.4657,-2.3715,-2.2501,-2.1066,0.0,0.0,0.0,0.0,0.0,0.0,0.0,0.0,0.0,0.0,0.0,0.0,0.0,0.0,0.0,0.0,0.0,0.0,0.0,0.0,0.0,0.0,0.0,0.0,0.0,0.0,-1.9641,-2.0403,-2.1482,-2.2073,-2.1816,-2.2372,-2.2954,-2.3427,-2.4367,-2.5286,-2.6218,-2.6832,-2.7384,-2.7967,-2.7976,-2.8097,-2.8168,-2.8452,-2.859,-2.8599,-2.8856,-2.8984,-2.8984,-2.8984,-2.8838,-2.859,-2.859,-2.8434,-2.8168,-2.8031,-2.7673,-2.7132,-2.6444,-2.6256,-2.6296,-2.6552,-2.6774,-2.6912,-2.7286,-2.7353,-2.7187,-2.6914,-2.6764,-2.682,-2.7541,-2.847,-2.9441,-3.0509,-3.1217,-3.1733,-3.1901,-3.1994,-3.1901,-3.1753,-3.1705,-3.1705,-3.1705,-3.1705,-3.1609,-3.1247,-3.0766,-2.9965,-2.8727,-2.8955,-2.8943,-2.7885,-2.8174,-2.851,-2.8578,-2.8724,-2.8882,-2.9091,-2.9275,-2.947,-2.965,-2.9176,-2.8536,-2.762,-2.7077,-2.6273,-2.5134,-2.4888,-2.4556,-2.4004,-2.2887,-2.1814,-2.0809,0.0,0.0,0.0,0.0,0.0,0.0,0.0,0.0,0.0,0.0,0.0,0.0,0.0,0.0,0.0,0.0,0.0,0.0,0.0,0.0,0.0,0.0,0.0,-1.8017,-1.9727,-2.0925,-2.096,-2.2628,-2.3461,-2.2748,-2.3622,-2.4528,-2.5174,-2.5901,-2.6629,-2.726,-2.763,-2.7994,-2.8397,-2.8416,-2.8599,-2.8975,-2.8984,-2.8984,-2.8984,-2.8984,-2.8984,-2.8984,-2.8984,-2.8984,-2.8984,-2.8984,-2.8984,-2.8948,-2.8572,-2.8416,-2.837,-2.793,-2.7583,-2.7252,-2.753,-2.7546,-2.7558,-2.8077,-2.8027,-2.7738,-2.7738,-2.8094,-2.8757,-2.9823,-3.0905,-3.198,-3.2993,-3.3284,-3.3176,-3.2659,-3.2515,-3.237,-3.1862,-3.1717,-3.1705,-3.1705,-3.1705,-3.1705,-3.1705,-3.1296,-3.0735,-3.0206,-2.9689,-2.934,-2.9304,-2.8871,0.0,-2.8764,-2.8803,-2.8882,-2.9091,-2.9275,-2.938,-2.9419,-2.9062,-2.8662,-2.8109,-2.7532,-2.6728,-2.5636,-2.5096,-2.4569,-2.4054,-2.2924,-2.2258,-2.206,0.0,0.0,0.0,0.0,0.0,0.0,0.0,0.0,0.0,0.0,0.0,0.0,0.0,0.0,0.0,0.0,0.0,0.0,0.0,0.0,0.0,-1.8389,-1.9547,-1.9658,-2.084,-2.1987,-2.2851,-2.3597,-2.4213,-2.461,-2.4872,-2.5319,-2.6031,-2.677,-2.7334,-2.7732,-2.8314,-2.87,-2.8819,-2.8819,-2.8874,-2.8984,-2.8984,-2.8984,-2.8984,-2.8984,-2.8984,-2.8984,-2.8984,-2.8984,-2.8984,-2.8984,-2.8984,-2.8975,-2.8865,-2.8819,-2.8746,-2.8097,-2.7757,-2.7713,-2.8221,-2.8458,-2.8484,-2.8345,-2.8223,-2.8125,-2.8125,-2.8239,-2.8637,-3.0177,-3.0817,-3.139,-3.29,-3.3284,-3.326,-3.3104,-3.2791,-3.2466,-3.231,-3.1961,-3.1705,-3.1705,-3.1705,-3.1705,-3.1705,-3.1585,-3.132,-3.0747,-3.0585,-3.0182,-2.9412,0.0,0.0,-2.8638,-2.8578,-2.8697,-2.9052,-2.917,-2.9326,-2.9663,-2.885,-2.8097,-2.7544,-2.6239,-2.5523,-2.5598,-2.5096,-2.4888,-2.5159,-2.3971,-2.3354,0.0,0.0,0.0,0.0,0.0,0.0,0.0,0.0,0.0,0.0,0.0,0.0,0.0,0.0,0.0,0.0,0.0,0.0,0.0,0.0,0.0,0.0,-1.9872,-2.1174,-2.1653,-2.2278,-2.2997,-2.3811,-2.4384,-2.4881,-2.5326,-2.5515,-2.582,-2.6423,-2.695,-2.7505,-2.7911,-2.85,-2.8865,-2.8984,-2.8984,-2.8984,-2.8984,-2.8984,-2.8984,-2.8984,-2.8984,-2.8984,-2.8984,-2.8984,-2.8984,0.0,-2.8984,-2.8984,-2.8984,-2.8984,-2.8984,0.0,0.0,0.0,0.0,0.0,-2.8735,-2.879,-2.8593,-2.8555,-2.8525,-2.835,-2.8601,-2.9167,-3.0126,-3.1059,-3.2004,-3.2976,-3.3589,-3.3885,-3.3657,-3.338,-3.3032,-3.2599,-3.225,-3.1949,-3.1765,-3.1705,-3.1705,-3.1705,0.0,0.0,-3.1308,-3.1067,-3.0675,-3.005,-2.9581,-2.9184,0.0,-2.8643,-2.859,-2.8816,-2.9013,-2.9209,-2.9468,-2.885,0.0,0.0,0.0,-2.6013,-2.5611,-2.531,0.0,0.0,0.0,0.0,0.0,0.0,0.0,0.0,-2.6849,-2.7521,0.0,0.0,0.0,0.0,0.0,0.0,0.0,0.0,0.0,0.0,0.0,0.0,0.0,0.0,0.0,0.0,-2.1234,-2.2561,-2.3614,-2.3785,-2.3922,-2.4202,-2.4932,-2.5386,-2.5429,-2.578,-2.6148,-2.6584,-2.6915,-2.7368,-2.8002,0.0,0.0,0.0,0.0,-2.8984,-2.8984,-2.8984,-2.8984,-2.8984,-2.8984,-2.8984,-2.8984,-2.8984,-2.8984,-2.8984,-2.8984,-2.8984,-2.8984,-2.8984,-2.8984,-2.8984,-2.8984,-2.8832,-2.8523,-2.8728,-2.8795,0.0,0.0,0.0,0.0,-2.8486,-2.8993,-2.9765,-3.0026,-3.1462,-3.3051,-3.33,-3.4066,-3.4667,-3.4198,-3.4042,-3.3766,-3.2887,-3.2587,-3.237,-3.191,-3.1753,-3.1705,-3.1705,-3.1705,-3.1705,-3.1705,-3.132,-3.0995,-3.0922,-3.0025,0.0,-2.9304,-2.8835,-2.851,-2.855,0.0,0.0,-2.9131,-2.8985,-2.8888,-2.8888,-2.8461,-2.7507,-2.595,-2.5937,-2.5975,-2.5975,-2.6449,-2.7165,-2.8109,-2.8739,-2.9535,-3.0351,-2.8177,-2.8477,0.0,0.0,0.0,0.0,0.0,0.0,0.0,0.0,0.0,0.0,0.0,0.0,0.0,0.0,0.0,-2.1362,-2.2578,-2.3554,-2.4005,-2.4393,-2.4624,-2.4701,-2.5104,-2.5489,-2.5797,-2.6165,-2.6652,-2.7262,-2.7605,-2.8009,-2.8397,-2.8746,0.0,-2.8984,-2.8984,-2.8984,-2.8984,-2.8984,-2.8984,-2.8984,0.0,0.0,-2.8984,-2.8984,-2.8984,-2.8984,-2.8984,-2.8984,-2.8984,-2.8984,-2.8984,-2.8984,-2.8984,-2.9107,-2.9282,-2.9229,-2.9365,-2.9584,-2.9488,-2.9219,-2.8906,-2.8818,-2.8726,-2.8963,-3.0753,-3.1575,0.0,-3.4017,-3.4628,-3.4763,-3.4655,-3.4306,-3.3934,-3.3742,-3.3104,-3.2466,-3.237,-3.203,-3.1705,-3.1705,-3.1705,-3.1705,-3.1705,-3.1621,-3.1404,-3.0983,-3.0338,-2.9785,-2.9352,-2.8835,-2.8538,-2.8724,-2.8973,-2.917,-2.9341,-2.9087,-2.8888,-2.8888,-2.8787,-2.8423,-2.7657,-2.8047,-2.8248,-2.8248,-2.7959,-2.7896,-2.8109,-2.8647,-2.9684,-3.1107,-3.0613,-3.1304,0.0,0.0,0.0,0.0,0.0,0.0,0.0,0.0,0.0,0.0,0.0,-1.8451,-1.9761,0.0,-2.1516,-2.2663,-2.3477,-2.4102,-2.447,-2.4701,-2.4889,-2.5078,-2.5429,-2.5797,-2.6174,-2.6559,-2.6919,-2.728,-2.759,-2.7891,-2.8208,-2.8567,-2.8806,-2.8984,-2.8984,-2.8984,-2.8984,-2.8984,-2.8984,-2.8984,-2.8984,-2.8984,-2.8984,-2.8984,-2.8984,-2.8984,-2.8984,-2.8984,-2.8984,-2.8984,-2.8984,-2.8984,-2.8984,-2.9213,-2.9481,-2.9578,-2.9793,-3.0074,-2.9925,-2.9746,-2.9492,-2.9062,-2.8779,-2.8878,-3.0308,-3.1165,-3.1931,-3.356,-3.4372,-3.4775,-3.4775,-3.4583,-3.4318,-3.4054,-3.3598,-3.32,-3.2947,-3.2466,-3.2082,-3.2082,-3.1898,-3.1705,-3.1705,-3.1705,-3.1621,-3.1356,-3.0819,-3.029,-2.9761,-2.9232,-2.8867,-2.8788,-2.8961,-2.9157,-2.938,-2.9388,-2.9365,-2.9365,-2.9365,-2.9101,-2.8499,-2.875,-2.8888,-2.8888,-2.8624,-2.8662,-2.895,-2.9227,-2.9957,-3.1122,-3.1101,-3.2125,0.0,0.0,0.0,0.0,0.0,0.0,0.0,-1.6841,-1.7312,-1.8819,-1.9384,-2.0018,-2.1379,-2.1944,-2.2561,-2.3631,-2.411,-2.4407,-2.4778,-2.4821,-2.4958,-2.5326,-2.5703,-2.6054,-2.6354,-2.6799,-2.7073,-2.7073,-2.7418,-2.7702,-2.796,-2.8397,-2.8696,-2.8984,-2.8984,-2.8984,-2.8984,-2.8984,-2.8984,-2.8984,-2.8984,-2.8984,-2.8984,-2.8984,-2.8984,-2.8984,-2.8984,-2.8984,-2.8984,-2.8984,-2.8984,-2.8984,-2.8984,-2.9213,-2.9509,-2.9745,-2.9981,-3.0217,-3.0219,-3.0216,-3.0031,-2.9339,-2.9053,-2.9065,-2.9811,-3.0776,-3.183,-3.2901,-3.3967,-3.4775,-3.4775,-3.4775,-3.4667,-3.4246,-3.4066,-3.3886,-3.3525,-3.2947,-3.2503,-3.2503,-3.209,-3.1705,-3.1705,-3.1705,-3.1705,-3.1705,-3.1259,-3.0766,-3.029,-2.9689,-2.9217,-2.893,-2.9034,-2.9209,-2.947,-2.9702,-2.9792,-2.9792,-2.9792,-2.9578,-2.9076,-2.9051,-2.9051,-2.9051,-2.9051,-2.9327,-2.9792,-2.9792,-3.0177,-3.0895,-3.1082,-3.2205,-1.3819,-1.4709,-1.5728,-1.6482,-1.6667,-1.7364,0.0,-1.9555,-1.9281,-2.0788,-2.1131,-2.1413,-2.2311,-2.2732,-2.3254,-2.4042,-2.4504,-2.477,-2.4812,-2.4821,-2.4958,-2.5326,-2.5703,-2.5893,-2.5936,-2.6653,-2.7073,-2.7073,-2.7599,-2.796,-2.802,-2.8618,-2.8984,-2.8984,-2.8984,-2.8984,-2.8984,-2.8984,-2.8984,-2.8984,-2.8984,-2.8984,-2.8984,-2.8984,-2.8984,-2.8984,-2.8984,-2.8984,-2.8984,-2.8984,-2.8984,-2.8984,-2.8984,-2.9213,-2.9499,-2.9499,-2.9558,-2.9677,-3.0217,-3.0132,-2.9862,-3.0041,-2.9541,-2.9124,-3.0179,-3.103,-3.183,-3.2901,-3.3967,-3.4775,-3.4775,-3.4775,-3.4763,-3.4703,-3.433,-3.3982,-3.3922,-3.3188,-3.2503,-3.2503,-3.209,-3.1705,-3.1705,-3.1705,-3.1705,-3.1705,-3.1259,-3.0898,-3.0838,-2.9917,-2.928,-2.9249,-2.9147,-2.93,-2.9702,-2.9792,-2.9792,-2.9792,-2.9792,-2.9767,-2.9691,-2.9691,-2.9691,-2.9691,-2.9691,-2.9729,-2.9792,-2.9792,-3.0177,-3.0932,-3.1636,-3.247,-1.6045,-1.6576,-1.7055,-1.8222,-1.8725,-1.923,-2.0574,-2.0506,-2.0472,-2.1533,-2.1756,-2.2047,-2.3074,-2.3323,-2.3682,-2.4453,-2.4889,-2.5069,-2.4847,-2.5001,-2.5121,-2.5052,-2.5378,-2.578,-2.6217,-2.6542,-2.6833,-2.7056,-2.7478,-2.7771,-2.802,-2.8448,-2.8806,-2.8984,-2.8984,-2.8984,-2.8984,-2.8984,-2.8984,-2.8984,-2.8984,-2.8984,-2.8984,-2.8984,-2.8984,-2.8984,-2.8984,-2.8984,-2.8984,-2.8984,-2.8984,-2.8984,-2.8984,-2.9103,-2.9213,-2.945,-2.9627,-2.9745,-3.0039,-3.0101,-3.0152,-3.0006,-2.9692,-2.9469,-3.0322,-3.0601,-3.0949,-3.2689,-3.3511,-3.4017,-3.4628,-3.4775,-3.4775,-3.4775,-3.4619,-3.445,-3.445,-3.3874,-3.3308,-3.302,-3.2527,-3.209,-3.1765,-3.1705,-3.1705,-3.1705,-3.1524,-3.1259,-3.0958,-3.0218,-2.9562,-2.9044,-2.9175,-2.9353,-2.956,-2.9702,-2.9792,-2.9792,-2.9792,-2.9792,-2.9792,-2.9792,-2.9792,-2.9792,-2.9792,-2.9792,-2.9792,-2.9792,-2.9972,-3.0292,-3.0906,-3.1608,-1.7376,-1.7912,-1.8357,-1.9426,-2.0172,-2.0703,-2.1097,-2.1182,-2.1371,-2.2013,-2.215,-2.2432,-2.3348,-2.3649,-2.3933,-2.4547,-2.5061,-2.5241,-2.4872,-2.5138,-2.5232,-2.4864,-2.5052,-2.5515,-2.6259,-2.6422,-2.6653,-2.7047,-2.7349,-2.7581,-2.7831,-2.8268,-2.8636,-2.8865,-2.8925,-2.8984,-2.8984,-2.8984,-2.8984,-2.8984,-2.8984,-2.8984,-2.8984,-2.8984,-2.8984,-2.8984,-2.8984,-2.8984,-2.8984,-2.8984,-2.8984,-2.8984,-2.8984,-2.8984,-2.9044,-2.9272,-2.9509,-2.9686,-2.9745,-2.9981,-3.0227,-3.0036,-2.9792,-2.9669,-3.0156,-3.0132,-3.0276,-3.2235,-3.2951,-3.3461,-3.4519,-3.4775,-3.4775,-3.4775,-3.4775,-3.4775,-3.4775,-3.4366,-3.3886,-3.3573,-3.2959,-3.237,-3.1973,-3.1813,-3.1705,-3.1705,-3.1705,-3.1573,-3.1187,-3.0506,-2.9808,-2.912,-2.9153,-2.9263,-2.9314,-2.956,-2.9702,-2.9702,-2.9753,-2.9792,-2.9792,-2.9792,-2.9792,-2.9792,-2.9792,-2.9792,-2.9792,-2.9792,-2.988,-3.003,-3.0643,-3.1355,-1.7094,-1.8239,-1.964,-1.9691,-2.052,-2.1482,-2.1876,-2.1961,-2.2073,-2.25,-2.2577,-2.2705,-2.3057,-2.3425,-2.3794,-2.4187,-2.4881,-2.5241,-2.4872,-2.5138,-2.5232,-2.4864,-2.483,-2.5129,-2.5825,-2.6277,-2.6653,-2.7047,-2.7349,-2.7521,-2.7513,-2.814,-2.8526,-2.8517,-2.8806,-2.8984,-2.8984,-2.8984,-2.8984,-2.8984,-2.8984,-2.8984,-2.8984,-2.8984,-2.8984,-2.8984,-2.8984,-2.8984,-2.8984,-2.8984,-2.8984,-2.8984,-2.8984,-2.8984,-2.8984,-2.8984,-2.9044,-2.9044,-2.939,-2.9686,-2.9981,-3.0255,-3.0035,-2.9626,-2.9607,-2.9742,-3.013,-3.1319,-3.2387,-3.3461,-3.4519,-3.4775,-3.4775,-3.4775,-3.4775,-3.4775,-3.4775,-3.4366,-3.3982,-3.397,-3.32,-3.2491,-3.2478,-3.2022,-3.1705,-3.1705,-3.1705,-3.1705,-3.1681,-3.0735,-2.9952,-2.963,-2.9107,-2.8882,-2.9091,-2.9314,-2.9419,-2.9419,-2.965,-2.9792,-2.9792,-2.9792,-2.9792,-2.9792,-2.9792,-2.9792,-2.9792,-2.9792,-3.0068,-3.0583,-3.1319,-3.2319,-1.8751,-1.9401,-1.9939,-2.0985,-2.1525,-2.1901,-2.2328,-2.2414,-2.2379,-2.221,-2.2184,-2.2218,-2.2347,-2.2672,-2.3177,-2.3751,-2.471,-2.5326,-2.5198,-2.572,-2.5883,-2.5258,-2.5403,-2.5603,-2.5859,-2.6045,0.0,-2.703,-2.7185,-2.7297,-2.7521,-2.7891,-2.8268,-2.8517,-2.8806,-2.8984,-2.8984,-2.8984,-2.8984,-2.8984,-2.8984,-2.8984,-2.8984,-2.8984,-2.8984,-2.8984,-2.8984,-2.8984,-2.8984,-2.8984,-2.8984,-2.8984,-2.8984,-2.8984,-2.8984,-2.8984,-2.8984,-2.9044,-2.9153,-2.939,-2.9686,-2.9981,-2.9901,-2.9724,-2.9602,-2.9435,-2.942,-3.0214,-3.1268,-3.2387,-3.3461,-3.4274,-3.4775,-3.4775,-3.4775,-3.4775,-3.4775,-3.4643,-3.4414,-3.4066,-3.3489,-3.2911,-3.2563,-3.2034,-3.1705,-3.1705,-3.1705,-3.1585,-3.1223,-3.0874,-3.0308,-2.9511,-2.9367,-2.922,-2.8907,-2.9079,-2.9275,-2.938,-2.947,-2.9599,-2.9792,-2.9792,-2.9792,-2.9792,-2.9792,-2.998,-3.0331,-3.0331,-3.062,-3.1135,-3.1759,-3.225,-1.9795,-2.0317,-2.0562,-2.1722,-2.2098,-2.2252,-2.2542,-2.25,-2.2328,-2.2047,-2.1782,-2.1636,-2.1764,-2.1978,-2.2482,-2.3323,-2.4427,-2.5223,-2.5409,-2.6011,-2.6259,-2.5643,-2.5788,-2.5927,-2.6122,-2.6131,0.0,-2.703,-2.7073,-2.7185,-2.7349,-2.7779,-2.808,-2.8328,-2.8746,-2.8984,-2.8984,-2.8984,-2.8984,-2.8984,-2.8984,-2.8984,-2.8984,-2.8984,-2.8984,-2.8984,-2.8984,-2.8984,-2.8984,-2.8984,-2.8984,-2.8984,-2.8984,-2.8984,-2.8984,-2.8984,-2.8984,-2.8984,-2.8984,-2.9213,-2.9568,-2.9804,-2.9871,-2.9833,-2.9826,-2.9385,-2.9075,-2.9882,-3.0569,-3.1308,-3.2801,-3.3709,-3.4323,-3.4726,-3.4775,-3.4775,-3.4775,-3.4775,-3.4679,-3.4342,-3.3909,-3.3392,-3.2863,-3.2166,-3.1705,-3.1705,-3.1705,-3.1585,-3.1247,-3.1043,-3.0657,-2.9941,-2.9801,-2.9629,-2.929,-2.9285,-2.9322,-2.9468,-2.9374,-2.9365,-2.9546,-2.9546,-2.9573,-2.965,-2.9863,-3.0177,-3.062,-3.0809,-3.116,-3.1687,-3.2051,-3.2328,-2.024,-2.09,-2.1559,-2.1936,-2.2354,-2.262,-2.2577,-2.2285,-2.1961,-2.1919,-2.1328,-2.0917,-2.1234,-2.1345,-2.1747,-2.2877,-2.405,-2.4958,-2.5343,-2.6045,-2.6379,-2.6011,-2.5927,-2.6122,-2.6456,-2.6508,0.0,-2.7047,0.0,-2.7073,-2.7073,-2.7668,-2.796,-2.802,-2.8618,-2.8984,-2.8984,-2.8984,-2.8984,-2.8984,-2.8984,-2.8984,-2.8984,-2.8984,-2.8984,-2.8984,-2.8984,-2.8984,-2.8984,-2.8984,-2.8984,-2.8984,-2.8984,-2.8984,-2.8984,-2.8984,-2.8984,-2.8984,-2.8984,-2.9213,-2.9499,-2.9804,-2.9832,-2.9853,-3.0101,-2.9609,-2.9164,-3.0197,-3.0231,-3.038,-3.2488,-3.3101,-3.3461,-3.447,-3.4775,-3.4775,-3.4775,-3.4775,-3.4775,-3.4775,-3.4354,-3.3826,-3.3344,-3.2394,-3.1741,-3.1717,-3.1705,-3.1705,-3.1705,-3.1271,-3.0946,-3.0922,-3.0422,-3.0122,-3.0086,-2.9811,-2.963,-2.9642,-2.9328,-2.9177,-2.9177,-2.9177,-2.9283,-2.9466,-3.004,-3.0418,-3.0656,-3.1198,-3.1725,-3.2252,-3.2252,-3.2554,-2.0874,-2.1679,-2.2328,-2.2431,-2.2689,-2.2826,-2.2261,-2.1833,-2.1405,-2.084,-2.036,-1.9975,-1.9778,-2.0437,-2.1293,-2.2141,-2.3708,-2.5052,-2.5703,-2.6448,-2.6782,-2.6388,-2.661,-2.6705,-2.6508,-2.6747,0.0,0.0,-2.7073,-2.7073,-2.7073,-2.7418,-2.7762,-2.802,-2.8388,-2.8755,-2.8984,-2.8984,-2.8984,-2.8984,-2.8984,-2.8984,-2.8984,-2.8984,-2.8984,-2.8984,-2.8984,-2.8984,-2.8984,-2.8984,-2.8984,-2.8984,-2.8984,-2.8984,-2.8984,-2.8984,-2.8984,-2.8984,-2.8984,-2.9044,-2.9153,-2.9509,-2.9738,-2.9879,-2.9911,-2.9665,-2.9391,-2.9332,-2.9594,-3.0026,-3.0587,-3.1971,-3.325,-3.3549,-3.4225,-3.4775,-3.4775,-3.4775,-3.4775,-3.4775,-3.4354,-3.3706,-3.2851,-3.2478,-3.2142,-3.1765,-3.1705,-3.1705,-3.1705,-3.1585,-3.1356,-3.0958,-3.0802,-3.0506,-3.0122,-3.0007,-3.0048,-3.0184,-3.0104,-3.0143,-3.0294,-3.0294,-3.0335,-3.0364,-3.0511,-3.0906,-3.1577,-3.1701,-3.2147,-3.2855,-3.2855,-3.293,-2.1687,-2.2466,-2.3066,-2.2835,-2.2835,-2.2672,-2.191,-2.1311,-2.0703,-1.9958,-1.9495,-1.9119,-1.8742,-1.947,-2.0429,-2.1353,-2.2946,-2.4453,-2.554,-2.6336,-2.6799,-2.6747,-2.6944,-2.6987,-2.6765,-2.6944,-2.7073,0.0,-2.7073,-2.7073,-2.7073,-2.7349,-2.7642,-2.802,-2.8337,-2.8636,-2.8984,-2.8984,-2.8984,-2.8984,-2.8984,-2.8984,-2.8984,-2.8984,-2.8984,-2.8984,0.0,-2.8984,-2.8984,-2.8984,-2.8984,-2.8984,-2.8984,-2.8984,-2.8984,-2.8984,-2.8984,-2.8984,-2.8984,-2.8984,-2.9044,-2.939,-2.9686,-2.9943,-3.0055,-2.9967,-2.9756,-2.9326,-2.9312,-2.9556,-2.9816,-3.0794,-3.2022,-3.2989,-3.3659,-3.4213,-3.4677,-3.4775,-3.4775,-3.4775,-3.4354,-3.3742,-3.2984,-3.2659,-3.231,-3.1789,-3.1705,-3.1705,-3.1705,-3.1705,-3.1597,-3.1296,-3.1259,-3.1151,-3.085,-3.0567,-3.0477,-3.0616,-3.0398,-3.0307,-3.0408,-3.0462,-3.0504,-3.0587,-3.0807,-3.1203,-3.1722,-3.2097,-3.2498,-3.2939,-3.3038,-3.3124,-2.2577,-2.3186,-2.3665,-2.3228,-2.2869,-2.2448,-2.1533,-2.072,-1.9932,-1.9179,-1.8674,-1.828,-1.7974,-1.8579,-1.9548,-2.0746,-2.2167,-2.3657,-2.5223,-2.6045,-2.6636,-2.703,-2.7073,-2.7073,-2.7073,-2.7073,-2.7073,-2.7073,-2.7073,-2.7073,-2.7073,-2.7289,-2.765,-2.796,-2.8337,-2.8636,-2.8984,-2.8984,-2.8984,-2.8984,-2.8984,-2.8984,-2.8984,-2.8984,-2.8984,-2.8984,0.0,0.0,-2.8984,-2.8984,-2.8984,-2.8984,-2.8984,-2.8984,-2.8984,-2.8984,-2.8984,-2.8984,-2.8984,-2.8984,-2.9044,-2.9331,-2.9627,-2.9922,-3.0216,-3.0258,-3.005,-2.9687,-2.9258,-2.9026,-2.952,-2.9922,-3.0587,-3.2538,-3.3201,-3.3659,-3.458,-3.4775,-3.4775,-3.4775,-3.4402,-3.3934,-3.3477,-3.2959,-3.2418,-3.191,-3.1753,-3.1705,-3.1705,-3.1705,-3.1705,-3.1705,-3.1705,-3.1705,-3.1705,-3.1284,-3.1019,-3.1019,-3.0555,-3.0302,-3.0302,-3.0302,-3.0387,-3.0567,-3.1034,-3.1351,-3.1577,-3.2302,-3.268,-3.2723,-3.2982,-3.3124,-2.2912,-2.3571,-2.3973,-2.3288,-2.3066,-2.2655,-2.1285,-2.0138,-1.9153,-1.835,-1.7689,-1.7287,-1.7526,-1.8186,-1.9264,-2.1028,-2.2329,-2.3751,-2.5583,-2.6217,-2.6636,-2.703,-2.7073,-2.7073,-2.7073,-2.7073,0.0,0.0,0.0,-2.7073,-2.7073,-2.7133,-2.7427,-2.796,-2.8337,-2.8636,-2.8984,-2.8984,-2.8984,-2.8984,-2.8984,-2.8984,-2.8984,-2.8984,-2.8984,-2.8984,0.0,0.0,-2.8984,-2.8984,-2.8984,-2.8984,-2.8984,-2.8984,-2.8984,-2.8984,-2.8984,-2.8984,-2.8984,-2.8984,-2.8984,-2.9044,-2.9331,-2.9627,-2.9922,-2.9919,-2.9842,-2.9631,-2.9258,-2.8873,-2.8656,-2.9932,-3.1421,-3.1779,-3.325,-3.458,-3.4775,-3.4775,-3.4775,-3.4775,-3.4703,-3.4474,-3.3946,-3.3489,-3.2971,-3.243,-3.1961,-3.1705,-3.1705,-3.1705,-3.1705,-3.1705,-3.1705,-3.1705,-3.1705,-3.1621,-3.1573,-3.1573,-3.1488,-3.1428,-3.1428,-3.1428,-3.144,-3.1484,-3.1568,-3.1704,-3.1935,-3.2295,-3.2562,-3.2723,-3.2982,-3.3124,-2.3246,-2.3811,-2.4039,-2.3537,-2.3109,-2.2372,-2.0677,-1.9547,-1.8545,-1.7398,-1.703,-1.685,-1.6636,-1.7535,-1.8596,-1.946,-2.0771,-2.2372,-2.4461,-2.5078,-2.5754,-2.6936,-2.7073,-2.7073,-2.7073,-2.7073,-2.7073,0.0,0.0,-2.7073,-2.7073,-2.7246,-2.7539,-2.796,-2.8337,-2.8636,-2.8984,-2.8984,-2.8984,-2.8984,-2.8984,-2.8984,-2.8984,-2.8984,-2.8984,-2.8984,-2.8984,0.0,-2.8984,-2.8984,-2.8984,-2.8984,-2.8984,-2.8984,-2.8984,-2.8984,-2.8984,-2.8984,-2.8984,-2.8984,-2.8984,-2.8984,-2.9213,-2.9499,-2.9627,-2.9897,-3.0017,-2.9474,-2.9313,-2.9111,-2.8457,-2.9523,-3.0856,-3.1472,-3.325,-3.4775,-3.4775,-3.4775,-3.4775,-3.4775,-3.4775,-3.4619,-3.409,-3.3621,-3.3104,-3.2575,-3.2022,-3.1705,-3.1705,-3.1705,-3.1705,-3.1705,-3.1705,-3.1705,-3.1705,-3.1705,-3.1705,-3.1705,-3.1705,-3.1705,-3.1705,-3.1705,-3.1705,-3.1705,-3.1705,-3.1761,-3.1849,-3.2213,-3.2431,-3.255,-3.2952,-3.3124,-2.3418,-2.3879,-2.4119,-2.3657,-2.3032,-2.1985,-2.0052,-1.8965,-1.8012,-1.6664,-1.6524,-1.6524,-1.6011,-1.6884,-1.7809,-1.8179,-1.9341,-2.0994,-2.3392,-2.4068,-2.5001,-2.6739,-2.703,-2.7073,-2.7073,-2.7073,0.0,0.0,0.0,0.0,-2.7073,-2.7297,-2.759,-2.7891,-2.8208,-2.8567,-2.8865,-2.8984,-2.8984,-2.8984,-2.8984,-2.8984,-2.8984,-2.8984,-2.8984,-2.8984,-2.8984,0.0,0.0,-2.8984,-2.8984,-2.8984,-2.8984,-2.8984,-2.8984,-2.8984,-2.8984,-2.8984,-2.8984,-2.8984,-2.8984,-2.8984,-2.9153,-2.939,-2.9499,-2.9853,-3.0034,-2.9316,-2.93,-2.9319,-2.8516,-2.9112,-3.0235,-3.1626,-3.325,-3.4519,-3.4726,-3.4775,-3.4775,-3.4775,-3.4775,-3.4643,-3.4234,-3.3705,-3.3152,-3.2731,-3.2138,-3.1705,-3.1705,-3.1705,-3.1705,-3.1705,-3.1705,-3.1705,-3.1705,-3.1705,-3.1705,-3.1705,-3.1705,-3.1705,-3.1705,-3.1705,-3.1705,-3.1705,-3.1705,-3.1705,-3.1705,-3.2125,-3.2344,-3.2388,-3.2822,-3.3038,-2.3049,-2.3691,-2.4005,-2.3348,-2.2603,-2.155,-1.9658,-1.8406,-1.7377,-1.6561,-1.6114,-1.5977,-1.6197,-1.6405,-1.7111,-1.8827,-1.9478,-2.0703,-2.3349,-2.4299,-2.5206,-2.6396,-2.6859,-2.7073,-2.7073,-2.7073,0.0,0.0,0.0,0.0,0.0,-2.7133,-2.7237,-2.7521,-2.7891,-2.8208,-2.8517,-2.8865,-2.8984,-2.8984,-2.8984,-2.8984,-2.8984,-2.8984,-2.8984,-2.8984,0.0,0.0,0.0,-2.8984,-2.8984,-2.8984,-2.8984,-2.8984,-2.8984,-2.8984,-2.8984,-2.8984,-2.8984,-2.8984,-2.8984,-2.8984,-2.9044,-2.9103,-2.939,-2.9568,-2.9507,-2.9193,-2.9132,-2.9041,-2.8462,-2.9112,-3.0432,-3.2538,-3.3201,-3.361,-3.4568,-3.4775,-3.4775,-3.4775,-3.4775,-3.4763,-3.4715,-3.3945,-3.3272,-3.3224,-3.2379,-3.1705,-3.1705,-3.1705,-3.1705,-3.1705,-3.1705,-3.1705,-3.1705,-3.1705,-3.1705,-3.1705,-3.1705,-3.1705,-3.1705,-3.1705,-3.1705,-3.1705,-3.1705,-3.1705,-3.1705,-3.195,-3.2169,-3.2388,-3.2636,-3.2853,-2.2484,-2.2989,-2.3151,-2.2843,-2.2201,-2.1148,-1.9247,-1.8158,-1.7231,-1.6261,-1.5899,-1.5848,-1.5985,-1.6235,-1.6707,-1.7655,-1.8126,-1.9136,-2.1328,-2.2287,-2.3443,-2.5266,-2.602,-2.6568,0.0,0.0,0.0,0.0,0.0,0.0,0.0,-2.7073,-2.7246,-2.7521,-2.7642,-2.796,-2.8517,-2.8636,-2.8806,-2.8984,-2.8984,-2.8984,-2.8984,-2.8984,-2.8984,-2.8984,0.0,0.0,0.0,-2.8984,-2.8984,-2.8984,-2.8984,-2.8984,-2.8984,-2.8984,-2.8984,-2.8984,-2.8984,-2.8984,-2.8984,-2.8984,-2.8984,-2.9044,-2.9153,-2.9155,-2.9014,-2.8672,-2.8548,-2.8447,-2.8124,-2.8996,-3.0287,-3.188,-3.2739,-3.33,-3.3758,-3.4323,-3.4775,-3.4775,-3.4775,-3.4775,-3.4775,-3.397,-3.3284,-3.3284,-3.2403,-3.1705,-3.1705,-3.1705,-3.1705,-3.1705,-3.1705,-3.1705,-3.1705,-3.1705,-3.1705,-3.1705,-3.1705,-3.1705,-3.1705,-3.1705,-3.1705,-3.1705,-3.1705,-3.1705,-3.1705,-3.1893,-3.2038,-3.2169,-3.2431,-3.2562,-2.1753,-2.2268,-2.2405,-2.2285,-2.1645,-2.0609,-1.8828,-1.7843,-1.7021,-1.6011,-1.5805,-1.5805,-1.5805,-1.6141,-1.651,-1.6858,-1.7321,-1.8297,-2.0198,-2.1105,-2.2347,-2.4401,0.0,-2.5908,0.0,-2.6944,0.0,0.0,0.0,0.0,0.0,-2.7073,-2.7194,-2.7409,-2.7461,-2.7711,-2.8208,-2.8268,-2.8517,-2.8865,-2.8865,-2.8925,-2.8984,-2.8984,-2.8984,-2.8984,0.0,0.0,0.0,-2.8984,-2.8984,-2.8984,-2.8984,-2.8984,-2.8984,-2.8984,-2.8984,-2.8984,-2.8984,-2.8984,-2.8984,-2.8984,-2.8984,-2.8984,-2.8984,-2.8877,-2.8635,-2.8284,-2.807,-2.791,-2.7876,-2.8572,-2.9618,-3.0805,-3.1666,-3.2336,-3.2639,-3.356,-3.4323,-3.4323,-3.458,-3.4775,-3.4775,-3.409,-3.3464,-3.3308,-3.2503,-3.1898,-3.1729,-3.1705,-3.1705,-3.1705,-3.1705,-3.1705,-3.1705,-3.1705,-3.1705,-3.1705,-3.1705,-3.1705,-3.1705,-3.1705,-3.1705,-3.1705,-3.1705,-3.1705,-3.1705,-3.1849,-3.1937,-3.1994,-3.2213,-3.23,-2.0686,-2.1439,-2.191,-2.1516,-2.0857,-1.9906,-1.835,-1.7427,-1.6713,-1.5959,-1.5805,-1.5805,-1.5805,-1.6141,-1.651,-1.6858,-1.7504,-1.8657,-2.0609,-2.1525,-2.2552,0.0,-2.4535,-2.5129,-2.5816,0.0,0.0,0.0,0.0,0.0,0.0,-2.7073,-2.7073,-2.7073,-2.7349,-2.7521,-2.7521,-2.7831,-2.8148,-2.8526,-2.8526,-2.8696,-2.8984,-2.8984,-2.8984,0.0,0.0,0.0,0.0,-2.8984,-2.8984,-2.8984,-2.8984,-2.8984,-2.8984,-2.8984,-2.8984,-2.8984,-2.8984,-2.8984,-2.8984,-2.8984,-2.8984,-2.8984,-2.8984,-2.8709,-2.8364,-2.8227,-2.7799,-2.7485,-2.7799,-2.7906,-2.8271,-2.9618,-2.9922,-3.0235,-3.137,-3.2437,-3.3201,-3.3201,-3.4066,-3.4775,-3.4775,-3.4342,-3.3861,-3.3368,-3.2839,-3.2286,-3.1777,-3.1705,-3.1705,-3.1705,-3.1705,-3.1705,-3.1705,-3.1705,-3.1705,-3.1705,-3.1705,-3.1705,-3.1705,-3.1705,-3.1705,-3.1705,-3.1705,-3.1705,-3.1705,-3.1705,-3.1805,-3.1994,-3.1994,-3.2169,-1.9179,-1.9684,-1.9975,-1.9581,-1.9299,-1.8802,-1.756,-1.7051,-1.6704,-1.5959,-1.5805,-1.5805,-1.5805,-1.5899,-1.6353,-1.7461,-1.7846,-1.8572,-2.0249,-2.1616,-2.2791,-2.3751,-2.5343,-2.6456,0.0,0.0,0.0,0.0,0.0,0.0,0.0,-2.7073,-2.7073,-2.7073,-2.7185,-2.7297,-2.7521,-2.7581,-2.7831,-2.8148,-2.8397,-2.8585,-2.8696,-2.8925,0.0,0.0,0.0,0.0,0.0,-2.8984,-2.8984,-2.8984,-2.8984,-2.8984,-2.8984,-2.8984,-2.8984,-2.8984,-2.8984,-2.8984,-2.8984,-2.8984,-2.8984,-2.8984,-2.8984,-2.8507,-2.7886,-2.7262,-2.7094,-2.7206,-2.7485,-2.7745,-2.8067,-2.8644,-2.9365,-2.9974,-3.0338,-3.1308,-3.2336,-3.3051,-3.3449,-3.3967,-3.4677,-3.4342,-3.3826,-3.3368,-3.2839,-3.2298,-3.1777,-3.1705,-3.1705,-3.1705,-3.1705,-3.1705,-3.1705,-3.1705,-3.1705,-3.1705,-3.1705,-3.1705,-3.1705,-3.1705,-3.1705,-3.1705,-3.1705,-3.1705,-3.1705,-3.1705,-3.1705,-3.1805,-3.1937,-3.2038,-1.7775,-1.834,-1.8682,-1.8442,-1.8271,-1.7946,-1.7115,-1.6807,-1.6533,-1.5925,-1.5805,-1.5805,-1.5805,-1.6036,-1.6533,-1.7427,-1.7971,-1.8725,-2.0103,-2.1521,0.0,-2.3982,0.0,0.0,0.0,0.0,0.0,0.0,0.0,0.0,0.0,0.0,-2.7073,-2.7073,-2.7073,-2.7185,-2.7349,-2.7461,-2.7642,-2.802,-2.8328,-2.8576,-2.8696,-2.8925,0.0,0.0,0.0,0.0,0.0,-2.8984,-2.8984,-2.8984,-2.8984,-2.8984,-2.8984,-2.8984,-2.8984,-2.8984,-2.8984,-2.8984,-2.8984,-2.8984,-2.8984,-2.892,-2.8618,-2.8226,-2.7656,-2.6811,-2.6745,-2.6944,-2.7323,-2.753,-2.7799,-2.8184,-2.8804,-2.9313,-2.9313,-3.0494,-3.1779,-3.2488,-3.325,-3.4017,-3.4677,-3.4498,-3.4114,-3.3657,-3.3128,-3.2599,-3.2058,-3.1837,-3.1705,-3.1705,-3.1705,-3.1705,-3.1705,-3.1705,-3.1705,-3.1705,-3.1705,-3.1705,-3.1705,-3.1705,-3.1705,-3.1705,-3.1705,-3.1705,-3.1705,-3.1705,-3.1705,-3.1705,-3.1849,-3.1893,0.0,-1.7222,-1.7795,-1.7795,-1.7595,-1.7299,-1.6918,-1.6584,0.0,-1.5874,-1.5805,-1.5814,-1.5874,-1.643,-1.6927,-1.7055,-1.7946,-1.9033,-2.0206,-2.143,0.0,0.0,-2.5592,0.0,0.0,0.0,0.0,0.0,0.0,0.0,0.0,0.0,-2.7073,-2.7073,-2.7073,-2.7073,-2.7073,-2.7349,-2.7642,-2.796,-2.8268,-2.8636,-2.8984,-2.8984,0.0,0.0,0.0,0.0,0.0,-2.8984,-2.8984,-2.8984,-2.8984,-2.8984,-2.8984,-2.8984,-2.8984,-2.8984,-2.8984,-2.8984,-2.8984,-2.8984,-2.8966,-2.8792,-2.8061,-2.7822,-2.7656,-2.6811,-2.6591,-2.6745,-2.7215,-2.7368,-2.7539,-2.813,-2.8291,-2.8291,-2.8398,-3.0037,-3.1524,-3.1677,-3.33,-3.4726,-3.4775,-3.4775,-3.4595,-3.4066,-3.3609,-3.3104,-3.2575,-3.201,-3.1705,-3.1705,-3.1705,-3.1705,-3.1705,-3.1705,-3.1705,-3.1705,-3.1705,-3.1705,-3.1705,-3.1705,-3.1705,-3.1705,-3.1705,-3.1705,-3.1705,-3.1705,-3.1705,-3.1705,-3.1705,-3.1705,-1.4684,0.0,-1.5874,-1.5874,-1.6036,-1.6165,0.0,-1.6208,-1.6233,-1.5874,-1.5805,-1.5977,-1.655,-1.6559,-1.6999,-1.8408,-1.8862,-1.953,-2.0951,-2.2886,0.0,-2.6354,-2.6705,0.0,0.0,0.0,0.0,0.0,0.0,0.0,0.0,0.0,-2.7073,-2.7073,-2.7073,-2.7073,-2.7073,-2.7185,-2.7358,-2.7642,-2.796,-2.8268,-2.8636,-2.8865,0.0,0.0,0.0,0.0,-2.8984,-2.8984,-2.8984,-2.8984,-2.8984,-2.8984,-2.8984,-2.8984,-2.8984,-2.8984,-2.8984,-2.8984,-2.8984,-2.8984,-2.8783,-2.8443,-2.7921,-2.7822,-2.7656,-2.6811,-2.6591,-2.6691,-2.6999,-2.7098,-2.726,-2.7853,-2.8014,-2.8271,-2.9303,-2.9922,-3.0794,-3.2488,-3.325,-3.3857,-3.4677,-3.4775,-3.4595,-3.4066,-3.3609,-3.3104,-3.2575,-3.201,-3.1705,-3.1705,-3.1705,-3.1705,-3.1705,-3.1705,-3.1705,-3.1705,-3.1705,-3.1705,-3.1705,-3.1705,-3.1705,-3.1705,-3.1705,-3.1705,-3.1705,-3.1705,-3.1705,-3.1705,-3.1849,-3.195,-1.3827,-1.4632,-1.5489,-1.5489,-1.5771,-1.6089,-1.6089,-1.6071,-1.6036,-1.584,-1.5805,-1.5977,-1.655,-1.681,-1.7299,-1.8459,-1.923,-2.0335,0.0,0.0,-2.5318,-2.6645,0.0,0.0,0.0,0.0,0.0,0.0,0.0,0.0,0.0,0.0,-2.7073,-2.7073,-2.7073,-2.7073,-2.7073,-2.7246,-2.7349,-2.7521,-2.802,-2.8328,-2.8517,-2.8865,0.0,0.0,0.0,0.0,-2.8984,-2.8984,-2.8984,-2.8984,-2.8984,-2.8984,-2.8984,-2.8984,-2.8984,-2.8984,-2.8984,-2.8984,-2.8948,-2.8773,-2.8572,-2.8287,-2.7673,-2.7499,-2.7427,-2.6756,-2.6591,-2.6636,-2.6935,-2.6989,-2.7098,-2.7584,-2.7691,-2.7897,-2.8784,-2.9345,-3.012,-3.141,-3.2134,-3.2801,-3.3857,-3.4066,-3.4119,-3.4342,-3.3765,-3.3188,-3.2899,-3.2166,-3.1705,-3.1705,-3.1705,-3.1705,-3.1705,-3.1705,-3.1705,-3.1705,-3.1705,-3.1705,-3.1705,-3.1705,-3.1705,-3.1705,-3.1705,-3.1705,-3.1705,-3.1705,-3.1705,-3.1705,-3.1805,-3.1849,-1.3717,-1.4827,-1.591,-1.5677,-1.6029,-1.639,-1.6381,-1.6105,-1.5882,-1.5882,-1.5882,-1.6036,-1.6553,-1.7162,-1.774,-1.8288,-1.9607,0.0,-2.3451,-2.4419,-2.53,-2.6362,0.0,0.0,0.0,0.0,0.0,0.0,0.0,0.0,0.0,0.0,0.0,-2.7073,-2.7073,-2.7073,-2.7073,-2.7358,-2.7461,-2.7521,-2.808,-2.8397,-2.8517,-2.8806,0.0,0.0,0.0,0.0,-2.8984,-2.8984,-2.8984,-2.8984,-2.8984,-2.8984,-2.8984,-2.8984,-2.8984,-2.8984,-2.8984,-2.8948,-2.8838,-2.8498,-2.8315,-2.8086,-2.7389,-2.7132,-2.7013,-2.6683,-2.6591,-2.6636,-2.689,-2.6944,-2.7043,-2.7323,-2.7377,-2.753,-2.8111,-2.8933,-2.9692,-3.0078,-3.0959,-3.1931,-3.3001,-3.3201,-3.356,-3.4628,-3.4018,-3.338,-3.3296,-3.2464,-3.1801,-3.1717,-3.1705,-3.1705,-3.1705,-3.1705,-3.1705,-3.1705,-3.1705,-3.1705,-3.1705,-3.1705,-3.1705,-3.1705,-3.1705,-3.1705,-3.1705,-3.1705,-3.1705,-3.1705,-3.1705,-3.1705,-1.4753,-1.583,-1.6412,-1.5187,-1.5643,-1.6381,-1.6336,-1.6257,-1.6214,-1.6214,-1.6259,-1.6613,-1.7595,-1.7837,-1.8391,-1.9727,-2.0951,-2.2295,0.0,0.0,-2.5583,0.0,0.0,0.0,0.0,0.0,0.0,0.0,0.0,0.0,0.0,0.0,0.0,-2.7073,-2.7073,-2.7073,-2.7073,-2.7133,-2.7297,-2.7521,-2.7581,-2.796,-2.8526,-2.8576,-2.8755,0.0,0.0,-2.8984,-2.8984,-2.8984,-2.8984,-2.8984,-2.8984,-2.8984,-2.8984,-2.8984,-2.8984,-2.8984,-2.8984,-2.8764,-2.8471,-2.8416,-2.793,-2.7343,-2.7215,-2.694,-2.6664,-2.6609,-2.6591,-2.6591,-2.6636,-2.6636,-2.68,-2.7269,-2.7377,-2.7789,-2.9303,-2.9713,-3.013,-3.1154,-3.1472,-3.1931,-3.3001,-3.3201,-3.356,-3.4628,-3.4258,-3.3765,-3.3344,-3.2755,-3.219,-3.1765,-3.1705,-3.1705,-3.1705,-3.1705,-3.1705,-3.1705,-3.1705,-3.1705,-3.1705,-3.1705,-3.1705,-3.1705,-3.1705,-3.1705,-3.1705,-3.1705,-3.1705,-3.1705,-3.1705,-3.1705,-1.4453,-1.5393,-1.6131,-1.5737,-1.6806,-1.79,-1.7634,-1.7637,-1.7637,-1.7637,-1.7684,-1.7873,-1.8423,-1.8676,-1.9333,-2.0981,0.0,-2.298,-2.4022,0.0,0.0,0.0,0.0,0.0,0.0,0.0,0.0,0.0,0.0,0.0,0.0,0.0,0.0,0.0,-2.7073,-2.7073,-2.7073,-2.7073,-2.7185,-2.7297,-2.7401,-2.7642,-2.796,-2.8337,-2.8576,-2.8755,0.0,-2.8984,-2.8984,-2.8984,-2.8984,-2.8984,-2.8984,-2.8984,-2.8957,-2.8746,-2.8517,-2.8324,-2.8324,-2.8205,-2.8022,-2.7811,-2.7481,-2.7141,-2.6921,-2.6738,-2.6591,-2.6591,-2.6591,-2.6591,-2.6591,-2.6591,-2.6636,-2.6909,-2.6954,-2.7269,-2.8315,-2.8572,-2.8784,-2.9628,-3.0287,-3.1051,-3.2134,-3.2801,-3.356,-3.4628,-3.433,-3.391,-3.3729,-3.2996,-3.2406,-3.2142,-3.1886,-3.1705,-3.1705,-3.1705,-3.1705,-3.1705,-3.1705,-3.1705,-3.1705,-3.1705,-3.1705,-3.1705,-3.1705,-3.1705,-3.1705,-3.1705,-3.1705,-3.1705,-3.1705,-3.1705,-1.4353,-1.5162,-1.6081,-1.6526,-1.7794,-1.8851,-1.8775,-1.8776,-1.8807,-1.8954,-1.903,-1.9123,-1.9314,-1.9798,-2.0576,-2.1907,-2.2808,-2.3589,0.0,0.0,0.0,0.0,0.0,0.0,0.0,0.0,0.0,0.0,0.0,0.0,0.0,0.0,0.0,0.0,-2.685,-2.685,-2.6936,-2.685,-2.6893,-2.7073,-2.7297,-2.7461,-2.7521,-2.802,-2.8337,-2.8517,-2.8646,-2.8778,-2.8838,-2.8737,-2.87,-2.87,-2.87,-2.87,-2.8663,-2.8361,-2.804,-2.7822,-2.7822,-2.7767,-2.7638,-2.727,-2.7114,-2.6985,-2.6683,-2.6591,-2.6591,-2.6591,-2.6591,-2.6591,-2.6591,-2.6591,-2.6646,-2.6691,-2.6691,-2.6791,-2.7323,-2.7377,-2.7539,-2.8077,-2.8847,-2.9869,-3.137,-3.2286,-3.325,-3.458,-3.4438,-3.409,-3.385,-3.3284,-3.2719,-3.2346,-3.2034,-3.1849,-3.1717,-3.1705,-3.1705,-3.1705,-3.1705,-3.1705,-3.1705,-3.1705,-3.1705,-3.1705,-3.1705,-3.1705,-3.1705,-3.1705,-3.1705,-3.1705,-3.1705,-3.1705,-1.5373,-1.6187,-1.6919,-1.7322,-1.7522,-1.7852,-1.8757,-1.8818,-1.8869,-1.9454,-1.968,-1.9922,-2.0331,-2.1263,-2.2148,-2.2522,-2.3393,-2.4338,0.0,0.0,0.0,0.0,0.0,0.0,0.0,0.0,0.0,0.0,0.0,0.0,0.0,0.0,0.0,0.0,0.0,-2.6182,-2.6525,-2.6191,-2.6371,-2.7073,-2.7133,-2.7237,-2.7521,-2.7581,-2.79,-2.8498,-2.8111,-2.8191,-2.8407,-2.8012,-2.7914,-2.7914,-2.7914,-2.7914,-2.7904,-2.782,-2.7849,-2.7822,-2.7822,-2.7583,-2.7215,-2.7187,-2.693,-2.6628,-2.66,-2.6591,-2.6591,-2.6591,-2.6591,-2.6591,-2.6591,-2.6591,-2.6636,-2.689,-2.6989,-2.7043,-2.7323,-2.7377,-2.7485,-2.7853,-2.8004,-2.8784,-3.1165,-3.1677,-3.2437,-3.447,-3.4751,-3.4426,-3.3464,-3.3681,-3.3368,-3.1934,-3.2154,-3.2226,-3.1753,-3.1705,-3.1705,-3.1705,-3.1705,-3.1705,-3.1705,-3.1705,-3.1705,-3.1705,-3.1705,-3.1705,-3.1705,-3.1705,-3.1705,-3.1705,-3.1705,-3.1705,-1.4873,-1.5909,-1.7,-1.7394,-1.8062,-1.8771,-1.9403,-2.0099,-2.0712,-2.1175,-2.1536,-2.169,-2.1455,-2.1855,-2.2385,-2.3024,-2.3843,0.0,0.0,0.0,0.0,0.0,0.0,0.0,0.0,0.0,0.0,0.0,0.0,0.0,0.0,0.0,0.0,0.0,0.0,-2.5944,-2.6148,-2.6011,-2.6021,-2.6371,-2.6371,-2.6421,-2.653,-2.6698,-2.6933,-2.7225,-2.7432,-2.7609,-2.7716,-2.7781,-2.7822,-2.7822,-2.7822,-2.7675,-2.7454,-2.7454,-2.7242,-2.7031,-2.7031,-2.694,-2.6811,-2.6811,-2.671,-2.6591,-2.6591,-2.6591,-2.6591,-2.6591,-2.6591,-2.6591,-2.6591,-2.6591,-2.6646,-2.6736,-2.6736,-2.6845,-2.7098,-2.7152,-2.7314,-2.7799,-2.8412,-2.924,-3.0328,-3.1114,-3.1781,-3.232,-3.2938,-3.3083,-3.2441,-3.3066,-3.3212,-3.2286,-3.2058,-3.1934,-3.1729,-3.1705,-3.1705,-3.1705,-3.1705,-3.1705,-3.1705,-3.1705,-3.1705,-3.1705,-3.1705,-3.1705,-3.1705,-3.1705,-3.1705,-3.1705,-3.1705,-3.1705,-1.4234,-1.5396,-1.6775,-1.7072,-1.8161,-1.9329,-2.0118,-2.1,-2.1842,-2.2318,-2.2656,-2.2727,-2.2259,-2.2328,-2.267,0.0,0.0,0.0,0.0,0.0,0.0,0.0,0.0,0.0,0.0,0.0,0.0,0.0,0.0,0.0,0.0,0.0,0.0,0.0,0.0,0.0,-2.5754,-2.5643,-2.5526,-2.5526,-2.5526,-2.5654,-2.5934,-2.6273,-2.6437,-2.6553,-2.6954,-2.7184,-2.7298,-2.7397,-2.7398,-2.7398,-2.7398,-2.7233,-2.6985,-2.6985,-2.682,-2.6591,-2.6591,-2.6591,-2.6591,-2.6591,-2.6591,-2.6591,-2.6591,-2.6591,-2.6591,-2.6591,-2.6591,-2.6591,-2.6591,-2.6591,-2.6591,-2.6591,-2.6591,-2.6636,-2.6836,-2.689,-2.7053,-2.7638,-2.8305,-2.9081,-2.9765,-3.0419,-3.0882,-3.0898,-3.1366,-3.1595,-3.1156,-3.2112,-3.2744,-3.2505,-3.1997,-3.1705,-3.1705,-3.1705,-3.1705,-3.1705,-3.1705,-3.1705,-3.1705,-3.1705,-3.1705,-3.1705,-3.1705,-3.1705,-3.1705,-3.1705,-3.1705,-3.1705,-3.1705,-3.1705,-1.3652,-1.4774,-1.631,-1.6391,-1.7587,-1.9115,-2.0708,-2.1394,-2.188,-2.2496,-2.2762,-2.2857,-2.2659,-2.2762,-2.3162,-2.3865,0.0,0.0,0.0,0.0,0.0,0.0,0.0,0.0,0.0,0.0,0.0,0.0,0.0,0.0,0.0,0.0,0.0,0.0,0.0,0.0,-2.5417,-2.5001,-2.4821,-2.4821,-2.4821,-2.515,-2.5925,-2.6255,-2.6553,-2.6889,-2.6762,-2.6881,-2.7141,-2.6747,-2.6591,-2.6591,-2.6591,-2.6591,-2.6591,-2.6591,-2.6591,-2.6591,-2.6591,-2.6591,-2.6591,-2.6591,-2.6591,-2.6591,-2.6591,-2.6591,-2.6591,-2.6591,-2.6591,-2.6591,-2.6591,-2.6591,-2.6591,-2.6591,-2.6591,-2.6591,-2.6591,-2.6591,-2.6745,-2.7269,-2.7377,-2.795,-2.9608,-2.9549,-2.9656,-3.0693,-3.0548,-3.0066,-2.9547,-3.0819,-3.1949,-3.2414,-3.1997,-3.1661,-3.1661,-3.1705,-3.1705,-3.1705,-3.1705,-3.1705,-3.1705,-3.1705,-3.1705,-3.1705,-3.1705,-3.1705,-3.1705,-3.1705,-3.1705,-3.1705,-3.1705,-3.1705,-1.4177,-1.5269,-1.6625,-1.7395,-1.8501,-1.9565,-2.0235,-2.1302,-2.2419,-2.3517,-2.3517,-2.3316,-2.322,-2.3268,0.0,0.0,0.0,0.0,0.0,0.0,0.0,0.0,0.0,0.0,0.0,0.0,0.0,0.0,0.0,0.0,0.0,0.0,0.0,0.0,0.0,0.0,-2.4984,-2.4872,-2.4821,-2.4821,-2.4821,-2.4932,-2.5155,-2.5203,-2.5419,-2.5737,-2.59,-2.6133,-2.6463,-2.6573,-2.6591,-2.6591,-2.6591,-2.6591,-2.6591,-2.6591,-2.6591,-2.6591,-2.6591,-2.6591,-2.6591,-2.6591,-2.6591,-2.6591,-2.6591,-2.6591,-2.6591,-2.6591,-2.6591,-2.6591,-2.6591,-2.6591,-2.6591,-2.6591,-2.6591,-2.6591,-2.6591,-2.6591,-2.6691,-2.7053,-2.7098,-2.7368,-2.7994,-2.7953,-2.7821,-2.7872,-2.8301,-2.8838,-2.9408,-2.9579,-2.9816,-3.0321,-2.9928,-2.9886,-3.0588,-3.0633,-3.0958,-3.1661,-3.1705,-3.1705,-3.1705,-3.1705,-3.1705,-3.1705,-3.1705,-3.1705,-3.1705,-3.1705,-3.1705,-3.1705,-3.1705,-3.1705,-1.3812,-1.5206,-1.6796,-1.7156,-1.8362,-1.956,-1.9908,-2.1079,-2.2521,-2.391,-2.347,-2.3041,-2.366,-2.3434,0.0,0.0,0.0,0.0,0.0,0.0,0.0,0.0,0.0,0.0,0.0,0.0,0.0,0.0,0.0,0.0,0.0,0.0,0.0,0.0,0.0,0.0,-2.4821,-2.4821,-2.4821,-2.4821,-2.4821,-2.4821,-2.4821,-2.4923,-2.5072,-2.5221,-2.5679,-2.6017,-2.63,-2.6527,-2.6591,-2.6591,-2.6591,-2.6591,-2.6591,-2.6591,-2.6591,-2.6591,-2.6591,-2.6591,-2.6591,-2.6591,-2.6591,-2.6591,-2.6591,-2.6591,-2.6591,-2.6591,-2.6591,-2.6591,-2.6591,-2.6591,-2.6591,-2.6591,-2.6591,-2.6591,-2.6591,-2.6591,-2.6691,-2.6935,-2.6859,-2.6864,-2.7132,-2.685,-2.6477,-2.6228,-2.6576,-2.7296,-2.8428,-2.8303,-2.838,-2.9095,-2.8913,-2.9096,-3.0125,-3.0215,-3.0633,-3.1661,-3.1705,-3.1705,-3.1705,-3.1705,-3.1705,-3.1705,-3.1705,-3.1705,-3.1705,-3.1705,-3.1705,-3.1705,-3.1705,-3.1705,-1.2986,-1.4743,-1.6658,-1.6209,-1.7564,-1.9085,-1.9527,-2.063,-2.2053,-2.3705,-2.2947,-2.2394,-2.3782,-2.3138,0.0,0.0,0.0,0.0,0.0,0.0,0.0,0.0,0.0,0.0,0.0,0.0,0.0,0.0,0.0,0.0,0.0,0.0,0.0,0.0,0.0,0.0,-2.471,-2.4718,-2.4718,0.0,-2.4718,-2.4718,-2.4718,-2.5038,-2.5174,-2.5221,-2.5844,-2.6245,-2.6537,-2.6591,-2.6591,-2.6591,-2.6591,-2.6591,-2.6591,-2.6591,-2.6591,-2.6591,-2.6591,-2.6591,-2.6591,-2.6591,-2.6591,-2.6591,-2.6591,-2.6591,-2.6591,-2.6591,-2.6591,-2.6591,-2.6591,-2.6591,-2.6591,-2.6591,-2.6591,-2.6591,-2.6591,-2.6591,-2.6682,-2.6888,-2.6582,-2.6436,-2.6663,-2.6045,-2.5547,-2.5569,-2.5435,-2.5703,-2.6914,-2.7047,-2.7426,-2.8308,-2.8448,-2.8866,-2.9977,-3.0068,-3.0543,-3.1617,-3.1705,-3.1705,-3.1705,-3.1705,-3.1705,-3.1705,-3.1705,-3.1705,-3.1705,-3.1705,-3.1705,-3.1705,-3.1705,-3.1705,-1.3372,-1.4273,-1.5325,-1.6578,-1.7489,-1.8135,-1.8263,-1.8724,-1.9875,-2.2331,-2.2608,-2.2474,-2.282,-2.1962,0.0,0.0,0.0,0.0,0.0,0.0,0.0,0.0,0.0,0.0,0.0,0.0,0.0,0.0,0.0,0.0,0.0,0.0,0.0,0.0,0.0,-2.3828,-2.3967,-2.3913,-2.3913,0.0,-2.3913,-2.3913,-2.3931,-2.4593,-2.5026,-2.5221,-2.5844,-2.6127,-2.6245,-2.6473,-2.6591,-2.6591,-2.6591,-2.6591,-2.6591,-2.6591,-2.6591,-2.6591,-2.6591,-2.6591,-2.6591,-2.6591,-2.6591,-2.6591,-2.6591,-2.6591,-2.6591,-2.6591,-2.6591,-2.6591,-2.6591,-2.6591,-2.6591,-2.6591,-2.6591,-2.6591,-2.6591,-2.6591,-2.6545,-2.6258,-2.6129,-2.6017,-2.5764,-2.5428,-2.5233,-2.5368,-2.5342,-2.5479,-2.5955,-2.6004,-2.61,-2.6332,-2.6332,-2.7067,-2.8866,-2.9004,-2.9795,-3.1572,-3.1705,-3.1705,-3.1705,-3.1705,-3.1705,-3.1705,-3.1705,-3.1705,-3.1705,-3.1705,-3.1705,-3.1705,-3.1705,-3.1705,-1.2612,-1.3806,-1.5164,-1.6804,-1.7023,-1.6902,-1.7098,-1.769,-1.8622,-2.0224,-2.062,-2.0931,-2.1625,0.0,0.0,0.0,0.0,0.0,0.0,0.0,0.0,0.0,0.0,0.0,0.0,0.0,0.0,0.0,0.0,0.0,0.0,0.0,0.0,0.0,-2.3494,-2.3485,-2.3718,-2.3718,-2.3718,-2.3718,-2.3674,-2.3674,-2.3727,-2.4085,-2.4419,-2.468,-2.5013,-2.529,-2.5612,-2.5782,-2.5898,-2.6004,-2.6004,-2.6004,-2.6032,-2.6215,-2.6289,-2.6316,-2.6518,-2.6591,-2.6591,-2.6591,-2.6591,-2.6591,-2.6591,-2.6591,-2.6591,-2.6591,-2.6591,-2.6545,-2.6344,-2.6289,-2.6243,-2.605,-2.6307,-2.6536,-2.6334,-2.6289,-2.6169,-2.581,-2.558,-2.5378,-2.5124,-2.4932,-2.4871,-2.5068,-2.5235,-2.5391,-2.5693,-2.5693,-2.5693,-2.5693,-2.5693,-2.6332,-2.784,-2.7981,-2.8623,-3.017,-3.0734,-3.0958,-3.0958,-3.1427,-3.1705,-3.1705,-3.1705,-3.1705,-3.1705,-3.1705,-3.1705,-3.1705,-3.1705,-3.1705,-1.1519,-1.3241,-1.5187,-1.6557,-1.6364,-1.5892,-1.6139,-1.6904,-1.7616,-1.7991,-1.8402,-1.9106,0.0,0.0,0.0,0.0,0.0,0.0,0.0,0.0,0.0,0.0,0.0,0.0,0.0,0.0,0.0,0.0,0.0,0.0,0.0,0.0,-2.3169,-2.3494,-2.3186,-2.316,-2.3521,-2.3521,-2.3521,-2.3521,-2.3494,-2.3494,-2.3521,-2.3521,-2.3703,-2.4026,-2.4088,-2.4403,-2.4841,-2.4945,-2.5102,-2.532,-2.5372,-2.5424,-2.546,-2.5791,-2.5911,-2.5966,-2.6334,-2.6481,-2.649,-2.6564,-2.6536,-2.6481,-2.6481,-2.6435,-2.638,-2.638,-2.638,-2.6298,-2.6002,-2.5911,-2.5828,-2.5506,-2.5885,-2.6279,-2.5984,-2.5911,-2.5791,-2.5396,-2.495,-2.4725,-2.4725,-2.4581,-2.4538,-2.4784,-2.5088,-2.5342,-2.5586,-2.5684,-2.5693,-2.5693,-2.5693,-2.61,-2.7094,-2.7189,-2.7652,-2.8634,-2.9464,-2.9932,-2.9932,-3.0722,-3.1238,-3.1427,-3.1617,-3.1705,-3.1705,-3.1705,-3.1705,-3.1705,-3.1705,-3.1705,-1.0763,-1.2372,-1.4034,-1.5059,-1.555,-1.5791,-1.5879,-1.598,-1.6163,0.0,-1.7583,0.0,0.0,0.0,0.0,0.0,0.0,0.0,0.0,0.0,0.0,0.0,0.0,0.0,0.0,0.0,0.0,0.0,0.0,0.0,0.0,-2.2671,-2.2697,-2.2748,-2.2697,-2.2697,-2.2748,-2.2748,-2.2748,-2.2748,-2.2748,-2.2748,-2.2748,-2.2748,-2.31,-2.3771,-2.3982,-2.414,-2.4246,-2.4788,-2.4997,-2.505,-2.532,-2.5424,-2.5433,-2.5479,-2.5506,-2.5561,-2.5957,-2.6094,-2.6159,-2.6472,-2.6344,-2.6094,-2.6094,-2.5855,-2.5537,-2.5537,-2.5537,-2.5571,-2.5515,-2.5506,-2.5488,-2.5433,-2.5454,-2.5571,-2.5515,-2.5506,-2.5387,-2.4941,-2.4569,-2.4284,-2.4284,-2.4238,-2.4301,-2.4529,-2.4784,-2.503,-2.5333,-2.5538,-2.5693,-2.5693,-2.5693,-2.61,-2.7094,-2.7189,-2.7652,-2.8634,-2.8819,-2.8912,-2.8912,-2.905,-2.951,-3.0396,-3.125,-3.1705,-3.1705,-3.1705,-3.1705,-3.1705,-3.1705,-3.1705,-1.0714,-1.2021,-1.3227,-1.466,-1.5202,-1.5431,-1.5752,-1.5784,-1.5818,-1.5999,0.0,0.0,0.0,0.0,0.0,0.0,0.0,0.0,0.0,0.0,0.0,0.0,0.0,0.0,0.0,0.0,0.0,0.0,0.0,0.0,-2.2585,-2.2594,-2.2594,-2.2594,-2.2594,0.0,-2.2594,-2.2594,-2.2594,-2.2594,-2.1971,-2.1971,-2.2594,-2.2594,-2.2774,-2.3092,-2.3195,-2.334,-2.3494,-2.3759,-2.4074,-2.4329,-2.4481,-2.4592,-2.4771,-2.4959,-2.5041,-2.5096,-2.5543,-2.5681,-2.5708,-2.5848,-2.5837,-2.5681,-2.5681,-2.5561,-2.5424,-2.5424,-2.5424,-2.5368,-2.5096,-2.5041,-2.5038,-2.4799,-2.4735,-2.4735,-2.4735,-2.4876,-2.4913,-2.456,-2.433,-2.4202,-2.4202,-2.4301,-2.439,-2.4489,-2.4735,-2.4932,-2.5088,-2.5294,-2.5489,-2.5489,-2.5586,-2.5868,-2.6322,-2.637,-2.6562,-2.6982,-2.7568,-2.784,-2.784,-2.8958,-2.9749,-3.017,-3.0633,-3.1149,-3.1705,-3.1705,-3.1705,-3.1705,-3.1705,-3.1705,-1.0269,-1.1322,-1.2215,-1.3881,-1.4472,-1.4845,-1.5431,-1.5618,-1.5644,0.0,0.0,0.0,0.0,0.0,0.0,0.0,0.0,0.0,0.0,0.0,0.0,0.0,0.0,0.0,0.0,0.0,0.0,0.0,0.0,0.0,-2.152,-2.1537,-2.1637,-2.1895,-2.1895,-2.2053,-2.2311,-2.2405,-2.2457,-2.2457,-2.1676,-2.1768,-2.2594,-2.2594,-2.2594,-2.2594,-2.2594,-2.2695,-2.2896,-2.2946,-2.3247,-2.3596,-2.3755,-2.3904,-2.4139,-2.451,-2.4629,-2.4735,-2.5139,-2.5277,-2.5234,-2.5387,-2.535,-2.5277,-2.5277,-2.5203,-2.5111,-2.5111,-2.5111,-2.5047,-2.4753,-2.4629,-2.4587,-2.4275,-2.4202,-2.4202,-2.4202,-2.445,-2.4578,-2.4266,-2.4202,-2.4202,-2.4202,-2.4341,-2.444,-2.444,-2.4637,-2.4784,-2.4784,-2.503,-2.5186,-2.5186,-2.5382,-2.5538,-2.5586,-2.5586,-2.5635,-2.5693,-2.6418,-2.6829,-2.6829,-2.8495,-2.9567,-2.9795,-3.0079,-3.0678,-3.1705,-3.1705,-3.1705,-3.1705,-3.1705,-3.1705,-0.8928,-0.9837,-1.0811,-1.2108,-1.3127,-1.3975,-1.4825,-1.508,-1.5265,0.0,0.0,0.0,0.0,0.0,0.0,0.0,0.0,0.0,0.0,0.0,0.0,0.0,0.0,0.0,0.0,0.0,0.0,0.0,0.0,0.0,-1.8644,-1.8644,-1.9037,-2.003,-2.003,-2.0475,-2.1465,-2.1841,-2.203,-2.203,-2.2381,-2.2544,-2.2594,-2.2594,-2.2594,-2.2594,-2.2594,-2.2603,-2.2644,-2.2896,-2.2996,-2.3097,-2.3596,-2.3805,-2.3854,-2.4121,-2.4238,-2.4293,-2.4666,-2.4812,-2.4876,-2.5304,-2.5115,-2.4812,-2.4812,-2.4578,-2.4266,-2.4266,-2.4266,-2.4266,-2.4238,-2.4238,-2.4229,-2.4211,-2.4202,-2.4202,-2.4202,-2.422,-2.4229,-2.4211,-2.4202,-2.4202,-2.4202,-2.4202,-2.4202,-2.4202,-2.439,-2.4529,-2.4529,-2.4735,-2.4932,-2.4932,-2.4932,-2.5039,-2.5284,-2.5333,-2.544,-2.5684,-2.5732,-2.5781,-2.5781,-2.6781,-2.7793,-2.8773,-2.9704,-3.0678,-3.1705,-3.1705,-3.1705,-3.1705,-3.1705,-3.1705,-0.8229,-0.9039,-0.9951,-1.1048,-1.1918,-1.2706,-1.3454,-1.4011,-1.4469,0.0,0.0,0.0,0.0,0.0,0.0,0.0,0.0,0.0,0.0,0.0,0.0,0.0,0.0,0.0,0.0,0.0,0.0,0.0,0.0,0.0,-1.838,-1.8395,-1.8592,-1.8935,-1.8943,-1.9089,-1.948,-1.9564,-1.9978,-2.0671,-2.0761,-2.1171,-2.1816,-2.1816,-2.1816,-2.1833,-2.2081,-2.2379,-2.2603,-2.2695,-2.2846,-2.3046,-2.3397,-2.3655,-2.3845,-2.4102,-2.4202,-2.422,-2.4376,-2.4431,-2.445,-2.4597,-2.4542,-2.4431,-2.4431,-2.4321,-2.4202,-2.4202,-2.4202,-2.4202,-2.4202,-2.4202,-2.4202,-2.4202,-2.4202,-2.4202,-2.4202,-2.4202,-2.4202,-2.4202,-2.4202,-2.4202,-2.4202,-2.4202,-2.4202,-2.4202,-2.4251,-2.4301,-2.4301,-2.4489,-2.4637,-2.4637,-2.4784,-2.4932,-2.5039,-2.5039,-2.5088,-2.5186,-2.5342,-2.544,-2.544,-2.659,-2.7379,-2.7746,-2.8716,-3.0022,-3.1705,-3.1705,-3.1705,-3.1705,-3.1705,-3.1705,-0.7576,-0.8222,-0.9045,-1.0115,-1.0707,-1.1323,-1.2609,-1.3203,-1.3696,0.0,0.0,0.0,0.0,0.0,0.0,0.0,0.0,0.0,0.0,0.0,0.0,0.0,0.0,0.0,0.0,0.0,0.0,0.0,0.0,0.0,-1.6995,-1.7002,-1.7197,-1.7538,-1.7829,-1.8022,-1.8022,-1.8099,-1.854,-1.9227,-1.9295,-1.9683,-2.0369,-2.0369,-2.0369,-2.0434,-2.0688,-2.1403,-2.2422,-2.2542,-2.2745,-2.3046,-2.3297,-2.3546,-2.3845,-2.4102,-2.4202,-2.4202,-2.4202,-2.4202,-2.4202,-2.4202,-2.4202,-2.4202,-2.4202,-2.4202,-2.4202,-2.4202,-2.4202,-2.4202,-2.4202,-2.4202,-2.4202,-2.4202,-2.4202,-2.4202,-2.4202,-2.4202,-2.4202,-2.4202,-2.4202,-2.4202,-2.4202,-2.4202,-2.4202,-2.4202,-2.4202,-2.4202,-2.4202,-2.4341,-2.439,-2.439,-2.4538,-2.4686,-2.4784,-2.4833,-2.4932,-2.5039,-2.5284,-2.543,-2.543,-2.659,-2.7189,-2.7189,-2.8215,-2.9372,-3.0678,-3.1015,-3.1383,-3.1705,-3.1705,-3.1705,0.0,0.0,0.0,-0.9257,-0.9474,-0.9982,-1.2259,0.0,0.0,0.0,0.0,0.0,0.0,0.0,0.0,0.0,0.0,0.0,0.0,0.0,0.0,0.0,0.0,0.0,0.0,0.0,0.0,0.0,0.0,-1.4298,-1.4298,-1.4298,-1.4765,-1.5704,-1.6687,-1.7203,-1.7203,-1.7618,-1.7827,-1.7827,-1.8177,-1.8366,-1.8366,-1.8366,-1.8366,-1.8366,-1.838,-1.9716,-2.1889,-2.2305,-2.2619,-2.2929,-2.3229,-2.3488,-2.3805,-2.4102,-2.4202,-2.4202,-2.4202,-2.4202,-2.4202,-2.4202,-2.4202,-2.4202,-2.4202,-2.4202,-2.4202,-2.4202,-2.4202,-2.4202,-2.4202,-2.4202,-2.4202,-2.4202,-2.4202,-2.4202,-2.4202,-2.4202,-2.4202,-2.4202,-2.4202,-2.4202,-2.4202,-2.4202,-2.4202,-2.4202,-2.4202,-2.4202,-2.4202,-2.4202,-2.4202,-2.4202,-2.4202,-2.4301,-2.4489,-2.4735,-2.499,-2.5235,-2.5538,-2.5693,-2.5684,-2.6648,-2.7142,-2.7142,-2.8121,-2.8634,-2.868,-2.9658,-3.0633,-3.1617,-3.1661,-3.1661,-0.7187,0.0,0.0,0.0,0.0,0.0,0.0,0.0,0.0,0.0,0.0,0.0,0.0,0.0,0.0,0.0,0.0,0.0,0.0,0.0,0.0,0.0,0.0,0.0,0.0,0.0,0.0,0.0,-1.4298,-1.4298,-1.4298,-1.4298,-1.4436,-1.4723,-1.5003,-1.514,-1.514,-1.5974,-1.6395,-1.6395,-1.7232,-1.7607,-1.7607,-1.7607,-1.7607,-1.7622,-1.7912,-1.8405,-1.9059,-1.9432,-1.9718,-2.0101,-2.1354,-2.202,-2.2459,-2.3737,-2.4202,-2.4202,-2.4202,-2.4202,-2.4202,-2.4202,-2.4202,-2.4202,-2.4202,-2.4202,-2.4202,-2.4202,-2.4202,-2.4202,-2.4202,-2.4202,-2.4202,-2.4202,-2.4202,-2.4202,-2.4202,-2.4202,-2.4202,-2.4202,-2.4202,-2.4202,-2.4202,-2.4202,-2.4202,-2.4202,-2.4202,-2.4202,-2.4202,-2.4202,-2.4202,-2.4202,-2.4202,-2.4202,-2.4301,-2.435,-2.4449,-2.4498,-2.4686,-2.4932,-2.5137,-2.5557,-2.5945,-2.61,-2.638,-2.6887,-2.7605,-2.8634,-2.9235,-2.9567,-3.026,-3.0633,-0.7467,-0.7629,-0.7946,-0.8114,0.0,0.0,0.0,-0.9623,0.0,0.0,0.0,0.0,0.0,0.0,0.0,0.0,0.0,0.0,0.0,0.0,0.0,0.0,0.0,0.0,0.0,0.0,0.0,0.0,-1.4298,-1.4298,-1.4298,-1.4298,-1.4298,-1.4298,-1.4298,-1.4298,-1.4298,-1.486,-1.5188,-1.5188,-1.5751,-1.6028,-1.6028,-1.6028,-1.6028,-1.6042,-1.632,-1.6395,-1.6409,-1.6621,-1.778,-1.9537,-2.0475,-2.1403,-2.2287,-2.3404,-2.3916,-2.4053,-2.4152,-2.4202,-2.4202,-2.4202,-2.4202,-2.4202,-2.4202,-2.4202,-2.4202,-2.4202,-2.4202,-2.4202,-2.4202,-2.4202,-2.4202,-2.4202,-2.4202,-2.4202,-2.4202,-2.4202,-2.4202,-2.4202,-2.4202,-2.4202,-2.4202,-2.4202,-2.4202,-2.4202,-2.4202,-2.4202,-2.4202,-2.4202,-2.4202,-2.4202,-2.4202,-2.4202,-2.4202,-2.4301,-2.435,-2.435,-2.4538,-2.4735,-2.4883,-2.503,-2.5186,-2.5333,-2.5489,-2.5858,-2.66,-2.7568,-2.8308,-2.8727,-2.928,-2.9567,-0.7933,-0.7943,-0.8171,-0.8608,-0.8399,0.0,-0.9371,-0.9712,0.0,0.0,0.0,0.0,0.0,0.0,0.0,0.0,0.0,0.0,0.0,0.0,0.0,0.0,0.0,0.0,0.0,0.0,-1.4262,-1.4292,-1.4298,-1.4298,-1.4298,-1.4298,-1.4298,-1.4298,-1.4298,-1.4298,-1.4298,-1.4298,-1.4298,-1.4298,-1.4298,-1.4298,-1.4298,-1.4298,-1.4298,-1.4298,-1.4298,-1.4298,-1.4298,-1.4298,-1.6505,-1.9854,-1.9902,-2.097,-2.2562,-2.2806,-2.3215,-2.3669,-2.3916,-2.4015,-2.4024,-2.4119,-2.4137,-2.4137,-2.4192,-2.4202,-2.4202,-2.4202,-2.4202,-2.4202,-2.4202,-2.4202,-2.4202,-2.4202,-2.4202,-2.4202,-2.4202,-2.4202,-2.4202,-2.4202,-2.4202,-2.4202,-2.4202,-2.4202,-2.4202,-2.4202,-2.4202,-2.4202,-2.4202,-2.4202,-2.4202,-2.4202,-2.4202,-2.4202,-2.4202,-2.4341,-2.4489,-2.4489,-2.4686,-2.4833,-2.4833,-2.4883,-2.4883,-2.4883,-2.5137,-2.5391,-2.5635,-2.66,-2.7474,-2.8355,-2.8495,-2.8541,-0.9215,-0.9161,-0.9094,-0.8788,0.0,0.0,-0.8462,-0.8781,-0.9235,0.0,0.0,0.0,0.0,0.0,0.0,0.0,0.0,0.0,0.0,0.0,0.0,0.0,0.0,0.0,0.0,0.0,-1.4069,-1.428,-1.4298,-1.4298,-1.4298,-1.4298,-1.4298,-1.4298,-1.4298,-1.4298,-1.4298,-1.4298,-1.4298,-1.4298,-1.4298,-1.4298,-1.4298,-1.4298,-1.4298,-1.4298,-1.4298,-1.4298,-1.4298,-1.4298,-1.5345,-1.7016,-1.7342,-1.8794,-2.0726,-2.1048,-2.1734,-2.2542,-2.2838,-2.2933,-2.2987,-2.3459,-2.3657,-2.373,-2.4101,-2.4202,-2.4202,-2.4202,-2.4202,-2.4202,-2.4202,-2.4202,-2.4202,-2.4202,-2.4202,-2.4202,-2.4202,-2.4202,-2.4202,-2.4202,-2.4202,-2.4202,-2.4202,-2.4202,-2.4202,-2.4202,-2.4202,-2.4202,-2.4202,-2.4202,-2.4202,-2.4202,-2.4202,-2.4202,-2.4202,-2.4251,-2.4251,-2.4251,-2.4301,-2.439,-2.4587,-2.4578,-2.4686,-2.4883,-2.4932,-2.5137,-2.5382,-2.5771,-2.61,-2.6284,-2.7105,-2.751,-0.9817,-0.9709,-0.9672,-0.9534,0.0,0.0,0.0,-0.871,-0.8782,-0.9053,0.0,0.0,0.0,0.0,0.0,0.0,0.0,0.0,0.0,0.0,0.0,0.0,0.0,0.0,0.0,0.0,-1.3767,-1.3894,-1.4026,-1.4099,-1.4099,-1.4226,-1.4298,-1.4298,-1.4298,-1.4298,-1.4298,-1.4298,-1.4298,-1.4298,-1.4298,-1.4298,-1.4298,-1.4298,-1.4298,-1.4298,-1.4298,-1.4298,-1.4298,-1.4298,-1.4996,-1.6025,-1.6211,-1.7448,-1.9093,-1.9366,-1.991,-2.0546,-2.0827,-2.1219,-2.1692,-2.1987,-2.2547,-2.309,-2.3338,-2.3587,-2.3849,-2.3849,-2.3996,-2.4202,-2.4202,-2.4202,-2.4202,-2.4202,-2.4202,-2.4202,-2.4202,-2.4202,-2.4202,-2.4202,-2.4202,-2.4202,-2.4202,-2.4202,-2.4202,-2.4202,-2.4202,-2.4202,-2.4202,-2.4202,-2.4202,-2.4202,-2.4202,-2.4202,-2.4202,-2.4202,-2.4202,-2.4202,-2.4202,-2.4251,-2.4341,-2.4341,-2.444,-2.4686,-2.4833,-2.503,-2.5284,-2.5586,-2.5693,-2.5684,-2.6235,-2.6466,0.0,0.0,0.0,0.0,0.0,-0.9432,0.0,0.0,0.0,-0.9179,0.0,0.0,0.0,0.0,0.0,0.0,0.0,0.0,0.0,0.0,0.0,0.0,0.0,0.0,0.0,0.0,-1.3272,-1.3429,-1.3538,-1.3664,-1.3821,-1.4081,-1.422,-1.422,-1.4268,-1.4298,-1.4298,-1.4298,-1.4298,-1.4298,-1.4298,-1.4298,-1.4298,-1.4298,-1.4298,-1.4298,-1.4298,-1.4298,-1.4298,-1.4298,-1.4765,-1.552,-1.552,-1.6422,-1.7794,-1.7835,-1.8134,-1.8536,-1.8819,-1.9454,-2.0149,-2.0262,-2.1215,-2.2301,-2.2301,-2.2819,-2.338,-2.338,-2.3666,-2.399,-2.4064,-2.4082,-2.4101,-2.4183,-2.4202,-2.4202,-2.4202,-2.4202,-2.4202,-2.4202,-2.4202,-2.4202,-2.4202,-2.4202,-2.4202,-2.4202,-2.4202,-2.4202,-2.4202,-2.4202,-2.4202,-2.4202,-2.4202,-2.4202,-2.4202,-2.4202,-2.4202,-2.4202,-2.4202,-2.4202,-2.4202,-2.4202,-2.4301,-2.444,-2.4637,-2.4883,-2.5137,-2.544,-2.5586,-2.5693,-2.5693,-2.5693,0.0,0.0,0.0,0.0,-1.04,0.0,0.0,0.0,-0.9172,-0.8555,0.0,0.0,0.0,0.0,0.0,0.0,0.0,0.0,0.0,0.0,0.0,0.0,0.0,0.0,0.0,0.0,0.0,-1.3071,-1.2747,-1.2807,-1.3519,-1.3809,-1.3954,-1.3954,-1.4177,-1.4298,-1.4298,-1.4298,-1.4298,-1.4298,-1.4298,-1.4298,-1.4298,-1.4298,-1.4298,-1.4298,-1.4298,-1.4298,-1.4298,-1.4298,-1.4388,-1.4484,-1.4484,-1.5676,-1.7254,-1.6414,-1.6664,-1.7493,-1.7766,-1.7953,-1.8139,-1.8673,-1.9933,-2.1258,-2.1258,-2.209,-2.2968,-2.2968,-2.3014,-2.3123,-2.3471,-2.3563,-2.3703,-2.411,-2.4202,-2.4202,-2.4202,-2.4202,-2.4202,-2.4202,-2.4202,-2.4202,-2.4202,-2.4202,-2.4202,-2.4202,-2.4202,-2.4202,-2.4202,-2.4202,-2.4202,-2.4202,-2.4202,-2.4202,-2.4202,-2.4202,-2.4202,-2.4202,-2.4202,-2.4202,-2.4202,-2.4202,-2.4202,-2.4251,-2.4251,-2.439,-2.4578,-2.4883,-2.5235,-2.5693,-2.5693,-2.5693,0.0,0.0,0.0,0.0,0.0,0.0,-0.9052,0.0,-0.8597,0.0,0.0,0.0,0.0,0.0,0.0,0.0,0.0,0.0,0.0,0.0,0.0,0.0,0.0,0.0,0.0,0.0,0.0,0.0,0.0,-1.2137,-1.2783,-1.3224,-1.3592,-1.3894,-1.4014,-1.4141,-1.4298,-1.4298,-1.4298,-1.4298,-1.4298,-1.4298,-1.4298,-1.4298,-1.4298,-1.4298,-1.4298,-1.4298,-1.4298,-1.4298,-1.4298,-1.4298,-1.4298,-1.4813,-1.552,-1.5099,-1.5188,-1.5561,-1.5697,-1.6123,-1.6796,-1.7912,-1.8809,-1.9554,-1.9733,-2.0257,-2.1015,-2.1597,-2.1905,-2.2259,-2.2962,-2.3151,-2.3197,-2.3419,-2.3455,-2.3519,-2.3749,-2.3794,-2.3868,-2.4156,-2.4202,-2.4202,-2.4202,-2.4202,-2.4202,-2.4202,-2.4202,-2.4202,-2.4202,-2.4202,-2.4202,-2.4202,-2.4202,-2.4202,-2.4202,-2.4202,-2.4202,-2.4202,-2.4202,-2.4202,-2.4202,-2.4202,-2.4202,-2.4202,-2.4291,-2.444,-2.448,-2.4784,-2.503,-2.5235,-2.5538,-2.5693,-1.0935,0.0,0.0,0.0,0.0,0.0,0.0,0.0,0.0,0.0,0.0,0.0,0.0,0.0,-0.8794,-0.8722,0.0,0.0,0.0,0.0,0.0,0.0,0.0,0.0,0.0,0.0,0.0,0.0,0.0,0.0,-1.2161,-1.2644,-1.3145,-1.3676,-1.3833,-1.3996,-1.4189,-1.4262,-1.4298,-1.4298,-1.4298,-1.4298,-1.4298,-1.4298,-1.4298,-1.4298,-1.4298,-1.4298,-1.4298,-1.4298,-1.4298,-1.4298,-1.4298,-1.4298,-1.4298,-1.4298,-1.4298,-1.4298,-1.4298,-1.4765,-1.5561,-1.6734,-1.7436,-1.7909,-1.8187,-1.873,-1.9396,-2.0112,-2.0538,-2.0955,-2.1737,-2.2158,-2.2382,-2.249,-2.2706,-2.2986,-2.327,-2.3334,-2.3453,-2.3904,-2.3987,-2.4073,-2.4183,-2.4202,-2.4202,-2.4202,-2.4202,-2.4202,-2.4202,-2.4202,-2.4202,-2.4202,-2.4202,-2.4202,-2.4202,-2.4202,-2.4202,-2.4202,-2.4202,-2.4202,-2.4202,-2.4202,-2.4202,-2.4202,-2.4341,-2.444,-2.444,-2.4686,-2.4784,-2.4784,-2.5333,-2.5586,0.0,0.0,0.0,-1.0042,0.0,0.0,0.0,0.0,-0.9324,0.0,0.0,0.0,0.0,-0.9275,-0.9005,-0.8752,-0.871,0.0,0.0,0.0,0.0,0.0,0.0,0.0,0.0,0.0,0.0,0.0,0.0,0.0,-1.1814,-1.2192,-1.259,-1.3133,-1.364,-1.3912,-1.3918,-1.4171,-1.4298,-1.4298,-1.4298,-1.4298,-1.4298,-1.4298,-1.4298,-1.4298,-1.4298,-1.4298,-1.4298,-1.4298,-1.4298,-1.4298,-1.4298,-1.4298,-1.4298,-1.4298,-1.4298,-1.4298,-1.4298,-1.4346,-1.4394,-1.4736,-1.5615,-1.6586,-1.6882,-1.7824,-1.885,-1.8858,-1.8858,-1.8991,-1.9413,-2.0232,-2.1045,-2.1445,-2.2215,-2.2913,-2.2922,-2.2931,-2.3041,-2.3435,-2.3517,-2.3684,-2.4137,-2.4202,-2.4202,-2.4202,-2.4202,-2.4202,-2.4202,-2.4202,-2.4202,-2.4202,-2.4202,-2.4202,-2.4202,-2.4202,-2.4202,-2.4202,-2.4202,-2.4202,-2.4202,-2.4202,-2.4202,-2.4202,-2.4202,-2.4202,-2.4202,-2.439,-2.4529,-2.4538,-2.5088,-2.5333,0.0,0.0,-0.9781,-0.9572,0.0,0.0,0.0,0.0,0.0,0.0,0.0,0.0,0.0,-0.9161,-0.9011,-0.8752,-0.856,-0.8297,0.0,0.0,0.0,0.0,0.0,0.0,0.0,0.0,0.0,0.0,0.0,0.0,0.0,-1.1721,-1.2294,-1.2831,-1.32,-1.3471,-1.3646,-1.3906,-1.4039,-1.4039,-1.4214,-1.4298,-1.4298,-1.4298,-1.4298,-1.4298,-1.4298,-1.4298,-1.4298,-1.4298,-1.4298,-1.4298,-1.4298,-1.4298,-1.4298,-1.4298,-1.4298,-1.4298,-1.4298,-1.4442,-1.4592,-1.4688,-1.5118,-1.5588,-1.5683,-1.615,-1.6749,-1.735,-1.7684,-1.7994,-1.8791,-1.9249,-1.9559,-1.9674,-1.9948,-2.0433,-2.1398,-2.1599,-2.1863,-2.2881,-2.3105,-2.3233,-2.3675,-2.3749,-2.384,-2.4165,-2.4202,-2.4202,-2.4202,-2.4202,-2.4202,-2.4202,-2.4202,-2.4202,-2.4202,-2.4202,-2.4202,-2.4202,-2.4202,-2.4202,-2.4202,-2.4202,-2.4202,-2.4202,-2.4202,-2.4202,-2.4202,-2.4251,-2.4291,-2.4291,-2.4365,-2.4627,-0.823,-0.8593,0.0,-0.8832,-0.8748,0.0,-0.853,0.0,0.0,0.0,0.0,0.0,0.0,-0.9186,-0.9071,-0.9005,-0.8614,-0.8201,0.0,-0.7901,0.0,0.0,0.0,0.0,0.0,0.0,-0.8578,-0.8933,0.0,0.0,0.0,0.0,-1.192,-1.2542,-1.2928,-1.3161,-1.3375,-1.3634,-1.3815,-1.3912,-1.4081,-1.4208,-1.4298,-1.4298,-1.4298,-1.4298,-1.4298,-1.4298,-1.4298,-1.4298,-1.4298,-1.4298,-1.4298,-1.4298,-1.4298,-1.4298,-1.4298,-1.4298,-1.4298,-1.4394,-1.4592,-1.4688,-1.4838,-1.4987,-1.5083,-1.522,-1.5499,-1.619,-1.652,-1.681,-1.7544,-1.801,-1.8288,-1.8288,-1.8565,-1.9036,-1.9974,-2.0441,-2.0977,-2.1986,-2.2451,-2.2812,-2.3215,-2.3288,-2.3471,-2.4119,-2.4202,-2.4202,-2.4202,-2.4202,-2.4202,-2.4202,-2.4073,-2.3877,-2.3739,-2.373,-2.373,-2.373,-2.3859,-2.3932,-2.3932,-2.4128,-2.4202,-2.4202,-2.4202,-2.4202,-2.4202,-2.4202,-2.4202,-2.4192,-2.3876,-2.3975]}]]